     2              OBSERVATION DATA    M                   RINEX VERSION / TYPE
GBSS ENRI, Japan 11/14/2005 23:58                           PGM / RUN BY / DATE
MTKA                                                        MARKER NAME
21741S002                                                   MARKER NUMBER
ENRI ENRI                                                   OBSERVER / AGENCY
ZX00120 Ashtech Z18 0065 ZT16                               REC # / TYPE / VERS
CRG0118 ASH701073.1 SNOW                                    ANT # / TYPE
 -3947762.7496  3364399.8789  3699428.5111                  APPROX POSITION XYZ
        0.0000        0.0000        0.0000                  ANTENNA: DELTA H/E/N
     1     1                                                WAVELENGTH FACT L1/2
     7    L1    L2    C1    P1    P2    D1    D2            # / TYPES OF OBSERV
    30                                                      INTERVAL
    13                                                      LEAP SECONDS
  2005    11    14     0     0    0.000000      GPS         TIME OF FIRST OBS
  2005    11    14    23    59   30.000000      GPS         TIME OF LAST OBS
                                                            END OF HEADER
 05 11 14  0  0  0.0000000  0 14G22G01G20G14G06G16G25G05G30R18R05R17 0.000000019
                                R24R07
  -8663594.557 7  -6750874.090 4  24367716.061    24367716.061    24367723.731
     -3169.743       -2469.845
 -18499171.219 9 -14414942.098 7  21162393.595    21162393.595    21162398.432
      1879.994        1464.927
    816268.350 6    636054.214 1  25215956.049    25215956.049    25215969.042
      1499.268        1168.526
 -25643598.906 9 -19982025.967 7  20299789.570    20299789.570    20299793.462
      -706.292        -550.379
 -17471963.450 9 -13614510.452 7  21282631.756    21282631.756    21282637.079
      1380.612        1075.794
   -841356.263 7   -655600.500 4  24027782.537    24027782.537    24027790.150
      3058.373        2383.133
 -14983522.427 9 -11675475.516 6  22169926.127    22169926.127    22169931.107
      1837.257        1431.650
  17416375.756 7  13571186.854 4  23545777.534    23545777.534    23545784.946
     -3234.111       -2520.054
 -18678896.324 9 -14554990.868 7  20965782.263    20965782.263    20965785.811
     -2247.111       -1751.011
 -12961047.093 8 -10080802.786 7  21520007.778    21520007.778    21520013.507
      3823.311        2973.669
   4601034.139 5   3578559.467 6  23515448.277    23515448.277    23515447.360
     -3889.703       -3025.296
 -18636511.435 8 -14495059.484 6  20662626.241    20662626.241    20662630.194
     -1260.806        -980.614
   4530085.233 6   3523391.900 5  24310666.571    24310666.571    24310672.759
     -3894.106       -3028.752
  -6234883.436 7  -4849357.038 6  23167721.440    23167721.440    23167722.184
      1238.428         963.228
 05 11 14  0  0 30.0000000  0 14G22G01G20G14G06G16G25G05G30R18R05R17-0.000000003
                                R24R07
  -8568536.785 7  -6676803.371 4  24385805.243    24385805.243    24385813.571
     -3168.173       -2468.714
 -18555374.857 9 -14458737.128 7  21151698.319    21151698.319    21151703.013
      1866.202        1454.183
    771517.969 7    601183.799 2  25207441.098    25207441.098    25207441.126
      1483.364        1155.878
 -25622143.625 9 -19965307.571 7  20303872.469    20303872.469    20303876.475
      -724.823        -564.795
 -17513151.468 9 -13646605.041 6  21274793.640    21274793.640    21274799.278
      1364.515        1063.255
   -933018.819 7   -727025.794 4  24010342.238    24010342.238    24010347.045
      3051.841        2378.041
 -15038611.474 8 -11718402.044 6  22159442.572    22159442.572    22159447.208
      1834.614        1429.585
  17513401.942 7  13646791.537 4  23564241.845    23564241.845    23564249.458
     -3235.299       -2521.005
 -18611352.221 9 -14502359.121 7  20978634.663    20978634.663    20978639.385
     -2256.517       -1758.321
 -13075583.786 8 -10169886.803 6  21498648.649    21498648.649    21498654.321
      3811.709        2964.664
   4717707.612 6   3669305.178 5  23537266.567    23537266.567    23537265.020
     -3889.589       -3025.190
 -18598306.558 8 -14465344.653 6  20669764.636    20669764.636    20669767.272
     -1286.860       -1000.900
   4647038.349 7   3614355.533 5  24332531.006    24332531.006    24332533.298
     -3903.463       -3036.049
  -6271690.306 7  -4877984.598 6  23160843.366    23160843.366    23160843.595
      1214.655         944.742
 05 11 14  0  1  0.0000000  0 14G22G01G20G14G06G16G25G05G30R18R05R17-0.000000017
                                R24R07
  -8473552.986 7  -6602790.299 3  24403880.124    24403880.124    24403887.193
     -3165.423       -2466.559
 -18611187.661 9 -14502227.608 7  21141077.152    21141077.152    21141081.874
      1853.313        1444.143
    727218.563 6    566664.708 2  25199010.786    25199010.786    25199017.111
      1468.478        1144.275
 -25600158.755 9 -19948176.529 7  20308056.172    20308056.172    20308060.006
      -742.224        -578.359
 -17553880.069 9 -13678341.626 6  21267042.935    21267042.935    21267049.259
      1349.333        1051.449
  -1024510.663 7   -798318.014 4  23992930.062    23992930.062    23992934.813
      3046.290        2373.725
 -15093646.835 9 -11761286.728 6  22148970.073    22148970.073    22148974.366
      1833.053        1428.346
  17610441.946 7  13722407.009 4  23582708.575    23582708.575    23582713.755
     -3235.408       -2521.146
 -18543552.187 9 -14449527.953 7  20991535.680    20991535.680    20991541.404
     -2264.789       -1764.778
 -13189797.108 8 -10258719.324 6  21477349.505    21477349.505    21477355.463
      3801.087        2956.392
   4834342.406 5   3760020.859 6  23559080.300    23559080.300    23559076.117
     -3887.782       -3023.841
 -18559344.966 8 -14435041.270 6  20677042.771    20677042.771    20677047.011
     -1311.836       -1020.304
   4764247.232 7   3705518.103 5  24354440.772    24354440.772    24354447.131
     -3911.812       -3042.509
  -6307812.226 7  -4906079.421 6  23154093.194    23154093.194    23154094.741
      1192.025         927.132
 05 11 14  0  1 30.0000000  0 14G22G01G20G14G06G16G25G05G30R18R05R17-0.000000022
                                R24R07
  -8378602.989 7  -6528803.596 3  24421946.183    24421946.183    24421952.365
     -3164.466       -2465.850
 -18666564.236 9 -14545378.190 7  21130539.444    21130539.444    21130543.994
      1838.607        1432.687
    683414.140 6    532531.413 1  25190673.864    25190673.864    25190683.107
      1451.862        1131.330
 -25577601.313 9 -19930599.337 7  20312348.508    20312348.508    20312352.372
      -761.455        -593.322
 -17594104.573 9 -13709685.408 6  21259388.406    21259388.406    21259394.416
      1332.394        1038.223
  -1115788.029 7   -869443.106 4  23975561.363    23975561.363    23975566.400
      3039.039        2368.067
 -15148584.940 9 -11804095.661 6  22138516.097    22138516.097    22138519.846
      1829.639        1425.707
  17707537.077 7  13798065.371 4  23601184.766    23601184.766    23601192.693
     -3237.455       -2522.650
 -18475455.430 9 -14396465.598 7  21004495.512    21004495.512    21004499.690
     -2274.832       -1772.593
 -13303638.170 8 -10347262.317 6  21456120.630    21456120.630    21456126.703
      3788.437        2946.555
   4950978.500 5   3850737.482 6  23580890.240    23580890.240    23580888.120
     -3887.866       -3023.871
 -18519584.912 8 -14404116.814 6  20684469.374    20684469.374    20684473.327
     -1338.524       -1041.097
   4881752.021 7   3796910.782 5  24376408.182    24376408.182    24376413.911
     -3921.708       -3050.192
  -6343203.550 7  -4933606.013 6  23147480.647    23147480.647    23147479.960
      1167.471         908.072
 05 11 14  0  2  0.0000000  0 14G22G01G20G14G06G16G25G05G30R18R05R17-0.000000019
                                R24R07
  -8283694.791 7  -6454849.420 3  24440007.236    24440007.236    24440016.251
     -3162.510       -2464.271
 -18721507.637 9 -14588191.221 7  21120084.020    21120084.020    21120088.913
      1824.658        1421.801
    640100.895 6    498780.826 2  25182432.857    25182432.857    25182446.794
      1436.069        1119.032
 -25554476.580 9 -19912580.078 7  20316749.238    20316749.238    20316753.073
      -779.812        -607.640
 -17633828.709 9 -13740639.290 6  21251829.302    21251829.302    21251835.283
      1316.248        1025.659
  -1206855.001 7   -940404.267 4  23958230.535    23958230.535    23958237.403
      3032.553        2363.010
 -15203430.658 8 -11846832.577 6  22128078.807    22128078.807    22128083.815
      1827.144        1423.719
  17804680.387 7  13873761.328 4  23619669.867    23619669.867    23619678.166
     -3238.415       -2523.440
 -18407069.463 9 -14343177.867 7  21017509.398    21017509.398    21017513.347
     -2283.852       -1779.618
 -13417108.391 8 -10435516.877 6  21434959.981    21434959.981    21434966.341
      3776.610        2937.356
   5067605.849 6   3941447.380 6  23602702.544    23602702.544    23602699.336
     -3886.704       -3022.949
 -18479035.847 8 -14372578.744 6  20692043.413    20692043.413    20692048.684
     -1364.352       -1061.170
   4999542.106 7   3888525.361 5  24398427.583    24398427.583    24398432.109
     -3930.598       -3057.151
  -6377868.717 7  -4960567.810 6  23141000.617    23141000.617    23141002.908
      1143.850         889.662
 05 11 14  0  2 30.0000000  0 14G22G01G20G14G06G16G25G05G30R18R05R17-0.000000020
                                R24R07
  -8188845.668 7  -6380941.318 3  24458058.394    24458058.394    24458061.657
     -3160.481       -2462.724
 -18776030.138 9 -14630676.292 7  21109708.841    21109708.841    21109713.849
      1810.520        1410.786
    597265.071 6    465402.251 2  25174281.456    25174281.456    25174283.088
      1419.989        1106.487
 -25530799.141 9 -19894130.155 7  20321254.723    20321254.723    20321258.701
      -798.302        -622.067
 -17673065.137 9 -13771213.157 6  21244362.648    21244362.648    21244368.830
      1299.883        1012.880
  -1297725.073 7  -1011212.033 4  23940939.173    23940939.173    23940946.270
      3025.750        2357.727
 -15258197.830 8 -11889508.278 6  22117657.206    22117657.206    22117662.185
      1824.386        1421.603
  17901855.745 7  13949482.240 4  23638162.489    23638162.489    23638167.955
     -3239.596       -2524.374
 -18338410.998 9 -14289677.777 7  21030573.128    21030573.128    21030578.307
     -2292.944       -1786.720
 -13530218.932 8 -10523491.705 6  21413867.230    21413867.230    21413873.589
      3764.467        2927.905
   5184205.434 5   4032135.656 6  23624508.220    23624508.220    23624504.897
     -3885.919       -3022.345
 -18437711.981 8 -14340438.010 5  20699763.978    20699763.978    20699767.816
     -1389.424       -1080.649
   5117599.861 6   3980348.065 5  24420498.820    24420498.820    24420499.393
     -3939.528       -3064.103
  -6411821.570 7  -4986975.585 6  23134656.207    23134656.207    23134657.181
      1119.962         871.078
 05 11 14  0  3  0.0000000  0 14G22G01G20G14G06G16G25G05G30R18R05R17-0.000000021
                                R24R07
  -8094053.131 7  -6307077.348 3  24476095.962    24476095.962    24476102.716
     -3159.097       -2461.640
 -18830123.862 9 -14672827.252 7  21099415.449    21099415.449    21099420.143
      1795.560        1399.122
    554913.384 6    432400.909 2  25166223.177    25166223.177    25166224.894
      1403.336        1093.506
 -25506563.849 9 -19875245.541 7  20325866.802    20325866.802    20325870.637
      -817.524        -637.034
 -17711807.042 9 -13801401.663 6  21236990.162    21236990.162    21236996.315
      1282.772         999.552
  -1388391.853 7  -1081861.402 4  23923686.892    23923686.892    23923691.528
      3018.484        2352.124
 -15312880.524 9 -11932118.183 6  22107251.505    22107251.505    22107256.141
      1820.966        1418.938
  17999066.957 7  14025231.087 4  23656660.394    23656660.394    23656670.238
     -3241.348       -2525.735
 -18269476.842 9 -14235962.888 7  21043691.202    21043691.202    21043696.611
     -2302.719       -1794.332
 -13642959.428 8 -10611178.723 6  21392843.216    21392843.216    21392848.773
      3751.452        2917.805
   5300779.361 5   4122803.937 6  23646307.364    23646307.364    23646305.702
     -3885.616       -3022.104
 -18395613.684 8 -14307694.943 6  20707628.769    20707628.769    20707631.405
     -1416.674       -1101.834
   5235926.520 6   4072379.935 5  24442616.500    24442616.500    24442622.688
     -3949.007       -3071.492
  -6445055.531 7  -5012824.236 6  23128446.426    23128446.426    23128447.858
      1095.331         851.961
 05 11 14  0  3 30.0000000  0 14G22G01G20G14G06G16G25G05G30R18R05R17-0.000000020
                                R24R07
  -7999317.071 7  -6233257.366 3  24494125.582    24494125.582    24494135.141
     -3156.829       -2459.863
 -18883783.796 9 -14714640.183 7  21089203.986    21089203.986    21089208.966
      1781.478        1388.174
    513049.894 6    399779.984 2  25158256.372    25158256.372    25158261.953
      1387.371        1081.083
 -25481767.851 9 -19855924.011 7  20330585.193    20330585.193    20330589.114
      -835.809        -651.274
 -17750049.966 9 -13831201.372 6  21229713.263    21229713.263    21229719.044
      1266.499         986.890
  -1478851.763 7  -1152349.566 4  23906471.412    23906471.412    23906479.168
      3012.001        2347.043
 -15367475.177 9 -11974659.476 6  22096862.259    22096862.259    22096866.094
      1818.436        1416.956
  18096315.322 7  14101008.895 4  23675167.701    23675167.701    23675173.882
     -3242.218       -2526.449
 -18200266.313 9 -14182032.648 7  21056862.234    21056862.234    21056866.813
     -2311.551       -1801.199
 -13755324.016 8 -10698573.353 6  21371889.186    21371889.186    21371894.515
      3739.261        2908.308
   5417325.392 5   4213450.556 6  23668100.453    23668100.453    23668099.307
     -3884.241       -3021.072
 -18352736.374 8 -14274345.954 6  20715639.246    20715639.246    20715642.512
     -1441.954       -1121.517
   5354521.094 6   4164620.310 5  24464787.113    24464787.113    24464791.124
     -3957.620       -3078.148
  -6477565.702 7  -5038109.930 6  23122371.255    23122371.255    23122370.911
      1071.691         833.513
 05 11 14  0  4  0.0000000  0 14G22G01G20G14G06G16G25G05G30R18R05R17-0.000000021
                                R24R07
  -7904648.650 7  -6159490.064 3  24512139.051    24512139.051    24512148.380
     -3154.138       -2457.809
 -18937016.159 9 -14756119.952 7  21079074.036    21079074.036    21079079.015
      1767.588        1377.348
    471666.752 6    367533.370 2  25150380.557    25150380.557    25150391.146
      1371.755        1068.919
 -25456419.670 9 -19836172.225 7  20335409.024    20335409.024    20335412.744
      -853.817        -665.308
 -17787800.844 9 -13860617.634 7  21222529.380    21222529.380    21222535.276
      1250.451         974.386
  -1569112.228 7  -1222682.326 4  23889297.227    23889297.227    23889303.409
      3005.607        2342.022
 -15421989.655 9 -12017138.310 6  22086488.940    22086488.940    22086492.775
      1816.131        1415.161
  18193590.358 7  14176807.475 4  23693677.905    23693677.905    23693685.460
     -3242.661       -2526.735
 -18130790.316 9 -14127895.539 7  21070082.893    21070082.893    21070087.816
     -2319.955       -1807.745
 -13867316.580 8 -10785678.644 6  21351004.264    21351004.264    21351009.707
      3727.143        2898.870
   5533830.917 6   4304065.623 6  23689890.255    23689890.255    23689886.875
     -3882.376       -3019.595
 -18309093.146 8 -14240401.255 6  20723791.358    20723791.358    20723794.166
     -1467.287       -1141.225
   5473370.597 6   4257058.916 5  24487003.609    24487003.609    24487009.224
     -3965.472       -3084.277
  -6509361.212 7  -5062839.741 6  23116428.315    23116428.315    23116430.607
      1048.230         815.308
 05 11 14  0  4 30.0000000  0 14G22G01G20G14G06G16G25G05G30R18R05R17-0.000000019
                                R24R07
  -7810039.808 7  -6085769.236 3  24530142.675    24530142.675    24530152.004
     -3153.407       -2457.211
 -18989807.865 9 -14797256.336 7  21069028.007    21069028.007    21069033.130
      1751.634        1364.904
    430776.119 6    335670.541 2  25142600.714    25142600.714    25142611.017
      1353.966        1055.038
 -25430508.736 9 -19815981.929 7  20340339.554    20340339.554    20340343.446
      -873.785        -680.875
 -17825047.287 9 -13889640.845 7  21215441.916    21215441.916    21215447.411
      1232.384         960.312
  -1659161.220 7  -1292850.327 4  23872160.687    23872160.687    23872165.151
      2997.430        2335.649
 -15476412.784 8 -12059545.956 6  22076131.761    22076131.761    22076136.827
      1811.844        1411.844
  18290901.661 7  14252634.326 4  23712193.385    23712193.385    23712203.859
     -3245.026       -2528.557
 -18061039.926 9 -14073544.623 7  21083355.321    21083355.321    21083360.157
     -2330.291       -1815.805
 -13978921.263 8 -10872482.242 6  21330191.674    21330191.674    21330197.861
      3712.932        2887.843
   5650303.384 5   4394654.998 6  23711671.065    23711671.065    23711668.430
     -3882.499       -3019.748
 -18264673.149 8 -14205852.399 6  20732089.803    20732089.803    20732092.439
     -1494.326       -1162.246
   5592483.015 6   4349702.001 5  24509271.270    24509271.270    24509277.114
     -3975.494       -3092.078
  -6540429.367 7  -5087003.876 6  23110623.624    23110623.624    23110624.655
      1022.699         795.454
 05 11 14  0  5  0.0000000  0 14G22G01G20G14G06G16G25G05G30R18R05R17-0.000000019
                                R24R07
  -7715501.569 7  -6012103.386 3  24548131.880    24548131.880    24548138.434
     -3150.395       -2454.873
 -19042165.104 9 -14838054.197 7  21059065.202    21059065.202    21059070.010
      1737.648        1354.018
    390370.905 6    304185.930 2  25134909.106    25134909.106    25134915.631
      1338.340        1042.873
 -25404043.509 9 -19795359.717 7  20345375.835    20345375.835    20345379.584
      -891.734        -694.852
 -17861796.128 9 -13918276.297 7  21208448.917    21208448.917    21208454.898
      1216.336         947.800
  -1749006.104 7  -1362859.265 4  23855063.719    23855063.719    23855070.960
      2991.144        2330.762
 -15530752.282 9 -12101888.418 6  22065791.401    22065791.401    22065796.180
      1809.600        1410.067
  18388239.163 7  14328481.609 4  23730716.910    23730716.910    23730725.638
     -3245.267       -2528.724
 -17991025.904 9 -14018988.303 7  21096679.520    21096679.520    21096683.784
     -2338.485       -1822.189
 -14090143.080 8 -10958988.058 6  21309450.770    21309450.770    21309457.473
      3700.601        2878.259
   5766729.832 6   4485208.612 6  23733443.106    23733443.106    23733440.184
     -3880.403       -3018.077
 -18219486.986 8 -14170707.623 6  20740530.057    20740530.057    20740533.495
     -1519.286       -1181.655
   5711845.430 7   4442539.592 5  24531584.761    24531584.761    24531589.173
     -3983.148       -3098.010
  -6570777.977 7  -5110608.339 6  23104952.084    23104952.084    23104951.741
       999.300         777.233
 05 11 14  0  5 30.0000000  0 14G22G01G20G14G06G16G25G05G30R18R05R17-0.000000019
                                R24R07
  -7621033.524 7  -5938492.235 3  24566109.667    24566109.667    24566116.135
     -3147.988       -2452.979
 -19094082.495 9 -14878509.317 7  21049185.489    21049185.489    21049190.211
      1722.957        1342.556
    350454.575 6    273082.272 2  25127315.540    25127315.540    25127320.376
      1322.169        1030.249
 -25377020.995 9 -19774303.255 7  20350518.113    20350518.113    20350521.919
      -910.295        -709.335
 -17898042.704 9 -13946520.379 7  21201551.741    21201551.741    21201557.264
      1199.538         934.696
  -1838642.812 7  -1432706.020 4  23838005.802    23838005.802    23838011.011
      2984.173        2325.280
 -15585004.200 8 -12144162.656 6  22055468.437    22055468.437    22055472.443
      1806.625        1407.778
  18485604.435 7  14404350.520 4  23749246.259    23749246.259    23749256.018
     -3246.162       -2529.465
 -17920747.184 9 -13964225.727 7  21110053.268    21110053.268    21110056.988
     -2347.267       -1829.030
 -14200973.915 8 -11045189.777 6  21288782.820    21288782.820    21288789.409
      3687.585        2868.120
   5883109.633 5   4575725.944 6  23755206.509    23755206.509    23755205.592
     -3878.781       -3016.798
 -18173534.230 8 -14134966.611 6  20749115.689    20749115.689    20749118.955
     -1544.784       -1201.472
   5831457.609 6   4535571.377 5  24553945.511    24553945.511    24553950.610
     -3991.492       -3104.461
  -6600402.947 7  -5133649.964 6  23099416.057    23099416.057    23099417.260
       975.179         758.467
 05 11 14  0  6  0.0000000  0 14G22G01G20G14G06G16G25G05G30R18R05R17-0.000000020
                                R24R07
  -7526641.778 7  -5864940.557 3  24584073.774    24584073.774    24584078.983
     -3145.469       -2451.000
 -19145561.548 9 -14918622.860 7  21039389.098    21039389.098    21039394.135
      1708.326        1331.166
    311025.199 7    242358.024 2  25119811.614    25119811.614    25119810.269
      1305.921        1017.605
 -25349445.450 9 -19752815.864 7  20355765.808    20355765.808    20355769.471
      -928.748        -723.707
 -17933789.082 9 -13974374.702 7  21194749.173    21194749.173    21194754.754
      1182.851         921.704
  -1928074.029 7  -1502392.655 4  23820988.025    23820988.025    23820995.094
      2977.276        2319.933
 -15639171.626 8 -12186371.062 6  22045160.083    22045160.083    22045164.519
      1803.832        1405.586
  18582992.323 7  14480237.029 5  23767779.244    23767779.244    23767788.173
     -3247.034       -2530.112
 -17850209.573 9 -13909261.387 7  21123475.564    21123475.564    21123480.429
     -2355.879       -1835.749
 -14311414.945 8 -11131088.322 6  21268188.627    21268188.627    21268193.440
      3674.488        2857.936
   5999434.469 6   4666200.511 6  23776960.691    23776960.691    23776959.144
     -3876.904       -3015.360
 -18126821.129 8 -14098634.207 6  20757841.803    20757841.803    20757845.240
     -1570.174       -1221.220
   5951312.383 7   4628791.963 5  24576351.651    24576351.651    24576354.000
     -3999.589       -3110.789
  -6629307.352 7  -5156131.191 6  23094014.431    23094014.431    23094015.864
       951.129         739.765
 05 11 14  0  6 30.0000000  0 14G22G01G20G14G06G16G25G05G30R18R05R17-0.000000032
                                R24R07
  -7432326.431 7  -5791448.422 3  24602020.654    24602020.654    24602029.669
     -3143.293       -2449.327
 -19196597.217 9 -14958390.924 7  21029677.499    21029677.499    21029682.822
      1693.018        1319.201
    272086.431 6    212016.119 2  25112403.700    25112403.700    25112412.686
      1289.003        1004.421
 -25321313.842 9 -19730895.185 7  20361118.681    20361118.681    20361122.860
      -947.739        -738.500
 -17969031.044 9 -14001835.954 7  21188042.479    21188042.479    21188048.260
      1165.519         908.223
  -2017296.186 7  -1571916.391 4  23804008.301    23804008.301    23804017.430
      2969.816        2314.104
 -15693251.223 8 -12228510.995 6  22034869.158    22034869.158    22034873.651
      1800.449        1402.934
  18680403.982 7  14556142.081 4  23786317.446    23786317.446    23786323.685
     -3248.122       -2531.010
 -17779412.407 9 -13854094.824 7  21136947.917    21136947.917    21136952.182
     -2364.939       -1842.822
 -14421457.522 8 -11216676.935 6  21247667.910    21247667.910    21247673.181
      3660.653        2847.169
   6115703.624 5   4756631.792 5  23798704.774    23798704.774    23798703.686
     -3875.392       -3014.235
 -18079347.277 8 -14061710.101 6  20766709.158    20766709.158    20766713.398
     -1595.926       -1241.259
   6071407.595 6   4722199.556 5  24598802.355    24598802.355    24598805.449
     -4007.972       -3117.290
  -6657487.629 7  -5178049.167 6  23088748.586    23088748.586    23088748.815
       926.527         720.653
 05 11 14  0  7  0.0000000  0 14G22G01G20G14G06G16G25G05G30R18R05R17-0.000000034
                                R24R07
  -7338087.996 7  -5718016.222 3  24619954.823    24619954.823    24619963.008
     -3140.200       -2446.897
 -19247185.268 9 -14997810.190 7  21020051.076    21020051.076    21020056.170
      1678.559        1307.956
    233641.047 6         0.000 1  25105085.989    25105085.989           0.000
      1273.068          -0.000
 -25292624.495 9 -19708539.905 7  20366578.315    20366578.315    20366582.265
      -965.840        -752.582
 -18003765.008 9 -14028901.360 7  21181432.471    21181432.471    21181438.195
      1149.101         895.403
  -2106306.062 7  -1641274.714 4  23787072.569    23787072.569    23787078.608
      2963.205        2309.016
 -15747240.120 8 -12270580.276 6  22024595.656    22024595.656    22024600.550
      1797.891        1400.980
  18777839.883 7  14632066.063 4  23804857.617    23804857.617    23804866.174
     -3248.537       -2531.310
 -17708355.879 9 -13798726.171 7  21150469.950    21150469.950    21150473.813
     -2373.078       -1849.150
 -14531096.895 8 -11301951.964 6  21227221.271    21227221.271    21227227.287
      3647.670        2837.081
   6231915.267 5   4847018.342 6  23820436.143    23820436.143    23820434.081
     -3872.956       -3012.307
 -18031112.326 8 -14024194.014 6  20775721.320    20775721.320    20775725.159
     -1620.668       -1260.560
   6191743.010 6   4815794.082 4  24621297.579    24621297.579    24621301.361
     -4015.345       -3123.125
  -6684940.105 7  -5199401.078 6  23083617.780    23083617.780    23083618.410
       902.725         702.095
 05 11 14  0  7 30.0000000  0 14G22G01G20G14G06G16G25G05G30R18R05R17-0.000000034
                                R24R07
  -7243927.779 7  -5644644.887 3  24637875.425    24637875.425    24637882.551
     -3137.322       -2444.667
 -19297322.310 9 -15036878.021 7  21010510.306    21010510.306    21010515.371
      1663.711        1296.397
    195691.185 6    152487.312 1  25097865.848    25097865.848    25097866.306
      1256.749         979.077
 -25263376.599 9 -19685749.389 7  20372144.117    20372144.117    20372148.324
      -984.225        -766.913
 -18037988.373 9 -14055568.881 7  21174920.355    21174920.355    21174925.821
      1132.273         882.279
  -2195101.497 7  -1710465.886 4  23770173.156    23770173.156    23770183.258
      2956.310        2303.569
 -15801136.338 9 -12312577.329 6  22014339.685    22014339.685    22014344.093
      1795.047        1398.710
  18875299.786 7  14708008.677 4  23823404.800    23823404.800    23823411.039
     -3248.960       -2531.618
 -17637040.886 9 -13743156.092 7  21164040.628    21164040.628    21164045.236
     -2381.412       -1855.635
 -14640327.065 8 -11386908.742 6  21206851.675    21206851.675    21206856.774
      3634.158        2826.568
   6348065.688 5   4937357.312 6  23842155.839    23842155.839    23842153.089
     -3870.645       -3010.488
 -17982118.343 8 -13986087.580 6  20784873.820    20784873.820    20784876.512
     -1645.581       -1279.893
   6312314.898 5   4909572.400 4  24643833.921    24643833.921    24643839.994
     -4023.047       -3129.017
  -6711663.320 7  -5220185.787 6  23078624.951    23078624.951    23078624.550
       878.688         683.429
 05 11 14  0  8  0.0000000  0 14G22G01G20G14G06G16G25G05G30R18R05R17-0.000000034
                                R24R07
  -7149852.263 7  -5571339.646 3  24655776.300    24655776.300    24655784.284
     -3134.166       -2442.188
 -19347009.418 9 -15075595.261 7  21001055.231    21001055.231    21001060.097
      1648.957        1284.895
    158234.399 6    123300.185 2  25090737.791    25090737.791    25090739.107
      1240.687         966.775
 -25233573.785 9 -19662526.475 7  20377815.586    20377815.586    20377819.679
     -1002.434        -781.119
 -18071703.133 9 -14081840.105 7  21168504.969    21168504.969    21168510.263
      1115.563         869.277
  -2283685.145 8  -1779492.039 4  23753319.169    23753319.169    23753323.977
      2949.526        2298.314
 -15854942.619 8 -12354504.292 6  22004100.288    22004100.288    22004105.239
      1792.261        1396.571
  18972778.703 7  14783966.146 4  23841951.347    23841951.347    23841960.962
     -3249.319       -2531.912
 -17565472.906 9 -13687388.894 7  21177659.516    21177659.516    21177664.037
     -2389.513       -1861.943
 -14749146.471 8 -11471546.002 6  21186559.123    21186559.123    21186565.711
      3620.705        2816.102
   6464147.995 5   5027643.255 6  23863867.101    23863867.101    23863864.580
     -3868.018       -3008.482
 -17932370.841 7 -13947395.064 5  20794166.059    20794166.059    20794169.038
     -1669.746       -1298.729
   6433117.398 5   5003530.210 4  24666418.777    24666418.777    24666421.584
     -4030.130       -3134.554
  -6737660.187 7  -5240405.550 6  23073766.079    23073766.079    23073765.965
       854.704         664.773
 05 11 14  0  8 30.0000000  0 14G22G01G20G14G06G16G25G05G30R18R05R17-0.000000032
                                R24R07
  -7055861.016 7  -5498100.096 3  24673660.038    24673660.038    24673671.543
     -3131.819       -2440.389
 -19396241.543 9 -15113957.975 7  20991686.432    20991686.432    20991691.412
      1633.239        1272.681
    121274.634 6     94500.340 2  25083704.152    25083704.152    25083708.302
      1223.593         953.468
 -25203213.224 9 -19638868.958 7  20383592.912    20383592.912    20383597.147
     -1021.518        -795.994
 -18104904.938 9 -14107711.608 7  21162186.644    21162186.644    21162192.339
      1097.985         855.550
  -2372052.999 8  -1848350.047 4  23736500.096    23736500.096    23736506.735
      2941.867        2292.326
 -15908655.443 8 -12396358.438 6  21993879.217    21993879.217    21993883.424
      1788.672        1393.789
  19070278.158 7  14859939.578 4  23860508.033    23860508.033    23860517.191
     -3250.550       -2532.894
 -17493651.352 9 -13631424.120 7  21191326.873    21191326.873    21191331.452
     -2398.468       -1868.934
 -14857548.625 8 -11555858.752 6  21166344.284    21166344.284    21166350.243
      3606.221        2804.808
   6580161.570 5   5117875.752 5  23885559.316    23885559.316    23885558.858
     -3866.107       -3006.953
 -17881868.020 8 -13908115.082 6  20803600.118    20803600.118    20803602.353
     -1696.195       -1319.274
   6554149.623 5         0.000 1  24689043.087    24689043.087           0.000
     -4038.295          -0.000
  -6762927.387 7  -5260057.836 6  23069044.093    23069044.093    23069044.551
       829.775         645.391
 05 11 14  0  9  0.0000000  0 13G22G01G20G14G06G16G25G05G30R18R05R17-0.000000032
                                R07
  -6961961.055 6  -5424931.605 2  24691531.861    24691531.861    24691535.439
     -3128.667       -2437.897
 -19445020.984 9 -15151967.943 7  20982404.294    20982404.294    20982409.445
      1618.169        1260.938
     84807.868 6     66084.711 2  25076762.905    25076762.905    25076773.866
      1207.086         940.564
 -25172300.137 9 -19614780.892 7  20389475.164    20389475.164    20389479.486
     -1039.892        -810.279
 -18137597.008 9 -14133185.929 7  21155965.348    21155965.348    21155971.129
      1081.008         842.340
  -2460208.651 7  -1917042.676 4  23719726.308    23719726.308    23719731.946
      2934.806        2286.813
 -15962278.883 8 -12438142.911 6  21983674.969    21983674.969    21983679.691
      1785.742        1391.492
  19167792.022 7  14935924.264 4  23879064.748    23879064.748    23879068.182
     -3250.904       -2533.138
 -17421582.718 9 -13575266.791 7  21205040.620    21205040.620    21205045.198
     -2406.588       -1875.281
 -14965534.265 8 -11639847.541 6  21146206.450    21146206.450    21146212.752
      3592.296        2794.020
   6696097.106 6   5208047.632 6  23907242.369    23907242.369    23907240.077
     -3863.372       -3004.821
 -17830618.842 8 -13868254.619 6  20813174.850    20813174.850    20813179.663
     -1720.966       -1338.529
  -6787468.452 7  -5279145.307 6  23064458.355    23064458.355    23064459.673
       805.740         626.691
 05 11 14  0  9 30.0000000  0 13G22G01G20G14G06G16G25G05G30R18R05R17-0.000000036
                                R07
  -6868157.465 7  -5351838.243 3  24709379.888    24709379.888    24709384.439
     -3125.400       -2435.395
 -19493347.885 9 -15189625.281 7  20973207.899    20973207.899    20973212.935
      1603.144        1249.231
     48833.299 6     38052.600 1  25069919.655    25069919.655    25069927.496
      1190.631         927.771
 -25140836.956 9 -19590264.188 7  20395462.583    20395462.583    20395466.905
     -1058.149        -824.528
 -18169780.103 9 -14158263.639 7  21149841.039    21149841.039    21149847.020
      1064.090         829.137
  -2548153.510 7  -1985571.086 4  23702991.013    23702991.013    23702997.395
      2927.674        2281.303
 -16015814.392 9 -12479858.880 6  21973487.311    21973487.311    21973491.689
      1782.821        1389.221
  19265316.593 7  15011917.308 4  23897621.747    23897621.747    23897630.332
     -3251.146       -2533.384
 -17349271.532 9 -13518920.472 7  21218801.629    21218801.629    21218805.664
     -2414.604       -1881.504
 -15073101.483 8 -11723510.893 6  21126146.554    21126146.554    21126154.059
      3578.346        2783.187
   6811948.300 5   5298153.841 5  23928905.906    23928905.906    23928906.078
     -3860.578       -3002.665
 -17778626.377 8 -13827816.040 6  20822887.984    20822887.984    20822891.593
     -1745.600       -1357.669
  -6811285.211 8  -5297669.487 6  23060008.230    23060008.230    23060008.459
       781.660         607.949
 05 11 14  0 10  0.0000000  0 13G22G01G20G14G06G16G25G05G30R18R05R17-0.000000036
                                R07
  -6774444.154 7  -5278815.329 3  24727213.396    24727213.396    24727223.641
     -3121.983       -2432.689
 -19541211.568 9 -15226921.667 7  20964099.799    20964099.799    20964104.922
      1587.929        1237.323
     13359.565 6     10410.621 2  25063166.898    25063166.898    25063176.857
      1174.245         915.000
 -25108815.557 9 -19565312.494 7  20401556.367    20401556.367    20401560.402
     -1076.491        -838.823
 -18201444.513 8 -14182937.180 7  21143815.528    21143815.528    21143821.194
      1047.045         815.860
  -2635878.207 7  -2053927.902 4  23686296.486    23686296.486    23686303.354
      2920.660        2275.874
 -16069252.426 8 -12521498.897 6  21963318.154    21963318.154    21963322.990
      1779.820        1386.857
  19362858.940 7  15087924.178 4  23916184.095    23916184.095    23916191.707
     -3251.480       -2533.657
 -17276711.340 9 -13462380.108 7  21232609.068    21232609.068    21232613.676
     -2422.576       -1887.720
 -15180238.211 8 -11806839.415 6  21106167.254    21106167.254    21106174.587
      3564.216        2772.166
   6927720.705 5   5388198.780 6  23950556.083    23950556.083    23950553.676
     -3857.391       -3000.193
 -17725885.345 8 -13786795.237 6  20832739.463    20832739.463    20832742.900
     -1770.297       -1376.913
  -6834368.724 7  -5315623.321 6  23055693.714    23055693.714    23055693.886
       757.422         589.121
 05 11 14  0 10 30.0000000  0 13G22G01G20G14G06G16G25G05G30R18R05R17-0.000000035
                                R07
  -6680824.844 7  -5205865.561 3  24745029.932    24745029.932    24745036.657
     -3119.319       -2430.653
 -19588610.793 9 -15263856.143 7  20955079.604    20955079.604    20955084.641
      1571.916        1224.851
    -21612.991 6    -16840.709 2  25056513.104    25056513.104    25056519.800
      1157.110         901.674
 -25076237.433 9 -19539926.998 7  20407755.639    20407755.639    20407759.588
     -1095.465        -853.611
 -18232589.783 9 -14207206.221 7  21137888.879    21137888.879    21137894.918
      1029.258         802.026
  -2723382.480 8  -2122112.973 4  23669644.175    23669644.175    23669650.128
      2912.901        2269.790
 -16122593.513 8 -12563063.369 6  21953167.697    21953167.697    21953172.963
      1776.177        1384.012
  19460416.579 7  15163942.945 4  23934748.049    23934748.049    23934754.517
     -3252.358       -2534.319
 -17203905.229 9 -13405648.142 7  21246463.729    21246463.729    21246468.938
     -2431.189       -1894.430
 -15286940.101 8 -11889829.738 6  21086269.919    21086269.919    21086276.508
      3549.142        2760.446
   7043408.670 5   5478178.047 5  23972191.522    23972191.522    23972186.939
     -3854.965       -2998.283
 -17672399.521 8 -13745195.154 5  20842732.850    20842732.850    20842737.777
     -1795.476       -1396.497
  -6856718.550 8  -5333006.541 6  23051517.535    23051517.535    23051517.363
       732.556         569.770
 05 11 14  0 11  0.0000000  0 13G22G01G20G14G06G16G25G05G30R18R05R17-0.000000037
                                R07
  -6587311.889 7  -5132998.702 3  24762825.189    24762825.189    24762831.457
     -3115.198       -2427.400
 -19635553.183 9 -15300434.638 7  20946147.003    20946147.003    20946152.011
      1557.097        1213.322
    -56093.323 6    -43708.576 2  25049950.718    25049950.718    25049954.810
      1141.252         889.298
 -25043112.706 9 -19514115.568 7  20414059.136    20414059.136    20414063.028
     -1113.292        -867.518
 -18263224.361 9 -14231077.305 7  21132059.362    21132059.362    21132065.057
      1012.632         789.069
  -2810675.442 7  -2190133.383 4  23653033.700    23653033.700    23653040.225
      2906.203        2264.561
 -16175846.739 9 -12604559.372 6  21943034.463    21943034.463    21943039.357
      1773.628        1382.057
  19557978.242 7  15239964.860 4  23953313.730    23953313.730    23953320.455
     -3252.135       -2534.129
 -17130865.214 9 -13348733.885 7  21260362.909    21260362.909    21260367.488
     -2438.526       -1900.157
 -15393213.698 8 -11972486.929 6  21066452.564    21066452.564    21066458.465
      3535.278        2749.673
   7158998.185 5   5568080.781 5  23993805.175    23993805.175    23993802.883
     -3851.340       -2995.472
 -17618180.731 8 -13703024.989 6  20852860.324    20852860.324    20852864.105
     -1819.481       -1415.159
  -6878345.433 7  -5349827.446 6  23047476.325    23047476.325    23047476.783
       708.827         551.297
 05 11 14  0 11 30.0000000  0 13G22G01G20G14G06G16G25G05G30R18R05R17-0.000000039
                                R07
  -6493898.505 6  -5060209.456 3  24780601.468    24780601.468    24780606.418
     -3111.890       -2424.855
 -19682027.251 9 -15336648.220 7  20937303.399    20937303.399    20937308.321
      1541.546        1201.184
    -90071.261 6    -70184.948 2  25043484.798    25043484.798    25043492.811
      1124.444         876.166
 -25009432.488 9 -19487871.289 7  20420468.203    20420468.203    20420472.153
     -1131.694        -881.841
 -18293337.629 9 -14254542.195 7  21126329.205    21126329.205    21126334.785
       995.310         775.595
  -2897746.920 7  -2257981.233 4  23636463.111    23636463.111    23636471.038
      2898.872        2258.851
 -16229001.806 8 -12645978.914 6  21932919.140    21932919.140    21932924.148
      1770.425        1379.569
  19655552.080 7  15315996.275 4  23971881.227    23971881.227    23971889.640
     -3252.425       -2534.359
 -17057583.732 9 -13291631.475 7  21274307.929    21274307.929    21274311.878
     -2446.486       -1906.353
 -15499045.712 8 -12054800.659 7  21046716.808    21046716.808    21046721.735
      3520.529        2738.196
   7274494.811 5   5657911.213 6  24015403.871    24015403.871    24015403.756
     -3848.073       -2992.945
 -17563221.083 8 -13660278.619 6  20863126.905    20863126.905    20863130.915
     -1844.092       -1434.304
  -6899238.839 7  -5366077.866 6  23043570.752    23043570.752    23043572.299
       684.404         532.295
 05 11 14  0 12  0.0000000  0 13G22G01G20G14G06G16G25G05G30R18R05R17-0.000000042
                                R07
  -6400591.388 6  -4987503.004 2  24798357.381    24798357.381    24798368.313
     -3108.551       -2422.222
 -19728035.379 9 -15372498.735 7  20928548.456    20928548.456    20928553.149
      1525.715        1188.873
   -123550.697 6    -96272.863 2  25037115.720    25037115.720    25037120.470
      1107.564         863.062
 -24975201.429 9 -19461197.780 7  20426982.562    20426982.562    20426986.454
     -1150.320        -896.350
 -18322932.708 9 -14277603.302 7  21120697.704    21120697.704    21120703.285
       977.780         761.887
  -2984600.268 7  -2325659.105 4  23619935.419    23619935.419    23619942.316
      2891.406        2253.075
 -16282062.287 9 -12687324.752 6  21922822.428    21922822.428    21922827.035
      1766.992        1376.866
  19753132.039 7  15392032.458 4  23990451.179    23990451.179    23990457.361
     -3252.866       -2534.660
 -16984067.514 9 -13234346.164 7  21288297.143    21288297.143    21288301.951
     -2454.537       -1912.625
 -15604435.919 8 -12136770.792 6  21027062.589    21027062.589    21027069.006
      3505.488        2726.493
   7389890.644 5   5747663.262 5  24036983.562    24036983.562    24036984.994
     -3844.882       -2990.445
 -17507529.667 8 -13616963.116 6  20873530.079    20873530.079    20873535.006
     -1868.617       -1453.367
  -6919402.638 7  -5381760.830 6  23039802.461    23039802.461    23039803.664
       659.880         513.239
 05 11 14  0 12 30.0000000  0 13G22G01G20G14G06G16G25G05G30R18R05R17-0.000000042
                                R07
  -6307388.643 7  -4914877.924 3  24816091.123    24816091.123    24816100.767
     -3105.097       -2419.530
 -19773570.700 9 -15407980.815 7  20919883.047    20919883.047    20919888.055
      1509.914        1176.543
   -156525.933 7   -121967.901 2  25030839.321    25030839.321    25030845.875
      1090.746         849.951
 -24940415.441 9 -19434091.865 7  20433601.976    20433601.976    20433606.040
     -1168.797        -910.752
 -18352003.636 9 -14300255.978 7  21115166.231    21115166.231    21115171.182
       960.250         748.238
  -3071230.064 7  -2393162.813 4  23603450.944    23603450.944    23603457.183
      2883.924        2247.199
 -16335023.068 8 -12728592.876 6  21912744.250    21912744.250    21912748.658
      1763.698        1374.325
  19850721.481 7  15468076.057 4  24009023.503    24009023.503    24009027.452
     -3253.149       -2534.927
 -16910313.911 9 -13176875.873 7  21302331.912    21302331.912    21302337.292
     -2462.399       -1918.756
 -15709374.938 8 -12218389.988 6  21007493.764    21007493.764    21007499.608
      3490.395        2714.752
   7505186.554 5   5837337.609 5  24058547.523    24058547.523    24058546.320
     -3841.547       -2987.889
 -17451101.996 8 -13573074.961 6  20884071.534    20884071.534    20884076.174
     -1893.284       -1472.557
  -6938832.017 8  -5396872.588 6  23036172.494    23036172.494    23036173.869
       635.450         494.245
 05 11 14  0 13  0.0000000  0 13G22G01G20G14G06G16G25G05G30R18R05R17-0.000000038
                                R07
  -6214291.578 6  -4842335.175 3  24833807.665    24833807.665    24833815.592
     -3101.236       -2416.529
 -19818629.722 9 -15443091.755 7  20911308.696    20911308.696    20911313.933
      1494.127        1164.237
   -188995.043 7   -147268.556 2  25024661.079    25024661.079    25024668.405
      1074.023         836.894
 -24905073.538 9 -19406552.758 7  20440326.816    20440326.816    20440331.338
     -1187.185        -925.088
 -18380547.782 9 -14322498.187 7  21109733.852    21109733.852    21109739.376
       942.791         734.628
  -3157633.809 8  -2460490.385 4  23587010.806    23587010.806    23587016.386
      2876.477        2241.383
 -16387881.884 8 -12769781.566 6  21902685.495    21902685.495    21902689.902
      1760.392        1371.700
  19948320.392 7  15544127.025 4  24027594.471    24027594.471    24027601.110
     -3253.367       -2535.088
 -16836323.633 9 -13119221.159 7  21316412.753    21316412.753    21316417.446
     -2470.158       -1924.789
 -15813858.632 8 -12299655.025 6  20988009.551    20988009.551    20988015.280
      3475.222        2702.951
   7620380.305 5   5926932.507 5  24080090.525    24080090.525    24080087.546
     -3838.065       -2985.126
 -17393940.045 8 -13528615.708 5  20894750.267    20894750.267    20894752.845
     -1917.411       -1491.325
  -6957525.140 7  -5411411.707 6  23032679.465    23032679.465    23032680.611
       610.988         475.231
 05 11 14  0 13 30.0000000  0 13G22G01G20G14G06G16G25G05G30R18R05R17-0.000000037
                                R07
  -6121304.085 6  -4769877.818 2  24851505.135    24851505.135    24851513.062
     -3097.166       -2413.338
 -19863211.717 9 -15477830.983 7  20902825.096    20902825.096    20902830.190
      1478.671        1152.209
   -220958.709 7   -172175.374 2  25018578.039    25018578.039    25018582.132
      1057.584         824.107
 -24869177.483 9 -19378581.848 7  20447157.942    20447157.942    20447162.120
     -1205.194        -939.090
 -18408565.328 9 -14344330.036 7  21104401.519    21104401.519    21104407.758
       925.685         721.314
  -3243812.149 7  -2527642.335 4  23570609.574    23570609.574    23570615.556
      2869.346        2235.862
 -16440639.420 9 -12810891.353 6  21892646.110    21892646.110    21892651.004
      1757.441        1369.447
  20045925.993 7  15620183.185 4  24046167.397    24046167.397    24046175.238
     -3253.006       -2534.768
 -16762100.094 9 -13061384.700 7  21330536.569    21330536.569    21330541.205
     -2477.445       -1930.437
 -15917883.122 8 -12380562.914 7  20968610.814    20968610.814    20968617.231
      3460.381        2691.382
   7735466.229 5   6016443.548 5  24101607.373    24101607.373    24101608.118
     -3833.726       -2981.711
 -17336050.390 8 -13483590.447 6  20905564.086    20905564.086    20905567.294
     -1941.256       -1509.880
  -6975483.157 7  -5425379.074 6  23029321.918    23029321.918    23029325.127
       586.950         456.494
 05 11 14  0 14  0.0000000  0 13G22G01G20G14G06G16G25G05G30R18R05R17-0.000000040
                                R07
  -6028440.239 6  -4697516.787 2  24869176.272    24869176.272    24869182.968
     -3093.471       -2410.465
 -19907326.659 9 -15512206.279 7  20894430.119    20894430.119    20894435.270
      1462.604        1139.697
   -252427.950 6   -196696.925 2  25012589.339    25012589.339    25012599.956
      1040.617         810.874
 -24832740.361 9 -19350189.311 7  20454091.708    20454091.708    20454095.944
     -1223.656        -953.495
 -18436067.001 9 -14365759.932 7  21099168.198    21099168.198    21099174.036
       908.048         707.569
  -3329776.179 7  -2594627.284 4  23554251.351    23554251.351    23554258.792
      2861.810        2229.915
 -16493306.830 9 -12851930.887 6  21882623.946    21882623.946    21882628.726
      1754.018        1366.770
  20143524.920 7  15696234.163 4  24064739.817    24064739.817    24064747.687
     -3253.163       -2534.879
 -16687657.439 9 -13003377.482 7  21344701.607    21344701.607    21344707.645
     -2485.118       -1936.485
 -16021457.571 8 -12461120.787 6  20949296.327    20949296.327    20949302.056
      3444.880        2679.352
   7850427.931 5   6105857.953 5  24123112.889    24123112.889    24123107.962
     -3829.951       -2978.836
 -17277445.838 8 -13438009.159 5  20916512.704    20916512.704    20916516.657
     -1965.415       -1528.649
  -6992718.786 7  -5438784.574 6  23026101.268    23026101.268    23026103.388
       562.372         437.368
 05 11 14  0 14 30.0000000  0 13G22G01G20G14G06G16G25G05G30R18R05R17-0.000000041
                                R07
  -5935689.779 6  -4625244.163 2  24886826.388    24886826.388    24886832.397
     -3090.274       -2407.958
 -19950959.278 9 -15546205.741 7  20886127.148    20886127.148    20886132.300
      1445.905        1126.681
   -283389.149 7   -220822.647 2  25006699.764    25006699.764    25006709.494
      1023.091         797.221
 -24795749.318 9 -19321365.159 7  20461130.945    20461130.945    20461135.180
     -1242.749        -968.363
 -18463038.504 9 -14386776.694 7  21094035.515    21094035.515    21094041.668
       889.759         693.313
  -3415511.971 8  -2661434.390 4  23537937.947    23537937.947    23537945.102
      2853.594        2223.637
 -16545870.102 9 -12892889.301 6  21872621.404    21872621.404    21872625.467
      1749.916        1363.564
  20241128.973 7  15772289.148 4  24083312.722    24083312.722    24083322.194
     -3253.992       -2535.573
 -16612984.373 9 -12945190.725 7  21358912.288    21358912.288    21358916.695
     -2493.372       -1942.896
 -16124564.319 8 -12541314.884 6  20930068.528    20930068.528    20930074.658
      3428.550        2666.650
   7965275.506 5   6195183.609 5  24144588.748    24144588.748    24144586.743
     -3826.903       -2976.481
 -17218115.822 8 -13391863.635 5  20927596.112    20927596.112    20927599.778
     -1990.206       -1547.946
  -7009216.772 7  -5451616.383 6  23023018.891    23023018.891    23023020.151
       537.215         417.863
 05 11 14  0 15  0.0000000  0 13G22G01G20G14G06G16G25G05G30R18R05R17-0.000000042
                                R07
  -5843060.208 6  -4553065.724 2  24904453.146    24904453.146    24904461.131
     -3085.910       -2404.583
 -19994112.694 9 -15579831.798 7  20877915.277    20877915.277    20877920.371
      1430.136        1114.408
   -313846.888 7   -244555.963 2  25000900.285    25000900.285    25000902.775
      1006.512         784.296
 -24758210.194 9 -19292113.915 7  20468274.371    20468274.371    20468278.607
     -1260.714        -982.372
 -18489483.925 9 -14407383.533 7  21089003.815    21089003.815    21089009.253
       872.416         679.792
  -3501023.507 8  -2728066.757 5  23521665.190    23521665.190    23521671.601
      2846.329        2217.925
 -16598333.513 9 -12933769.902 6  21862638.154    21862638.154    21862642.361
      1746.831        1361.182
  20338731.756 7  15848343.117 4  24101887.136    24101887.136    24101894.033
     -3253.704       -2535.340
 -16538088.272 9 -12886830.172 7  21373165.027    21373165.027    21373170.235
     -2500.522       -1948.445
 -16227204.368 8 -12621145.989 6  20910927.525    20910927.525    20910933.656
      3413.234        2654.731
   8080000.137 5   6284413.565 5  24166040.938    24166040.938    24166036.298
     -3822.526       -2973.077
 -17158067.910 8 -13345159.747 5  20938813.903    20938813.903    20938817.169
     -2013.678       -1566.178
  -7024983.215 7  -5463879.177 6  23020072.121    23020072.121    23020073.840
       513.088         399.073
 05 11 14  0 15 30.0000000  0 12G22G01G20G14G06G16G25G05G30R18R17R07-0.000000044
  -5750554.227 7  -4480983.512 2  24922056.168    24922056.168    24922067.529
     -3081.557       -2401.210
 -20036784.929 9 -15613082.903 7  20869795.124    20869795.124    20869800.390
      1414.213        1101.998
   -343800.638 7   -267896.590 2  24995202.986    24995202.986    24995213.002
       989.858         771.289
 -24720123.582 9 -19262436.064 7  20475521.998    20475521.998    20475526.320
     -1278.842        -996.496
 -18515402.017 9 -14427579.460 7  21084072.316    21084072.316    21084077.095
       855.000         666.220
  -3586310.477 8  -2794524.112 5  23505436.239    23505436.239    23505441.962
      2839.018        2212.269
 -16650696.514 9 -12974572.243 6  21852673.634    21852673.634    21852677.441
      1743.612        1358.645
  20436331.640 7  15924394.847 4  24120460.613    24120460.613    24120470.744
     -3253.445       -2535.081
 -16462971.242 9 -12828297.486 7  21387458.174    21387458.174    21387463.784
     -2507.712       -1954.069
 -16329373.600 8 -12700610.906 6  20891875.863    20891875.863    20891881.306
      3397.590        2642.568
 -17097305.701 8 -13297900.294 5  20950164.173    20950164.173    20950168.756
     -2037.305       -1584.549
  -7040018.156 7  -5475573.025 6  23017262.675    23017262.675    23017265.368
       488.791         380.167
 05 11 14  0 16  0.0000000  0 12G22G01G14G06G16G25G05G30R18R05R17R07-0.000000045
  -5658173.128 7  -4408998.622 2  24939636.442    24939636.442    24939652.125
     -3077.397       -2397.954
 -20078972.649 9 -15645956.464 7  20861767.176    20861767.176    20861772.642
      1397.971        1089.305
 -24681488.881 9 -19232331.123 7  20482873.987    20482873.987    20482878.480
     -1297.148       -1010.769
 -18540790.550 9 -14447362.760 7  21079240.653    21079240.653    21079245.546
       837.248         652.406
  -3671370.459 7  -2860804.562 5  23489246.758    23489246.758    23489256.775
      2831.339        2206.245
 -16702956.689 9 -13015294.467 6  21842728.547    21842728.547    21842733.297
      1740.080        1355.919
  20533928.650 7  16000444.342 4  24139032.669    24139032.669    24139040.367
     -3253.334       -2535.035
 -16387634.068 9 -12769593.241 7  21401794.879    21401794.879    21401800.717
     -2515.075       -1959.808
 -16431067.427 8 -12779706.057 7  20872911.773    20872911.773    20872917.788
      3381.638        2630.153
   8309065.505 4   6462574.944 5  24208868.704    24208868.704    24208873.975
     -3813.567       -2966.127
 -17035832.411 8 -13250087.798 5  20961647.931    20961647.931    20961651.254
     -2061.008       -1603.014
  -7054319.963 7  -5486696.693 6  23014589.350    23014589.350    23014592.501
       464.316         361.130
 05 11 14  0 16 30.0000000  0 13G22G01G20G14G06G16G25G05G30R18R05R17-0.000000043
                                R07
  -5565915.158 6  -4337109.690 2  24957194.155    24957194.155    24957206.003
     -3073.070       -2394.604
 -20120669.737 9 -15678447.713 7  20853832.386    20853832.386    20853837.880
      1381.863        1076.771
   -402185.257 7         0.000 1  24984094.798           0.000           0.000
       956.168          -0.000
 -24642302.622 9 -19201796.402 7  20490330.764    20490330.764    20490335.229
     -1315.245       -1024.861
 -18565644.308 9 -14466729.358 7  21074511.236    21074511.236    21074516.473
       819.688         638.721
  -3756198.493 7  -2926904.254 4  23473106.406    23473106.406    23473112.072
      2823.794        2200.366
 -16755109.424 9 -13055932.967 6  21832804.363    21832804.363    21832809.142
      1736.768        1353.321
  20631525.573 7  16076493.747 3  24157604.421    24157604.421    24157613.293
     -3253.086       -2534.835
 -16312074.647 9 -12710715.846 7  21416174.634    21416174.634    21416178.612
     -2522.166       -1965.341
 -16532277.193 8 -12858424.735 7  20854037.619    20854037.619    20854043.234
      3365.691        2617.768
   8423404.522 5   6551504.959 5  24230260.587    24230260.587    24230262.477
     -3809.058       -2962.583
 -16973645.406 8 -13201720.160 5  20973265.635    20973265.635    20973269.531
     -2084.577       -1621.335
  -7067884.697 7  -5497247.061 6  23012055.591    23012055.591    23012056.222
       440.036         342.244
 05 11 14  0 17  0.0000000  0 13G22G01G20G14G06G16G25G05G30R18R05R17-0.000000045
                                R07
  -5473796.611 6  -4265329.442 2  24974722.590    24974722.590    24974727.684
     -3069.215       -2391.604
 -20161887.985 9 -15710565.852 7  20845988.632    20845988.632    20845994.242
      1364.932        1063.598
   -430624.751 7         0.000 1  24978682.318           0.000           0.000
       938.664          -0.000
 -24602579.106 9 -19170843.040 7  20497889.954    20497889.954    20497894.275
     -1334.061       -1039.524
 -18589975.949 9 -14485689.095 7  21069880.748    21069880.748    21069886.243
       801.336         624.402
  -3840807.585 7  -2992833.361 5  23457005.365    23457005.365    23457012.290
      2815.620        2193.984
 -16807167.747 9 -13096497.895 6  21822898.161    21822898.161    21822902.540
      1732.653        1350.125
  20729107.161 7  16152531.272 4  24176174.530    24176174.530    24176182.972
     -3253.481       -2535.215
 -16236308.838 9 -12651677.614 7  21430590.966    21430590.966    21430597.204
     -2529.938       -1971.371
 -16633013.605 8 -12936775.261 7  20835252.039    20835252.039    20835257.711
      3348.932        2604.740
   8537595.944 5   6640320.193 5  24251611.445    24251611.445    24251610.586
     -3804.840       -2959.320
 -16910761.829 8 -13152810.753 5  20985012.274    20985012.274    20985016.055
     -2108.840       -1640.205
  -7080726.228 8  -5507234.947 6  23009656.390    23009656.390    23009657.536
       414.973         322.740
 05 11 14  0 17 30.0000000  0 13G22G01G20G14G06G16G25G05G30R18R05R17-0.000000045
                                R07
  -5381803.135 6  -4193646.620 2  24992224.671    24992224.671    24992234.545
     -3063.980       -2387.510
 -20202608.507 9 -15742296.155 7  20838239.910    20838239.910    20838245.290
      1349.397        1051.457
   -458549.406 6         0.000 1  24973367.712           0.000           0.000
       922.513          -0.000
 -24562302.508 9 -19139458.697 7  20505554.124    20505554.124    20505558.674
     -1351.397       -1053.031
 -18613767.807 9 -14504228.231 7  21065353.663    21065353.663    21065359.044
       784.419         611.233
  -3925180.130 8  -3058578.092 5  23440950.345    23440950.345    23440957.413
      2808.821        2188.661
 -16859113.789 8 -13136975.340 6  21813013.031    21813013.031    21813017.581
      1730.048        1348.105
  20826689.081 7  16228568.958 4  24194743.727    24194743.727    24194749.622
     -3252.472       -2534.396
 -16160321.846 9 -12592467.017 7  21445051.003    21445051.003    21445056.498
     -2536.191       -1976.250
 -16733254.601 8 -13014740.452 7  20816559.288    20816559.288    20816565.247
      3333.438        2592.684
   8651654.173 5   6729031.820 5  24272943.845    24272943.845    24272946.194
     -3799.474       -2955.118
 -16847165.581 8 -13103347.051 5  20996892.117    20996892.117    20996895.555
     -2131.332       -1657.718
  -7092827.138 8  -5516646.803 6  23007394.794    23007394.794    23007395.825
       391.353         304.409
 05 11 14  0 18  0.0000000  0 13G22G01G20G14G06G16G25G05G30R18R05R17-0.000000047
                                R07
  -5289947.055 6  -4122070.906 2  25009709.372    25009709.372    25009719.360
     -3059.772       -2384.216
 -20242839.335 9 -15773644.869 7  20830584.304    20830584.304    20830589.598
      1332.731        1038.503
   -485968.573 6         0.000 1  24968149.567           0.000           0.000
       905.465          -0.000
 -24521483.354 9 -19107651.600 7  20513322.112    20513322.112    20513326.577
     -1369.769       -1067.360
 -18637028.524 9 -14522353.485 7  21060927.048    21060927.048    21060932.572
       766.403         597.213
  -4009325.431 8  -3124145.765 5  23424937.818    23424937.818    23424943.427
      2800.931        2182.532
 -16910956.888 9 -13177372.577 6  21803147.898    21803147.898    21803151.705
      1726.295        1345.172
  20924259.948 7  16304598.026 4  24213308.841    24213308.841    24213319.086
     -3252.358       -2534.233
 -16084125.619 9 -12533093.400 7  21459551.586    21459551.586    21459556.766
     -2543.416       -1981.892
 -16833007.481 8 -13092325.991 7  20797956.903    20797956.903    20797962.518
      3316.798        2579.718
   8765565.263 5         0.000 1  24294243.694    24294243.694           0.000
     -3794.554          -0.000
 -16782870.285 8 -13053339.641 5  21008904.350    21008904.350    21008906.699
     -2154.855       -1675.991
  -7104197.984 7  -5525490.818 6  23005269.289    23005269.289    23005270.434
       366.804         285.276
 05 11 14  0 18 30.0000000  0 13G22G01G20G14G06G16G25G05G30R18R05R17-0.000000049
                                R07
  -5198228.473 6  -4050602.284 2  25027161.703    25027161.703    25027176.241
     -3055.031       -2380.533
 -20282576.018 9 -15804608.534 7  20823022.740    20823022.740    20823028.092
      1316.233        1025.622
   -512879.533 6         0.000 1  24963027.866           0.000           0.000
       888.508          -0.000
 -24480119.877 9 -19075420.346 7  20521192.926    20521192.926    20521197.505
     -1387.875       -1081.455
 -18659754.676 9 -14540062.170 7  21056602.278    21056602.278    21056608.288
       748.559         583.288
  -4093240.086 7  -3189533.711 5  23408969.035    23408969.035    23408975.588
      2793.311        2176.589
 -16962693.519 9 -13217686.841 6  21793302.541    21793302.541    21793307.006
      1722.721        1342.368
  21021821.125 7  16380619.574 3  24231875.235    24231875.235    24231880.787
     -3251.888       -2533.925
 -16007719.680 9 -12473556.349 7  21474090.474    21474090.474    21474095.339
     -2550.366       -1987.305
 -16932264.619 8 -13169525.963 7  20779448.219    20779448.219    20779453.662
      3300.236        2566.840
   8879327.591 5   6906110.343 5  24315518.319    24315518.319    24315517.860
     -3789.501       -2947.368
 -16717877.489 8 -13002789.737 5  21021044.590    21021044.590    21021047.913
     -2178.219       -1694.137
  -7114836.277 7  -5533765.094 6  23003281.094    23003281.094    23003283.615
       342.320         266.256
 05 11 14  0 19  0.0000000  0 13G22G01G20G14G06G16G25G05G30R18R05R17-0.000000052
                                R07
  -5106652.527 7  -3979244.772 2  25044590.571    25044590.571    25044600.415
     -3049.360       -2376.140
 -20321819.261 9 -15835187.713 7  20815555.075    20815555.075    20815560.456
      1300.596        1013.454
   -539284.369 7         0.000 1  24958003.989           0.000           0.000
       872.521          -0.000
 -24438215.509 9 -19042767.628 7  20529167.397    20529167.397    20529172.004
     -1405.097       -1094.886
 -18681948.060 9 -14557355.712 7  21052378.473    21052378.473    21052385.027
       731.618         570.077
  -4176925.843 8  -3254743.302 5  23393043.442    23393043.442    23393049.824
      2786.375        2171.214
 -17014325.347 8 -13257919.433 6  21783477.245    21783477.245    21783481.967
      1719.997        1340.259
  21119368.547 7  16456630.405 4  24250438.477    24250438.477    24250446.061
     -3250.606       -2532.956
 -15931108.827 9 -12413859.619 7  21488669.240    21488669.240    21488674.277
     -2556.369       -1991.991
 -17031024.948 8 -13246339.518 7  20761030.476    20761030.476    20761036.549
      3284.407        2554.524
   8992934.756 5   6994471.038 5  24336765.851    24336765.851    24336763.731
     -3783.645       -2942.815
 -16652191.942 8 -12951701.022 5  21033315.293    21033315.293    21033319.705
     -2200.347       -1711.388
  -7124744.870 7  -5541471.771 6  23001429.775    23001429.775    23001431.035
       318.797         247.933
 05 11 14  0 19 30.0000000  0 12G22G01G20G14G06G16G25G05G30R18R17R07-0.000000055
  -5015217.003 6  -3907996.725 2  25061989.035    25061989.035    25061999.967
     -3045.419       -2373.061
 -20360562.487 9 -15865377.258 7  20808182.443    20808182.443    20808187.708
      1283.216         999.900
   -565177.978 7   -440381.550 2  24953074.410    24953074.410    24953082.824
       854.844         666.108
 -24395766.597 9 -19009690.585 7  20537245.082    20537245.082    20537249.575
     -1423.908       -1109.544
 -18703602.896 9 -14574229.584 7  21048258.028    21048258.028    21048264.296
       712.956         555.543
  -4260377.399 8  -3319770.396 5  23377165.382    23377165.382    23377170.361
      2777.918        2164.642
 -17065846.991 9 -13298066.158 6  21773672.800    21773672.800    21773677.322
      1715.684        1336.898
  21216905.753 7  16532633.262 3  24268997.049    24268997.049    24269008.611
     -3250.959       -2533.171
 -15854290.134 9 -12354000.957 7  21503288.124    21503288.124    21503292.474
     -2563.946       -1997.868
 -17129280.707 8 -13322760.630 7  20742707.420    20742707.420    20742713.837
      3266.827        2540.844
 -16585812.307 8 -12900072.442 5  21045716.089    21045716.089    21045719.470
     -2224.101       -1729.847
  -7133919.565 8  -5548607.670 6  22999715.595    22999715.595    22999717.028
       293.775         228.510
 05 11 14  0 20  0.0000000  0 13G22G01G20G14G06G16G25G05G30R18R05R17-0.000000052
                                R07
  -4923918.325 6  -3836855.279 2  25079363.063    25079363.063    25079368.386
     -3040.832       -2369.481
 -20398798.003 9 -15895171.175 7  20800906.295    20800906.295    20800911.990
      1266.155         986.613
   -590553.982 7   -460155.093 3  24948245.487    24948245.487    24948254.816
       837.292         652.414
 -24352767.951 9 -18976185.186 7  20545427.793    20545427.793    20545432.057
     -1442.325       -1123.869
 -18724712.595 9 -14590678.687 7  21044240.849    21044240.849    21044246.859
       694.680         541.313
  -4343588.172 7  -3384609.879 5  23361329.588    23361329.588    23361333.394
      2769.835        2158.314
 -17117251.822 8 -13338121.843 6  21763891.019    21763891.019    21763895.369
      1711.665        1333.759
  21314437.172 7  16608631.586 4  24287560.451    24287560.451    24287569.523
     -3250.903       -2533.162
 -15777259.937 8 -12293977.475 7  21517945.946    21517945.946    21517951.984
     -2571.043       -2003.428
 -17227021.825 8 -13398781.471 7  20724480.680    20724480.680    20724486.582
      3249.565        2527.433
   9219690.808 5   7170836.113 5  24379171.326    24379171.326    24379169.894
     -3774.310       -2935.582
 -16518736.177 8 -12847902.177 5  21058245.479    21058245.479    21058250.120
     -2247.289       -1747.913
  -7142353.984 8  -5555167.811 6  22998140.152    22998140.152    22998141.756
       268.899         209.137
 05 11 14  0 20 30.0000000  0 12G22G01G20G14G06G16G25G05G30R18R17R07-0.000000052
  -4832772.019 6  -3765832.569 2  25096707.199    25096707.199    25096720.793
     -3035.927       -2365.646
 -20436536.938 9 -15924578.158 7  20793724.863    20793724.863    20793730.530
      1249.386         973.566
   -615425.043 7   -479535.167 3  24943513.740    24943513.740    24943525.073
       820.281         639.198
 -24309233.452 9 -18942262.237 7  20553711.853    20553711.853    20553716.460
     -1460.349       -1137.936
 -18745289.342 9 -14606712.491 7  21040325.985    21040325.985    21040330.965
       676.711         527.312
  -4426570.739 8  -3449271.563 5  23345538.359    23345538.359    23345543.825
      2762.007        2152.223
 -17168551.733 8 -13378095.802 6  21754129.301    21754129.301    21754133.451
      1707.943        1330.870
  21411948.378 7  16684614.203 4  24306113.397    24306113.397    24306122.955
     -3250.327       -2532.697
 -15700033.518 9 -12233801.062 7  21532641.742    21532641.742    21532646.550
     -2577.749       -2008.637
 -17324257.230 8 -13474408.952 7  20706348.367    20706348.367    20706353.638
      3232.427        2514.106
 -16450980.635 8 -12795203.473 5  21070904.169    21070904.169    21070906.632
     -2270.165       -1765.697
  -7150062.516 8  -5561163.348 6  22996699.430    22996699.430    22996699.602
       244.641         190.272
 05 11 14  0 21  0.0000000  0 13G22G01G20G14G06G16G25G05G30R18R05R17-0.000000045
                                R07
  -4741763.094 6  -3694916.977 2  25114025.664    25114025.664    25114037.311
     -3031.079       -2361.848
 -20473760.049 9 -15953583.196 7  20786641.840    20786641.840    20786647.221
      1232.451         960.341
   -639773.664 7   -498508.155 3  24938884.233    24938884.233    24938889.785
       803.195         625.877
 -24265146.684 9 -18907908.948 7  20562101.527    20562101.527    20562105.762
     -1478.470       -1152.068
 -18765314.877 9 -14622316.778 7  21036515.893    21036515.893    21036520.501
       658.607         513.205
  -4509306.588 8  -3513741.020 5  23329794.483    23329794.483    23329799.778
      2754.018        2146.027
 -17219728.833 9 -13417974.061 6  21744390.193    21744390.193    21744394.972
      1704.120        1327.874
  21509455.627 7  16760593.687 4  24324671.164    24324671.164    24324676.086
     -3249.876       -2532.311
 -15622595.265 9 -12173459.614 7  21547378.397    21547378.397    21547383.147
     -2584.478       -2013.901
 -17420965.690 8 -13549626.611 7  20688313.495    20688313.495    20688319.281
      3215.108        2500.657
   9445804.706 5   7346701.666 5  24421455.387    24421455.387    24421456.074
     -3763.154       -2926.902
 -16382530.684 8 -12741964.672 6  21083692.244    21083692.244    21083697.286
     -2292.889       -1783.377
  -7157027.202 8  -5566580.366 6  22995399.078    22995399.078    22995398.275
       220.101         171.202
 05 11 14  0 21 30.0000000  0 13G22G01G20G14G06G16G25G05G30R18R05R17-0.000000038
                                R07
  -4650910.320 6  -3624123.032 2  25131316.501    25131316.501    25131329.723
     -3026.086       -2358.015
 -20510481.668 9 -15982197.459 7  20779653.890    20779653.890    20779659.213
      1215.459         947.134
   -663615.582 7   -517086.271 3  24934343.122    24934343.122    24934350.105
       786.053         612.530
 -24220524.724 9 -18873138.633 7  20570592.682    20570592.682    20570597.261
     -1496.521       -1166.126
 -18784804.406 9 -14637503.399 7  21032806.876    21032806.876    21032811.684
       640.509         499.106
  -4591811.331 8  -3578030.402 5  23314094.126    23314094.126    23314099.849
      2746.092        2139.808
 -17270798.285 9 -13457768.419 6  21734672.086    21734672.086    21734676.550
      1700.270        1324.919
  21606941.533 7  16836556.613 4  24343219.629    24343219.629    24343232.936
     -3249.282       -2531.825
 -15544963.386 9 -12112967.302 7  21562150.346    21562150.346    21562155.640
     -2591.137       -2019.035
 -17517160.485 8 -13624444.725 7  20670374.787    20670374.787    20670380.058
      3197.622        2487.042
   9558610.172 5   7434438.836 5  24442551.534    24442551.534    24442555.028
     -3757.414       -2922.419
 -16313407.933 8 -12688202.589 5  21096602.537    21096602.537    21096606.949
     -2315.711       -1801.104
  -7163265.116 8  -5571432.118 6  22994232.135    22994232.135    22994234.541
       195.655         152.147
 05 11 14  0 22  0.0000000  0 13G22G01G20G14G06G16G25G05G30R18R05R17-0.000000040
                                R07
  -4560220.999 6  -3553456.437 2  25148572.089    25148572.089    25148583.107
     -3020.012       -2353.229
 -20546704.899 9 -16010423.367 7  20772760.774    20772760.774    20772766.268
      1199.293         934.517
   -686955.521 7   -535273.273 3  24929903.296    24929903.296    24929913.027
       769.839         599.930
 -24175373.305 9 -18837955.752 7  20579184.372    20579184.372    20579189.523
     -1513.666       -1179.478
 -18803762.217 9 -14652275.691 7  21029198.913    21029198.913    21029204.150
       623.205         485.609
  -4674089.234 8  -3642143.057 4  23298437.765    23298437.765    23298444.404
      2738.983        2134.221
 -17321764.158 9 -13497482.061 6  21724973.566    21724973.566    21724977.830
      1697.280        1322.563
  21704399.787 7  16912497.939 3  24361766.515    24361766.515    24361773.297
     -3247.942       -2530.897
 -15467144.870 9 -12052329.533 7  21576959.233    21576959.233    21576964.184
     -2596.885       -2023.567
 -17612841.537 8 -13698863.276 7  20652532.107    20652532.107    20652538.237
      3180.934        2474.064
   9671232.764 5   7522033.771 5  24463609.503    24463609.503    24463610.992
     -3750.944       -2917.352
 -16243617.142 8 -12633920.894 5  21109640.203    21109640.203    21109644.786
     -2337.172       -1817.818
  -7168782.077 8  -5575723.120 6  22993200.754    22993200.754    22993202.530
       172.069         133.826
 05 11 14  0 22 30.0000000  0 13G22G01G20G14G06G16G25G05G30R18R05R17-0.000000039
                                R07
  -4469686.490 6  -3482910.426 2  25165800.213    25165800.213    25165807.339
     -3014.743       -2349.139
 -20582416.820 9 -16038250.843 7  20765965.034    20765965.034    20765970.385
      1182.221         921.220
   -709781.844 7   -553060.015 2  24925559.011    24925559.011    24925566.223
       752.709         586.514
 -24129682.646 9 -18802352.681 7  20587879.329    20587879.329    20587884.394
     -1531.648       -1193.493
 -18822176.203 9 -14666624.237 7  21025694.727    21025694.727    21025700.165
       605.071         471.484
  -4756128.385 8  -3706069.715 5  23282825.495    23282825.495    23282831.219
      2731.054        2128.130
 -17372614.098 9 -13537105.396 6  21715297.038    21715297.038    21715301.303
      1693.412        1319.539
  21801840.404 7  16988425.506 4  24380310.026    24380310.026    24380318.182
     -3247.414       -2530.480
 -15389130.382 9 -11991539.089 7  21591805.693    21591805.693    21591810.329
     -2603.365       -2028.585
 -17707995.412 8 -13772871.789 7  20634787.235    20634787.235    20634793.652
      3163.365        2460.410
   9783680.654 5   7609492.785 5  24484641.794    24484641.794    24484643.913
     -3744.949       -2912.697
 -16173153.054 8 -12579115.529 5  21122802.941    21122802.941    21122807.066
     -2359.674       -1835.282
  -7173566.867 8  -5579444.648 6  22992306.416    22992306.416    22992307.619
       147.654         114.821
 05 11 14  0 23  0.0000000  0 12G22G01G20G14G06G16G25G05G30R18R17R07-0.000000041
  -4379314.152 6  -3412490.903 2  25183000.144    25183000.144    25183010.504
     -3009.464       -2345.000
 -20617620.963 9 -16065682.667 7  20759265.870    20759265.870    20759270.992
      1165.243         907.986
   -732099.569 7   -570450.451 3  24921312.412    24921312.412    24921319.824
       735.698         573.268
 -24083458.691 9 -18766334.059 7  20596675.696    20596675.696    20596680.360
     -1549.431       -1207.346
 -18840051.076 9 -14680552.696 7  21022292.938    21022292.938    21022298.404
       587.078         457.465
  -4837933.345 7  -3769813.840 4  23267258.561    23267258.561    23267263.426
      2723.189        2121.924
 -17423352.953 9 -13576642.160 6  21705641.728    21705641.728    21705646.307
      1689.652        1316.626
  21899256.764 7  17064334.201 4  24398845.259    24398845.259    24398854.045
     -3246.501       -2529.713
 -15310927.567 9 -11930601.887 7  21606686.180    21606686.180    21606691.503
     -2609.629       -2033.466
 -17802622.801 8 -13846470.816 7  20617141.074    20617141.074    20617147.032
      3145.662        2446.613
 -16102022.089 8 -12523791.498 5  21136090.938    21136090.938    21136096.954
     -2381.935       -1852.620
  -7177625.431 8  -5582601.339 6  22991549.107    22991549.107    22991548.592
       123.459          96.043
 05 11 14  0 23 30.0000000  0 12G22G01G20G14G06G16G25G05G30R18R17R07-0.000000042
  -4289101.082 6  -3342195.395 2  25200167.249    25200167.249    25200175.548
     -3004.511       -2341.118
 -20652309.890 9 -16092713.016 7  20752664.906    20752664.906    20752670.115
      1147.668         894.291
   -753903.015 7   -587440.184 3  24917162.922    24917162.922    24917169.161
       718.077         559.551
 -24036696.948 9 -18729896.382 7  20605573.812    20605573.812    20605578.648
     -1567.733       -1221.618
 -18857380.537 9 -14694056.176 7  21018994.987    21018994.987    21019000.739
       568.514         443.004
  -4919498.057 8  -3833370.784 4  23251738.193    23251738.193    23251743.201
      2714.792        2115.417
 -17473974.267 8 -13616087.333 6  21696008.471    21696008.471    21696013.451
      1685.384        1313.283
  21996653.181 7  17140227.327 3  24417379.708    24417379.708    24417391.556
     -3246.264       -2529.590
 -15232532.583 9 -11869514.938 7  21621604.386    21621604.386    21621608.994
     -2616.370       -2038.735
 -17896713.757 8 -13919652.625 7  20599594.869    20599594.869    20599600.254
      3127.343        2432.394
 -16030221.331 8 -12467946.492 5  21149505.221    21149505.221    21149508.601
     -2404.421       -1870.111
  -7180952.195 8  -5585188.879 6  22990927.474    22990927.474    22990928.505
        98.683          76.769
 05 11 14  0 24  0.0000000  0 12G22G01G20G14G06G16G25G05G30R18R17R07-0.000000040
  -4199047.533 6  -3272024.218 2  25217303.671    25217303.671    25217312.829
     -2999.239       -2337.066
 -20686479.439 9 -16119338.667 7  20746162.550    20746162.550    20746167.902
      1130.204         880.688
   -775189.732 7   -604027.248 3  24913113.113    24913113.113    24913117.234
       700.794         546.060
 -23989396.175 9 -18693038.677 7  20614575.073    20614575.073    20614579.538
     -1585.766       -1235.656
 -18874161.450 9 -14707132.233 7  21015801.909    21015801.909    21015807.461
       550.117         428.698
  -5000819.530 7  -3896738.215 4  23236263.525    23236263.525    23236268.876
      2706.649        2109.089
 -17524474.955 9 -13655438.529 6  21686399.138    21686399.138    21686403.573
      1681.237        1310.052
  22094030.809 7  17216105.836 3  24435911.423    24435911.423    24435919.780
     -3245.650       -2529.032
 -15153945.236 9 -11808278.137 7  21636559.703    21636559.703    21636563.710
     -2622.841       -2043.768
 -17990263.524 8 -13992413.507 7  20582149.496    20582149.496    20582154.939
      3109.098        2418.197
 -15957753.278 8 -12411582.499 5  21163042.210    21163042.210    21163045.991
     -2426.730       -1887.448
  -7183546.071 8  -5587206.393 6  22990441.920    22990441.920    22990444.899
        74.159          57.676
 05 11 14  0 24 30.0000000  0 12G22G01G20G14G06G16G25G05G30R18R17R07-0.000000043
  -4109167.609 6  -3201988.360 2  25234410.001    25234410.001    25234420.361
     -2993.107       -2332.298
 -20720139.882 9 -16145567.596 7  20739757.455    20739757.455    20739762.835
      1113.665         867.789
   -795971.397 7   -620220.772 3  24909158.411    24909158.411    24909163.277
       684.538         533.424
 -23941569.311 9 -18655771.044 7  20623676.527    20623676.527    20623680.877
     -1602.837       -1248.953
 -18890405.405 9 -14719789.871 7  21012710.701    21012710.701    21012716.310
       532.658         415.071
  -5081909.231 7  -3959925.034 4  23220831.089    23220831.089    23220837.213
      2699.256        2103.325
 -17574865.960 9 -13694704.244 6  21676810.023    21676810.023    21676814.344
      1678.007        1307.547
  22191376.404 7  17291959.370 4  24454436.544    24454436.544    24454446.074
     -3244.186       -2527.918
 -15075179.488 9 -11746902.283 7  21651547.603    21651547.603    21651552.926
     -2628.321       -2048.032
 -18083279.124 8 -14064758.913 7  20564804.111    20564804.111    20564809.267
      3091.711        2404.673
 -15884633.194 8 -12354711.377 5  21176702.527    21176702.527    21176706.538
     -2447.965       -1903.977
  -7185419.579 8  -5588663.616 6  22990093.129    22990093.129    22990093.415
        50.634          39.395
 05 11 14  0 25  0.0000000  0 12G22G01G20G14G06G16G25G05G30R18R17R07-0.000000041
  -4019450.360 7  -3132079.211 2  25251482.928    25251482.928    25251492.658
     -2987.959       -2328.266
 -20753276.246 9 -16171388.164 7  20733451.653    20733451.653    20733457.205
      1095.573         853.703
   -816234.607 7   -636010.326 3  24905301.684    24905301.684    24905305.233
       666.562         519.406
 -23893204.140 9 -18618083.948 7  20632880.325    20632880.325    20632884.589
     -1621.338       -1263.366
 -18906098.199 9 -14732018.047 7  21009724.756    21009724.756    21009730.051
       513.708         400.283
  -5162752.851 7  -4022920.106 4  23205448.222    23205448.222    23205452.200
      2690.494        2096.537
 -17625133.012 9 -13733873.389 6  21667244.336    21667244.336    21667249.001
      1673.282        1303.889
  22288701.993 7  17367797.331 3  24472953.750    24472953.750    24472964.453
     -3244.088       -2527.805
 -14996224.014 9 -11685378.608 7  21666573.354    21666573.354    21666577.789
     -2635.208       -2053.412
 -18175744.490 8 -14136676.379 7  20547561.031    20547561.031    20547566.244
      3072.762        2389.919
 -15810853.506 8 -12297327.205 5  21190485.021    21190485.021    21190487.943
     -2470.453       -1921.466
  -7186560.067 8  -5589550.730 6  22989879.921    22989879.921    22989880.150
        25.680          19.985
 05 11 14  0 25 30.0000000  0 12G22G01G20G14G06G16G25G05G30R18R17R07-0.000000041
  -3929908.720 6  -3062306.896 2  25268518.918    25268518.918    25268530.080
     -2981.852       -2323.537
 -20785897.167 9 -16196807.083 7  20727244.271    20727244.271    20727249.765
      1078.637         840.490
   -835989.693 7   -651403.911 3  24901541.361    24901541.361    24901549.632
       649.927         506.430
 -23844312.556 9 -18579986.658 7  20642183.836    20642183.836    20642188.415
     -1638.587       -1276.833
 -18921249.507 9 -14743824.287 7  21006841.289    21006841.289    21006847.127
       495.912         386.420
  -5243360.129 8  -4085731.017 4  23190107.665    23190107.665    23190114.219
      2682.858        2090.538
 -17675285.663 9 -13772953.389 6  21657700.589    21657700.589    21657705.483
      1669.764        1301.113
  22385996.193 7  17443610.818 3  24491470.005    24491470.005    24491479.049
     -3242.656       -2526.791
 -14917091.160 9 -11623716.721 6  21681631.419    21681631.419    21681636.141
     -2640.784       -2057.758
 -18267665.904 8 -14208170.772 7  20530419.275    20530419.275    20530425.004
      3054.826        2375.978
 -15736426.912 8 -12239439.918 5  21204389.273    21204389.273    21204391.565
     -2491.776       -1938.035
  -7186979.030 8  -5589876.653 6  22989801.272    22989801.272    22989801.903
         1.842           1.433
 05 11 14  0 26  0.0000000  0 12G22G01G20G14G06G16G25G05G30R18R17R07-0.000000043
  -3840541.597 6         0.000 1  25285527.775    25285527.775           0.000
     -2975.702          -0.000
 -20817997.858 9 -16221820.637 7  20721135.603    20721135.603    20721140.897
      1061.503         827.168
   -855233.232 7   -666398.914 3  24897880.327    24897880.327    24897885.765
       633.108         493.324
 -23794892.183 9 -18541477.335 7  20651588.342    20651588.342    20651592.864
     -1655.990       -1290.391
 -18935855.539 9 -14755205.640 7  21004062.069    21004062.069    21004067.678
       477.967         372.434
  -5323727.264 8  -4148354.798 5  23174815.564    23174815.564    23174821.116
      2674.998        2084.418
 -17725319.791 8 -13811941.024 6  21648179.381    21648179.381    21648184.246
      1666.008        1298.185
  22483260.791 7  17519401.213 3  24509979.123    24509979.123    24509988.853
     -3241.499       -2525.755
 -14837779.713 8 -11561915.668 6  21696723.023    21696723.023    21696728.317
     -2646.464       -2062.173
 -18359037.028 8 -14279237.168 7  20513380.483    20513380.483    20513385.983
      3036.682        2361.854
 -15661350.976 8 -12181047.562 5  21218414.385    21218414.385    21218417.478
     -2513.139       -1954.681
  -7186673.318 8  -5589638.942 6  22989859.556    22989859.556    22989859.728
       -22.052         -17.150
 05 11 14  0 26 30.0000000  0 12G22G01G20G14G06G16G25G05G30R18R17R07-0.000000040
  -3751343.447 6  -2923165.908 1  25302497.477    25302497.477    25302503.687
     -2969.974       -2314.259
 -20849568.765 9 -16246421.368 7  20715127.881    20715127.881    20715133.176
      1043.971         813.487
   -873956.992 6   -680988.902 3  24894317.883    24894317.883    24894325.066
       615.913         479.941
 -23744936.115 9 -18502550.568 7  20661094.973    20661094.973    20661099.352
     -1673.664       -1304.158
 -18949907.747 9 -14766155.434 7  21001388.230    21001388.230    21001393.696
       459.600         358.147
  -5403845.861 7  -4210784.946 5  23159569.920    23159569.920    23159574.614
      2666.828        2078.079
 -17775226.318 9 -13850829.256 6  21638682.356    21638682.356    21638687.278
      1661.866        1294.968
  22580502.708 7  17595173.941 3  24528486.159    24528486.159    24528493.571
     -3240.561       -2525.157
 -14758283.569 9 -11499970.706 6  21711852.268    21711852.268    21711855.931
     -2652.462       -2066.874
 -18449845.612 8 -14349866.033 7  20496446.176    20496446.176    20496450.932
      3017.974        2347.322
 -15585622.776 8 -12122147.903 5  21232559.563    21232559.563    21232563.058
     -2534.743       -1971.480
  -7185636.044 8  -5588832.226 6  22990052.508    22990052.508    22990053.195
       -46.281         -35.959
 05 11 14  0 27  0.0000000  0 12G22G01G20G14G06G16G25G05G30R18R17R07-0.000000040
  -3662325.209 6  -2853801.460 1  25319441.154    25319441.154    25319453.317
     -2964.280       -2309.824
 -20880616.641 9 -16270614.538 7  20709219.749    20709219.749    20709224.843
      1026.311         799.715
   -892169.641 7   -695180.594 3  24890854.034    24890854.034    24890858.356
       598.684         466.526
 -23694453.978 9 -18463213.896 7  20670701.253    20670701.253    20670705.517
     -1691.395       -1317.968
 -18963414.115 9 -14776679.896 7  20998817.988    20998817.988    20998823.311
       441.206         343.797
  -5483723.952 8  -4273027.652 5  23144369.452    23144369.452    23144374.804
      2658.673        2071.666
 -17825012.716 9 -13889623.865 6  21629208.463    21629208.463    21629213.471
      1657.638        1291.653
  22677712.170 7  17670921.447 4  24546983.854    24546983.854    24546992.124
     -3239.693       -2524.387
 -14678613.241 9 -11437890.024 6  21727012.136    21727012.136    21727017.974
     -2658.458       -2071.533
 -18540097.726 8 -14420062.104 7  20479615.538    20479615.538    20479620.580
      2999.213        2332.744
 -15509253.707 8 -12062749.788 5  21246827.740    21246827.740    21246829.746
     -2556.235       -1988.155
  -7183876.518 8  -5587463.756 6  22990381.011    22990381.011    22990382.673
       -70.515         -54.836
 05 11 14  0 27 30.0000000  0 12G22G01G20G14G06G16G25G05G30R18R17R07-0.000000058
  -3573488.824 6         0.000 1  25336346.163    25336346.163           0.000
     -2958.565          -0.000
 -20911139.734 9 -16294398.788 7  20703411.372    20703411.372    20703416.523
      1008.348         785.701
   -909871.195 7   -708974.041 3  24887486.090    24887486.090    24887492.014
       581.157         452.859
 -23643446.967 9 -18423468.217 7  20680407.465    20680407.465    20680412.044
     -1709.324       -1331.957
 -18976373.867 9 -14786778.407 7  20996351.776    20996351.776    20996357.557
       422.535         329.264
  -5563360.437 8  -4335082.085 5  23129214.704    23129214.704    23129221.687
      2650.327        2065.193
 -17874677.997 9 -13928324.068 7  21619757.729    21619757.729    21619761.936
      1653.134        1288.122
  22774888.357 7  17746642.908 3  24565476.291    24565476.291    24565485.535
     -3238.983       -2523.878
 -14598770.560 9 -11375675.012 6  21742205.277    21742205.277    21742210.944
     -2664.602       -2076.343
 -18629788.896 8 -14489821.877 7  20462890.168    20462890.168    20462895.095
      2979.960        2317.742
 -15432246.779 8 -12002855.527 5  21261212.745    21261212.745    21261215.839
     -2577.897       -2005.052
  -7181395.194 8  -5585533.883 6  22990844.137    22990844.137    22990845.970
       -95.064         -73.943
 05 11 14  0 28  0.0000000  0 12G22G01G20G14G06G16G25G05G30R18R17R07-0.000000056
  -3484832.567 6         0.000 1  25353212.134    25353212.134           0.000
     -2952.375          -0.000
 -20941132.485 9 -16317769.792 7  20697703.901    20697703.901    20697709.367
       990.605         771.889
   -927057.185 6   -722365.744 3  24884212.629    24884212.629    24884220.127
       563.920         439.393
 -23591912.123 9 -18383311.249 7  20690214.327    20690214.327    20690218.992
     -1726.887       -1345.642
 -18988782.608 9 -14796447.570 7  20993990.540    20993990.540    20993996.149
       404.136         314.915
  -5642750.694 8  -4396944.672 5  23114108.151    23114108.151    23114113.560
      2641.975        2058.683
 -17924217.322 9 -13966926.164 7  21610330.829    21610330.829    21610335.208
      1648.883        1284.840
  22872034.007 7  17822340.646 3  24583961.736    24583961.736    24583968.090
     -3237.886       -2523.052
 -14518753.284 9 -11313323.988 6  21757433.593    21757433.593    21757437.772
     -2670.381       -2080.825
 -18718911.218 8 -14559139.220 7  20446270.347    20446270.347    20446276.306
      2960.935        2302.939
 -15354602.828 8 -11942465.842 5  21275716.899    21275716.899    21275720.222
     -2598.995       -2021.442
  -7178189.335 8  -5583040.497 6  22991443.999    22991443.999    22991444.801
      -119.279         -92.779
 05 11 14  0 28 30.0000000  0 12G22G01G20G14G06G16G25G05G30R18R17R07-0.000000058
  -3396364.680 6         0.000 1  25370052.422    25370052.422           0.000
     -2945.927          -0.000
 -20970598.918 9 -16340730.676 7  20692096.882    20692096.882    20692102.033
       973.186         758.338
   -943733.456 7   -735360.268 3  24881040.626    24881040.626    24881048.152
       547.143         426.353
 -23539856.436 9 -18342748.426 7  20700120.338    20700120.338    20700124.888
     -1744.075       -1359.014
 -19000645.396 9 -14805691.307 7  20991733.128    20991733.128    20991738.623
       386.080         300.836
  -5721899.998 8  -4458619.493 5  23099045.899    23099045.899    23099053.025
      2634.057        2052.512
 -17973635.596 9 -14005433.932 7  21600926.794    21600926.794    21600931.116
      1645.013        1281.819
  22969142.392 7  17898009.342 3  24602442.007    24602442.007    24602453.282
     -3236.556       -2521.990
 -14438569.156 8 -11250842.924 6  21772690.523    21772690.523    21772695.989
     -2675.805       -2085.021
 -18807467.383 8 -14628016.211 7  20429755.805    20429755.805    20429761.305
      2942.151        2288.334
 -15276330.372 8 -11881587.283 5  21290339.799    21290339.799    21290344.096
     -2619.738       -2037.584
  -7174266.144 8  -5579989.151 6  22992176.987    22992176.987    22992177.847
      -142.997        -111.236
 05 11 14  0 29  0.0000000  0 11G01G20G14G06G16G25G05G30R18R17R07   -0.000000057
 -20999531.428 9 -16363275.531 7  20686589.777    20686589.777    20686598.562
       955.625         744.642
   -959894.103 7   -747953.018 3  24877965.499    24877965.499    24877973.655
       530.280         413.221
 -23487275.279 9 -18301776.139 7  20710125.950    20710125.950    20710130.815
     -1761.295       -1372.434
 -19011955.817 9 -14814504.618 7  20989581.011    20989581.011    20989586.106
       367.928         286.696
  -5800801.878 8  -4520101.508 5  23084031.501    23084031.501    23084037.883
      2626.044        2046.282
 -18022925.901 9 -14043841.958 7  21591547.091    21591547.091    21591551.842
      1641.017        1278.722
  23066218.194 7  17973652.637 3  24620913.778    24620913.778    24620924.052
     -3235.268       -2520.950
 -14358214.049 9 -11188228.630 6  21787982.836    21787982.836    21787987.845
     -2681.201       -2089.260
 -18895447.722 8 -14696445.348 7  20413349.371    20413349.371    20413354.985
      2923.156        2273.562
 -15197427.080 8 -11820218.099 5  21305078.614    21305078.614    21305082.453
     -2640.506       -2053.708
  -7169619.990 7  -5576375.549 6  22993043.547    22993043.547    22993045.152
      -166.738        -129.686
 05 11 14  0 29 30.0000000  0 12G22G01G20G14G06G16G25G05G30R18R17R07-0.000000060
  -3219990.920 5         0.000 1  25403620.302           0.000           0.000
     -2933.184          -0.000
 -21027934.523 9 -16385407.835 7  20681186.176    20681186.176    20681191.470
       937.889         730.812
   -975545.037 7   -760148.579 3  24874984.874    24874984.874    24874990.140
       513.164         399.891
 -23434176.040 9 -18260400.173 7  20720230.914    20720230.914    20720235.092
     -1778.687       -1385.965
 -19022719.477 9 -14822891.884 7  20987532.660    20987532.660    20987537.611
       349.576         272.395
  -5879461.609 8  -4581394.827 5  23069063.234    23069063.234    23069069.959
      2617.834        2039.855
 -18072093.015 9 -14082154.024 7  21582190.950    21582190.950    21582195.528
      1636.770        1275.399
  23163254.427 7  18049265.135 3  24639380.413    24639380.413    24639387.596
     -3233.972       -2519.963
 -14277695.892 8 -11125487.306 6  21803304.420    21803304.420    21803309.600
     -2686.678       -2093.517
 -18982854.506 9 -14764428.372 7  20397050.555    20397050.555    20397054.795
      2903.861        2258.568
 -15117902.199 8 -11758365.438 5  21319935.207    21319935.207    21319938.358
     -2661.168       -2069.767
  -7164258.103 8  -5572205.268 6  22994046.245    22994046.245    22994048.594
      -190.661        -148.280
 05 11 14  0 30  0.0000000  0 12G22G01G20G14G06G16G25G05G30R18R17R07-0.000000058
  -3132084.395 5         0.000 1  25420346.640           0.000           0.000
     -2927.063          -0.000
 -21055795.757 9 -16407117.913 7  20675884.373    20675884.373    20675889.696
       919.770         716.711
   -990675.382 7   -771938.459 3  24872107.061    24872107.061    24872113.558
       495.839         386.356
 -23380548.523 9 -18218612.538 7  20730435.640    20730435.640    20730440.019
     -1796.258       -1399.685
 -19032924.652 9 -14830843.967 7  20985590.954    20985590.954    20985596.391
       331.006         257.924
  -5957867.696 8  -4642490.495 5  23054143.445    23054143.445    23054147.480
      2609.345        2033.236
 -18121124.747 9 -14120360.587 7  21572860.566    21572860.566    21572865.231
      1632.248        1271.900
  23260260.963 6  18124854.436 3  24657841.143    24657841.143    24657850.672
     -3232.824       -2519.125
 -14197005.530 9 -11062611.788 6  21818659.044    21818659.044    21818665.655
     -2692.417       -2097.988
 -19069673.255 9 -14831954.032 7  20380859.490    20380859.490    20380865.277
      2884.217        2243.296
 -15037747.474 8 -11696022.879 5  21334907.315    21334907.315    21334911.326
     -2682.080       -2086.043
  -7158169.355 8  -5567469.654 6  22995183.372    22995183.372    22995186.179
      -214.912        -167.171
 05 11 14  0 30 30.0000000  0 12G22G01G20G14G06G16G25G05G30R18R17R07-0.000000050
  -3044380.999 5         0.000 1  25437030.866           0.000           0.000
     -2920.153          -0.000
 -21083130.515 9 -16428417.749 7  20670682.683    20670682.683    20670687.977
       902.208         703.013
  -1005302.174 7   -783335.962 3  24869322.644    24869322.644    24869330.858
       479.022         373.284
 -23326411.134 9 -18176427.604 7  20740737.774    20740737.774    20740742.382
     -1813.201       -1412.898
 -19042588.386 9 -14838374.137 7  20983751.954    20983751.954    20983757.163
       312.949         243.838
  -6036036.302 8  -4703401.095 5  23039268.921    23039268.921    23039274.502
      2601.507        2027.142
 -18170037.328 9 -14158474.293 7  21563552.378    21563552.378    21563556.986
      1628.260        1268.779
  23357219.743 7  18200406.542 3  24676293.333    24676293.333    24676300.630
     -3231.278       -2517.875
 -14116161.909 9 -10999616.852 7  21834044.520    21834044.520    21834048.698
     -2697.455       -2101.919
 -19155918.560 9 -14899033.676 7  20364776.452    20364776.452    20364781.952
      2865.070        2228.378
 -14956985.610 8 -11633208.133 5  21349996.060    21349996.060    21349998.753
     -2702.335       -2101.827
  -7151373.849 8  -5562184.334 6  22996453.813    22996453.813    22996456.220
      -238.470        -185.465
 05 11 14  0 31  0.0000000  0 12G22G01G20G14G06G16G25G05G30R18R17R07-0.000000048
  -2956863.758 5         0.000 1  25453690.137           0.000           0.000
     -2913.751          -0.000
 -21109917.771 9 -16449290.952 7  20665585.256    20665585.256    20665590.550
       884.083         688.901
  -1019406.116 7   -794326.051 3  24866638.188    24866638.188    24866646.201
       461.747         359.798
 -23271745.968 9 -18133831.427 7  20751140.362    20751140.362    20751144.769
     -1830.630       -1426.460
 -19051690.473 9 -14845466.679 7  20982019.539    20982019.539    20982024.976
       294.373         229.380
  -6113947.398 8  -4764111.022 5  23024442.042    23024442.042    23024447.536
      2593.056        2020.565
 -18218810.156 9 -14196479.114 7  21554271.538    21554271.538    21554275.945
      1623.716        1265.252
  23454149.106 7  18275935.784 3  24694737.041    24694737.041    24694744.711
     -3230.166       -2517.011
 -14035147.350 9 -10936488.704 6  21849460.094    21849460.094    21849465.445
     -2703.003       -2106.229
 -19241565.675 9 -14965648.079 7  20348805.135    20348805.135    20348810.177
      2845.225        2212.961
 -14875600.290 8 -11569908.466 5  21365197.996    21365197.996    21365201.376
     -2722.902       -2117.827
  -7143852.135 8  -5556334.187 6  22997860.965    22997860.965    22997861.538
      -262.507        -204.178
 05 11 14  0 31 30.0000000  0 12G22G01G20G14G06G16G25G05G30R18R17R07-0.000000047
  -2869549.024 6         0.000 1  25470306.300           0.000           0.000
     -2906.981          -0.000
 -21136169.904 9 -16469747.175 7  20660589.621    20660589.621    20660595.030
       866.322         675.073
  -1033001.200 7   -804919.655 3  24864053.243    24864053.243    24864059.338
       444.873         346.695
 -23216568.209 9 -18090835.822 7  20761640.125    20761640.125    20761644.704
     -1847.628       -1439.710
 -19060244.548 9 -14852132.201 7  20980392.065    20980392.065    20980397.588
       276.171         215.204
  -6191614.824 8  -4824631.061 5  23009662.863    23009662.863    23009668.472
      2585.015        2014.250
 -18267456.442 9 -14234385.332 7  21545014.837    21545014.837    21545019.159
      1619.632        1262.062
  23551034.140 6  18351430.449 2  24713169.071    24713169.071    24713178.858
     -3228.625       -2515.823
 -13953977.819 8 -10873239.803 6  21864906.121    21864906.121    21864911.959
     -2708.057       -2110.191
 -19326626.682 8 -15031806.611 7  20332942.942    20332942.942    20332948.041
      2825.701        2197.776
 -14793609.018 8 -11506137.516 5  21380515.582    21380515.582    21380519.077
     -2742.866       -2133.338
  -7135619.594 7  -5549931.170 6  22999398.227    22999398.227    22999400.117
      -286.079        -222.514
 05 11 14  0 32  0.0000000  0 11G01G20G14G06G16G25G05G30R18R17R07   -0.000000044
 -21161879.001 9 -16489780.252 7  20655697.188    20655697.188    20655702.825
       848.026         660.806
  -1046081.184 7   -815111.876 3  24861565.183    24861565.183    24861571.565
       427.555         333.178
 -23160872.837 9 -18047436.895 7  20772238.954    20772238.954    20772243.161
     -1865.001       -1453.246
 -19068243.879 9 -14858365.457 7  20978869.754    20978869.754    20978875.106
       257.513         200.677
  -6269031.379 8  -4884955.629 5  22994930.473    22994930.473    22994935.967
      2576.475        2007.656
 -18315968.624 9 -14272187.037 7  21535782.884    21535782.884    21535787.492
      1614.956        1258.408
  23647880.089 7  18426894.669 3  24731602.127    24731602.127    24731611.886
     -3227.456       -2514.901
 -13872648.671 9 -10809866.536 7  21880383.612    21880383.612    21880389.536
     -2713.488       -2114.408
 -19411090.724 8 -15097500.823 7  20317191.230    20317191.230    20317196.672
      2805.641        2182.167
 -14711010.379 8 -11441894.188 5  21395943.950    21395943.950    21395950.195
     -2763.267       -2149.226
  -7126670.925 8  -5542971.193 6  23001071.703    23001071.703    23001072.849
      -310.154        -241.215
 05 11 14  0 32 30.0000000  0 12G22G01G20G14G06G16G25G05G30R18R17R07-0.000000040
  -2695515.530 4         0.000 1  25503422.875           0.000           0.000
     -2894.213          -0.000
 -21187044.367 9 -16509389.645 7  20650908.519    20650908.519    20650914.156
       829.489         646.361
  -1058646.649 7   -824903.186 3  24859172.943    24859172.943    24859176.721
       409.896         319.413
 -23104662.050 9 -18003636.323 7  20782935.342    20782935.342    20782939.864
     -1882.560       -1466.925
 -19075688.851 9 -14864166.740 7  20977452.782    20977452.782    20977458.162
       238.653         185.934
  -6346197.344 8  -4945084.897 5  22980245.978    22980245.978    22980252.761
      2567.755        2000.845
 -18364346.427 9 -14309884.037 7  21526577.017    21526577.017    21526581.482
      1610.064        1254.604
  23744685.171 6  18502327.116 2  24750023.605    24750023.605    24750035.796
     -3226.440       -2514.089
 -13791162.484 9 -10746370.892 7  21895889.340    21895889.340    21895895.378
     -2719.077       -2118.757
 -19494955.915 8 -15162729.286 7  20301551.956    20301551.956    20301558.430
      2785.224        2166.274
 -14627805.969 8 -11377179.699 5  21411488.488    21411488.488    21411492.785
     -2783.832       -2165.222
  -7117008.021 8  -5535455.701 6  23002877.619    23002877.619    23002878.421
      -334.303        -260.014
 05 11 14  0 33  0.0000000  0 11G01G20G14G06G16G25G05G30R18R17R07   -0.000000040
 -21211670.927 9 -16528579.179 7  20646222.114    20646222.114    20646227.752
       811.218         632.124
  -1070705.047 7   -834299.349 3  24856880.091    24856880.091    24856884.127
       392.812         306.099
 -23047943.348 9 -17959439.996 7  20793728.761    20793728.761    20793733.254
     -1899.713       -1480.276
 -19082585.792 9 -14869541.000 7  20976140.490    20976140.490    20976146.100
       220.105         171.519
  -6423118.572 8  -5005023.480 5  22965609.074    22965609.074    22965614.941
      2559.304        1994.261
 -18412595.273 9 -14347480.557 7  21517395.268    21517395.268    21517400.133
      1605.475        1250.996
  23841441.986 6  18577721.850 2  24768433.066    24768433.066    24768440.650
     -3225.090       -2513.069
 -13709527.605 9 -10682759.353 7  21911424.752    21911424.752    21911429.932
     -2724.257       -2122.823
 -19578224.639 8 -15227493.822 7  20286024.006    20286024.006    20286028.991
      2764.990        2150.556
 -14544007.561 8 -11312003.203 5  21427142.405    21427142.405    21427146.530
     -2803.847       -2180.776
  -7106638.919 8  -5527390.921 6  23004816.238    23004816.238    23004816.009
      -358.027        -278.459
 05 11 14  0 33 30.0000000  0 11G01G20G14G06G16G25G05G30R18R17R07   -0.000000041
 -21235752.917 9 -16547344.378 7  20641639.382    20641639.382    20641644.991
       793.262         618.139
  -1082251.800 7   -843296.850 3  24854681.259    24854681.259    24854687.297
       376.020         292.978
 -22990714.173 9 -17914845.882 7  20804619.016    20804619.016    20804623.766
     -1916.506       -1493.369
 -19088929.925 9 -14874484.497 7  20974933.187    20974933.187    20974938.910
       201.892         157.320
  -6499790.164 8  -5064767.521 5  22951018.499    22951018.499    22951023.793
      2551.153        1987.886
 -18460709.792 9 -14384972.403 7  21508239.423    21508239.423    21508244.460
      1601.179        1247.672
  23938153.683 6  18653081.535 3  24786840.558    24786840.558    24786847.770
     -3223.282       -2511.679
 -13627741.530 9 -10619030.021 6  21926987.341    21926987.341    21926992.378
     -2729.104       -2126.589
 -19660889.684 8 -15291788.813 7  20270608.261    20270608.261    20270613.991
      2745.028        2135.006
 -14459615.171 8 -11246364.762 5  21442907.127    21442907.127    21442912.341
     -2823.399       -2195.994
  -7095561.170 8  -5518774.950 6  23006886.753    23006886.753    23006886.237
      -381.437        -296.670
 05 11 14  0 34  0.0000000  0 11G01G20G14G06G16G25G05G30R18R17R07   -0.000000044
 -21259292.593 9 -16565686.991 7  20637160.175    20637160.175    20637165.355
       775.226         604.079
  -1093290.818 7   -851898.695 3  24852580.824    24852580.824    24852588.437
       359.141         279.884
 -22932979.520 9 -17869857.901 7  20815605.733    20815605.733    20815610.026
     -1933.264       -1506.470
 -19094724.656 9 -14878999.902 7  20973830.356    20973830.356    20973836.137
       183.623         143.081
  -6576215.540 8  -5124319.694 5  22936475.410    22936475.410    22936481.334
      2543.050        1981.574
 -18508692.704 9 -14422361.683 7  21499108.932    21499108.932    21499113.569
      1596.863        1244.296
  24034815.679 6  18728402.463 2  24805230.863    24805230.863    24805240.107
     -3221.683       -2510.403
 -13545809.741 9 -10555187.121 7  21942578.843    21942578.843    21942584.252
     -2733.874       -2130.324
 -19742951.094 8 -15355614.321 7  20255305.044    20255305.044    20255310.830
      2724.913        2119.363
 -14374633.747 8 -11180268.183 5  21458783.175    21458783.175    21458787.471
     -2842.524       -2210.848
  -7083777.995 7  -5509610.359 6  23009086.750    23009086.750    23009088.411
      -404.846        -314.885
 05 11 14  0 34 30.0000000  0 11G01G20G14G06G16G25G05G30R18R17R07   -0.000000045
 -21282279.042 9 -16583598.517 7  20632785.837    20632785.837    20632791.275
       757.365         590.165
  -1103812.607 7   -860097.563 3  24850577.834    24850577.834    24850583.386
       342.474         266.858
 -22874731.435 9 -17824469.844 7  20826689.749    20826689.749    20826694.500
     -1949.744       -1519.273
 -19099960.283 9 -14883079.630 7  20972834.037    20972834.037    20972839.875
       165.602         129.037
  -6652384.305 8  -5183671.927 5  22921981.553    22921981.553    22921986.876
      2535.028        1975.323
 -18556533.142 9 -14459639.965 7  21490005.195    21490005.195    21490009.917
      1592.698        1241.051
  24131436.594 6  18803691.380 2  24823619.899    24823619.899    24823629.143
     -3219.684       -2508.795
 -13463724.391 9 -10491224.571 7  21958199.503    21958199.503    21958203.939
     -2738.329       -2133.762
 -19824396.474 8 -15418960.706 7  20240116.859    20240116.859    20240122.818
      2704.959        2103.847
 -14289058.028 8 -11113709.344 5  21474769.002    21474769.002    21474771.981
     -2862.065       -2226.045
  -7071282.652 8  -5499891.830 6  23011422.293    23011422.293    23011423.955
      -427.973        -332.856
 05 11 14  0 35  0.0000000  0 11G01G20G14G06G16G25G05G30R18R17R07   -0.000000043
 -21304711.104 9 -16601078.056 7  20628517.208    20628517.208    20628522.817
       737.976         575.073
  -1113817.984 7   -867893.979 3  24848673.600    24848673.600    24848679.982
       324.382         252.827
 -22815971.652 9 -17778683.064 7  20837871.299    20837871.299    20837876.193
     -1967.638       -1533.231
 -19104636.614 9 -14886723.547 7  20971944.477    20971944.477    20971950.115
       146.070         113.841
  -6728296.339 8  -5242824.117 5  22907535.449    22907535.449    22907540.257
      2525.640        1968.029
 -18604230.400 9 -14496806.658 7  21480928.341    21480928.341    21480933.578
      1587.037        1236.656
  24228014.986 6  18878947.232 2  24841998.821    24841998.821    24842006.204
     -3218.988       -2508.302
 -13381487.596 8 -10427144.006 6  21973847.334    21973847.334    21973853.888
     -2744.230       -2138.376
 -19905222.547 8 -15481825.399 7  20225044.656    20225044.656    20225049.812
      2683.337        2087.032
 -14202892.389 8 -11046691.703 5  21490867.445    21490867.445    21490871.111
     -2882.519       -2241.930
  -7058076.040 7  -5489620.098 6  23013888.648    23013888.648    23013890.367
      -452.535        -351.973
 05 11 14  0 35 30.0000000  0 11G01G20G14G06G16G25G05G30R18R17R07   -0.000000042
 -21326595.081 9 -16618130.523 7  20624352.944    20624352.944    20624358.295
       720.422         561.395
  -1123314.793 7   -875294.214 3  24846866.019    24846866.019    24846873.746
       308.178         240.152
 -22756708.880 9 -17732504.353 7  20849148.808    20849148.808    20849153.674
     -1983.688       -1545.699
 -19108761.328 9 -14889937.619 7  20971159.238    20971159.238    20971165.048
       128.393         100.034
  -6803958.912 8  -5301781.910 5  22893136.331    22893136.331    22893142.284
      2518.029        1962.111
 -18651791.225 9 -14533867.022 7  21471877.703    21471877.703    21471882.940
      1583.195        1233.645
  24324542.656 6  18954163.507 2  24860364.856    24860364.856    24860367.718
     -3216.736       -2506.545
 -13299108.759 8 -10362952.748 6  21989524.367    21989524.367    21989529.318
     -2748.191       -2141.456
 -19985433.741 9 -15544211.871 7  20210086.814    20210086.814    20210092.601
      2663.543        2071.643
 -14116149.733 8 -10979225.276 5  21507069.880    21507069.880    21507073.089
     -2900.923       -2256.269
  -7044168.054 8  -5478802.828 6  23016489.272    23016489.272    23016491.563
      -475.180        -369.595
 05 11 14  0 36  0.0000000  0 11G01G20G14G06G16G25G05G30R18R17R07   -0.000000041
 -21347926.011 9 -16634752.026 7  20620293.778    20620293.778    20620299.445
       701.842         546.895
  -1132299.660 7   -882295.437 3  24845158.128    24845158.128    24845161.734
       291.015         226.772
 -22696941.010 9 -17685932.046 7  20860522.538    20860522.538    20860527.031
     -2000.595       -1558.901
 -19112330.428 9 -14892718.742 7  20970479.869    20970479.869    20970485.936
       109.788          85.544
  -6879367.747 8  -5360541.998 5  22878786.884    22878786.884    22878792.207
      2509.468        1955.425
 -18699210.462 9 -14570817.081 7  21462854.210    21462854.210    21462859.333
      1578.339        1229.896
  24421021.938 6  19029342.071 2  24878726.497    24878726.497    24878733.480
     -3214.969       -2505.212
 -13216585.885 8 -10298649.277 6  22005228.133    22005228.133    22005233.170
     -2753.069       -2145.255
 -20065023.438 8 -15606114.938 7  20195244.448    20195244.448    20195249.547
      2642.634        2055.381
 -14028828.500 8 -10911308.802 5  21523382.953    21523382.953    21523386.104
     -2920.197       -2271.258
  -7029556.159 8  -5467438.088 6  23019219.872    23019219.872    23019222.565
      -498.716        -387.902
 05 11 14  0 36 30.0000000  0 11G01G20G14G06G16G25G05G30R18R17R07   -0.000000040
 -21368704.661 9 -16650943.195 7  20616339.799    20616339.799    20616345.265
       682.965         532.189
  -1140774.986 7   -888899.629 3  24843543.811    24843543.811    24843551.623
       273.599         213.220
 -22636671.931 9 -17638969.206 7  20871991.647    20871991.647    20871996.140
     -2017.733       -1572.241
 -19115345.783 9 -14895068.356 7  20969906.393    20969906.393    20969912.002
        90.869          70.804
  -6954524.806 8  -5419105.903 5  22864485.582    22864485.582    22864490.047
      2500.599        1948.524
 -18746489.482 9 -14607657.883 7  21453857.427    21453857.427    21453862.292
      1573.192        1225.863
  24517449.665 6  19104480.559 2  24897077.798    24897077.798    24897084.895
     -3213.824       -2504.260
 -13133923.172 8 -10234236.805 6  22020957.595    22020957.595    22020963.920
     -2758.189       -2149.249
 -20143990.313 8 -15667533.585 7  20180518.451    20180518.451    20180524.066
      2621.398        2038.877
 -13940934.414 8 -10842946.839 5  21539800.269    21539800.269    21539804.910
     -2939.664       -2286.400
  -7014244.009 7  -5455528.697 6  23022081.293    23022081.293    23022083.184
      -522.520        -406.421
 05 11 14  0 37  0.0000000  0 11G01G20G14G06G16G25G05G30R18R17R07   -0.000000040
 -21388929.324 9 -16666702.678 7  20612491.102    20612491.102    20612496.368
       664.606         517.856
  -1148740.681 7   -895106.705 3  24842027.623    24842027.623    24842035.321
       256.758         200.076
 -22575902.805 9 -17591616.695 7  20883555.278    20883555.278    20883559.857
     -2034.251       -1585.125
 -19117807.035 9 -14896986.194 7  20969438.055    20969438.055    20969443.808
        72.486          56.489
  -7029428.612 8  -5477472.466 5  22850231.158    22850231.158    22850237.626
      2492.266        1941.996
 -18793626.737 9 -14644388.207 7  21444887.688    21444887.688    21444892.468
      1568.568        1222.262
  24613825.549 6  19179578.648 2  24915414.358    24915414.358    24915421.313
     -3211.892       -2502.794
 -13051121.747 8 -10169716.283 6  22036715.155    22036715.155    22036720.421
     -2762.679       -2152.740
 -20222331.187 9 -15728465.349 7  20165909.561    20165909.561    20165914.832
      2600.567        2022.641
 -13852472.393 8 -10774143.063 5  21556327.188    21556327.188    21556330.167
     -2958.554       -2301.131
  -6998232.911 8  -5443075.711 6  23025074.592    23025074.592    23025074.764
      -545.616        -424.354
 05 11 14  0 37 30.0000000  0 11G01G20G14G06G16G25G05G30R18R17R07   -0.000000041
 -21408600.859 9 -16682031.158 7  20608747.844    20608747.844    20608753.510
       646.381         503.653
  -1156199.169 7   -900918.578 3  24840610.987    24840610.987    24840617.541
       240.081         187.021
 -22514637.086 9 -17543877.254 7  20895214.061    20895214.061    20895218.697
     -2050.547       -1597.834
 -19119716.179 9 -14898473.814 7  20969074.791    20969074.791    20969080.286
        54.342          42.350
  -7104081.116 8  -5535643.232 5  22836025.246    22836025.246    22836030.598
      2484.102        1935.665
 -18840622.977 9 -14681008.649 7  21435944.643    21435944.643    21435949.164
      1564.083        1218.770
  24710146.603 6  19254633.979 2  24933744.107    24933744.107    24933747.598
     -3209.902       -2501.243
 -12968185.574 8 -10105090.741 6  22052496.727    22052496.727    22052503.051
     -2766.849       -2155.961
 -20300043.974 8 -15788908.615 7  20151417.909    20151417.909    20151423.524
      2579.811        2006.502
 -13763448.084 8 -10704901.975 5  21572958.038    21572958.038    21572963.022
     -2976.887       -2315.344
  -6981526.353 8  -5430081.770 6  23028196.842    23028196.842    23028197.071
      -568.541        -442.229
 05 11 14  0 38  0.0000000  0 11G01G20G14G06G16G25G05G30R18R17R07   -0.000000043
 -21427716.930 9 -16696926.809 7  20605110.089    20605110.089    20605115.927
       627.678         489.087
  -1163150.104 7   -906334.967 3  24839286.167    24839286.167    24839295.039
       223.032         173.753
 -22452875.615 9 -17495751.503 7  20906966.710    20906966.710    20906971.260
     -2067.222       -1610.804
 -19121072.016 9 -14899530.273 7  20968816.642    20968816.642    20968822.308
        35.750          27.854
  -7178480.873 8  -5593617.048 5  22821867.602    22821867.602    22821873.239
      2475.520        1928.990
 -18887476.177 9 -14717517.634 7  21427028.497    21427028.497    21427033.562
      1559.121        1214.919
  24806412.593 6  19329646.414 2  24952065.473    24952065.473    24952075.861
     -3208.150       -2499.859
 -12885115.365 8 -10040360.740 6  22068305.062    22068305.062    22068309.641
     -2771.448       -2159.568
 -20377125.524 8 -15848860.904 7  20137043.170    20137043.170    20137048.613
      2558.572        1990.018
 -13673864.446 8 -10635225.863 5  21589693.240    21589693.240    21589695.360
     -2995.675       -2329.982
  -6964125.552 8  -5416547.869 6  23031447.544    23031447.544    23031448.232
      -591.877        -460.355
 05 11 14  0 38 30.0000000  0 11G01G20G14G06G16G25G05G30R18R17R07   -0.000000043
 -21446270.967 9 -16711384.523 7  20601579.430    20601579.430    20601584.953
       609.446         474.893
  -1169588.379 7   -911351.882 3  24838063.875    24838063.875    24838068.597
       206.449         160.853
 -22390614.591 9 -17447236.485 7  20918814.734    20918814.734    20918819.227
     -2083.322       -1623.371
 -19121869.270 9 -14900151.493 7  20968664.754    20968664.754    20968670.563
        17.609          13.728
  -7252622.040 8  -5651389.388 5  22807759.185    22807759.185    22807764.994
      2467.361        1922.638
 -18934179.958 9 -14753910.173 7  21418141.172    21418141.172    21418145.979
      1554.630        1211.420
  24902628.106 6  19404619.556 2  24970369.794    24970369.794    24970381.842
     -3205.973       -2498.144
 -12801907.430 8  -9975523.465 6  22084137.670    22084137.670    22084144.453
     -2775.502       -2162.733
 -20453567.130 8 -15908315.472 7  20122788.270    20122788.270    20122793.541
      2537.683        1973.771
 -13583719.596 8 -10565113.224 5  21606532.813    21606532.813    21606536.996
     -3013.868       -2344.130
  -6946026.290 7  -5402470.737 6  23034830.239    23034830.239    23034830.526
      -614.609        -477.998
 05 11 14  0 39  0.0000000  0 11G01G20G14G06G16G25G05G30R18R17R07   -0.000000046
 -21464269.591 9 -16725409.440 7  20598154.646    20598154.646    20598159.998
       590.879         460.427
  -1175522.475 7   -915975.906 3  24836933.316    24836933.316    24836937.580
       189.512         147.676
 -22327863.655 9 -17398339.722 7  20930755.808    20930755.808    20930760.444
     -2099.693       -1636.111
 -19122115.321 9 -14900343.188 7  20968618.284    20968618.284    20968623.521
        -0.742          -0.558
  -7326511.819 8  -5708965.821 5  22793697.427    22793697.427    22793703.208
      2458.997        1916.117
 -18980740.986 9 -14790191.485 7  21409280.978    21409280.978    21409285.700
      1549.849        1207.684
  24998784.575 6  19479546.603 2  24988669.142    24988669.142    24988683.537
     -3203.815       -2496.510
 -12718571.239 8  -9910586.212 6  22099997.326    22099997.326    22100002.363
     -2779.736       -2166.033
 -20529373.084 8 -15967275.636 7  20108651.694    20108651.694    20108657.366
      2516.501        1957.267
 -13493023.276 8 -10494571.682 5  21623475.723    21623475.723    21623480.822
     -3032.174       -2358.358
  -6927238.154 7  -5387857.805 6  23038340.262    23038340.262    23038341.637
      -637.523        -495.838
 05 11 14  0 39 30.0000000  0 11G01G20G14G06G16G25G05G30R18R17R07   -0.000000045
 -21481700.267 9 -16738991.803 7  20594837.549    20594837.549    20594842.815
       571.246         445.123
  -1180941.176 7   -920198.288 3  24835903.253    24835903.253    24835909.148
       171.794         133.899
 -22264612.236 9 -17349052.963 7  20942791.992    20942791.992    20942797.458
     -2117.006       -1649.598
 -19121799.352 9 -14900096.946 7  20968678.302    20968678.302    20968683.825
       -20.183         -15.733
  -7400138.610 8  -5766337.352 5  22779686.927    22779686.927    22779693.796
      2449.520        1908.762
 -19027146.844 9 -14826351.901 7  21400450.486    21400450.486    21400454.464
      1543.975        1203.122
  25094892.272 6  19554435.690 2  25006959.728    25006959.728    25006971.605
     -3203.070       -2495.897
 -12635097.281 8  -9845541.651 6  22115881.754    22115881.754    22115888.279
     -2785.014       -2170.145
 -20604529.113 8 -16025730.300 7  20094636.494    20094636.494    20094641.936
      2494.033        1939.806
 -13401770.056 8 -10423596.983 5  21640521.891    21640521.891    21640526.761
     -3051.226       -2373.174
  -6907751.506 7  -5372701.589 6  23041982.197    23041982.197    23041983.858
      -661.505        -514.526
 05 11 14  0 40  0.0000000  0 11G01G20G14G06G16G25G05G30R18R17R07   -0.000000043
 -21498568.899 9 -16752136.222 7  20591627.544    20591627.544    20591633.182
       552.853         430.780
  -1185852.031 7   -924024.976 3  24834967.053    24834967.053    24834971.517
       155.236         120.898
 -22200869.590 9 -17299383.429 7  20954922.087    20954922.087    20954927.124
     -2132.973       -1662.063
 -19120928.094 9 -14899418.029 7  20968844.100    20968844.100    20968849.394
       -38.331         -29.834
  -7473509.104 8  -5823509.142 5  22765724.964    22765724.964    22765731.231
      2441.379        1902.363
 -19073403.505 9 -14862396.061 7  21391647.965    21391647.965    21391652.429
      1539.332        1199.475
  25190943.224 6  19629280.607 2  25025236.841    25025236.841    25025244.568
     -3200.774       -2494.098
 -12551494.517 8  -9780396.700 6  22131790.947    22131790.947    22131796.298
     -2788.942       -2173.183
 -20679039.223 9 -16083682.590 7  20080742.554    20080742.554    20080747.481
      2472.839        1923.314
 -13309970.413 8 -10352197.275 5  21657671.792    21657671.792    21657674.714
     -3069.030       -2387.034
  -6887575.511 7  -5357009.222 6  23045752.452    23045752.452    23045754.572
      -683.963        -531.957
 05 11 14  0 40 30.0000000  0 11G01G20G14G06G16G25G05G30R18R17R07   -0.000000044
 -21514877.034 9 -16764843.884 7  20588524.383    20588524.383    20588529.850
       534.256         416.277
  -1190258.408 7   -927458.581 3  24834129.075    24834129.075    24834135.314
       138.488         107.937
 -22136640.096 9 -17249334.531 7  20967144.279    20967144.279    20967149.172
     -2149.017       -1674.579
 -19119504.534 9 -14898308.749 7  20969114.901    20969114.901    20969120.539
       -56.655         -44.142
  -7546625.527 8  -5880482.980 5  22751811.654    22751811.654    22751818.694
      2432.985        1895.839
 -19119512.220 9 -14898324.942 7  21382873.754    21382873.754    21382878.104
      1534.553        1195.777
  25286933.925 6  19704078.511 2  25043502.862    25043502.862    25043509.015
     -3198.590       -2492.444
 -12467767.088 8  -9715154.615 6  22147723.239    22147723.239    22147728.906
     -2792.920       -2176.306
 -20752903.247 9 -16141132.361 7  20066968.070    20066968.070    20066972.711
      2451.371        1906.614
 -13217632.184 8 -10280378.728 5  21674920.314    21674920.314    21674924.382
     -3086.816       -2400.875
  -6866714.635 7  -5340784.149 6  23049651.022    23049651.022    23049653.257
      -706.725        -549.669
 05 11 14  0 41  0.0000000  0 11G01G20G14G06G16G25G05G30R18R17R07   -0.000000042
 -21530617.638 9 -16777109.319 7  20585528.987    20585528.987    20585534.481
       514.789         401.118
  -1194154.907 7   -930494.875 3  24833386.249    24833386.249    24833391.601
       120.996          94.245
 -22071919.710 9 -17198903.122 7  20979460.585    20979460.585    20979465.335
     -2165.926       -1687.742
 -19117522.632 9 -14896764.402 7  20969491.801    20969491.801    20969497.525
       -75.795         -59.053
  -7619481.691 8  -5937254.033 5  22737947.032    22737947.032    22737953.185
      2423.780        1888.647
 -19165466.134 9 -14934133.184 7  21374129.020    21374129.020    21374133.370
      1528.805        1191.264
  25382869.234 6  19778833.277 2  25061757.607    25061757.607    25061767.853
     -3197.183       -2491.314
 -12383910.924 8  -9649812.211 6  22163680.716    22163680.716    22163686.583
     -2797.764       -2180.053
 -20826112.439 8 -16198072.811 7  20053314.894    20053314.894    20053320.852
      2428.921        1889.165
 -13124753.000 8 -10208139.411 5  21692272.100    21692272.100    21692274.507
     -3105.338       -2415.252
  -6845164.634 8  -5324023.074 6  23053678.623    23053678.623    23053681.201
      -730.185        -567.945
 05 11 14  0 41 30.0000000  0 11G01G20G14G06G16G25G05G30R18R17R07   -0.000000044
 -21545798.844 9 -16788938.870 7  20582640.245    20582640.245    20582645.654
       496.229         386.688
  -1197551.715 7   -933141.806 3  24832741.950    24832741.950    24832748.990
       104.437          81.365
 -22006719.420 9 -17148097.770 7  20991867.654    20991867.654    20991872.806
     -2181.804       -1700.101
 -19114991.809 9 -14894792.351 7  20969973.541    20969973.541    20969979.121
       -93.981         -73.231
  -7692086.405 8  -5993829.142 5  22724131.354    22724131.354    22724137.077
      2415.443        1882.178
 -19211273.384 9 -14969827.153 7  21365412.555    21365412.555    21365416.647
      1523.978        1187.515
  25478739.064 6  19853537.014 2  25080002.677    25080002.677    25080007.027
     -3194.993       -2489.591
 -12299937.020 8  -9584378.066 6  22179661.228    22179661.228    22179666.608
     -2801.530       -2183.009
 -20898673.527 9 -16254509.186 7  20039784.311    20039784.311    20039789.582
      2407.410        1872.438
 -13031346.769 8 -10135490.175 5  21709721.493    21709721.493    21709725.275
     -3122.826       -2428.872
  -6822936.923 7  -5306734.914 6  23057831.456    23057831.456    23057834.493
      -752.690        -585.432
 05 11 14  0 42  0.0000000  0 11G01G20G14G06G16G25G05G30R18R17R07   -0.000000044
 -21560409.898 9 -16800324.122 7  20579859.952    20579859.952    20579865.218
       477.901         372.389
  -1200439.464 7   -935392.040 3  24832191.812    24832191.812    24832197.850
        88.125          68.695
 -21941030.934 9 -17096911.988 7  21004367.765    21004367.765    21004373.288
     -2197.355       -1712.229
 -19111902.550 9 -14892385.138 7  20970561.407    20970561.407    20970567.159
      -111.881         -87.188
  -7764429.675 8  -6050200.513 5  22710364.415    22710364.415    22710371.284
      2407.445        1875.943
 -19256922.876 9 -15005398.188 7  21356725.606    21356725.606    21356729.899
      1519.393        1183.948
  25574552.305 6  19928196.729 2  25098232.295    25098232.295    25098242.826
     -3192.505       -2487.664
 -12215837.272 8  -9518845.888 6  22195663.634    22195663.634    22195670.216
     -2804.976       -2185.694
 -20970574.049 9 -16310431.794 7  20026375.717    20026375.717    20026380.988
      2386.032        1855.809
 -12937405.783 8 -10062425.022 5  21727270.210    21727270.210    21727273.190
     -3139.841       -2442.081
  -6800023.159 8  -5288913.136 6  23062115.678    23062115.678    23062116.194
      -774.861        -602.672
 05 11 14  0 42 30.0000000  0 11G01G20G14G06G16G25G05G30R18R17R07   -0.000000035
 -21574439.523 9 -16811256.337 7  20577190.144    20577190.144    20577195.610
       458.932         357.598
  -1202808.326 7   -937237.971 3  24831741.267    24831741.267    24831747.535
        71.316          55.581
 -21874845.893 9 -17045339.291 7  21016962.438    21016962.438    21016967.246
     -2213.447       -1724.779
 -19108244.784 9 -14889534.941 7  20971257.712    20971257.712    20971263.292
      -130.407        -101.635
  -7836500.731 8  -6106359.773 5  22696650.735    22696650.735    22696656.573
      2398.809        1869.207
 -19302403.644 9 -15040837.749 7  21348070.929    21348070.929    21348075.165
      1514.145        1179.862
  25670318.217 6  20002819.477 2  25116456.869    25116456.869    25116476.616
     -3190.415       -2486.047
 -12131603.217 8  -9453209.041 6  22211694.713    22211694.713    22211699.120
     -2809.026       -2188.866
 -21041799.544 9 -16365829.378 7  20013093.500    20013093.500    20013098.828
      2363.890        1838.574
 -12842925.003 8  -9988940.039 5  21744919.565    21744919.565    21744923.976
     -3157.292       -2455.649
  -6776416.430 7  -5270552.400 6  23066525.738    23066525.738    23066528.488
      -797.448        -620.265
 05 11 14  0 43  0.0000000  0 11G01G20G14G06G16G25G05G30R18R17R07   -0.000000028
 -21587904.353 9 -16821748.455 7  20574627.868    20574627.868    20574633.076
       439.421         342.431
  -1204676.937 7   -938694.059 3  24831384.688    24831384.688    24831389.696
        54.012          42.089
 -21808184.151 9 -16993395.132 7  21029647.767    21029647.767    21029652.517
     -2229.948       -1737.617
 -19104036.312 9 -14886255.638 7  20972058.309    20972058.309    20972064.205
      -149.434        -116.442
  -7908317.056 8  -6162320.542 5  22682983.977    22682983.977    22682990.216
      2389.659        1862.078
 -19347732.070 9 -15076158.612 7  21339445.049    21339445.049    21339449.313
      1508.429        1175.399
  25766018.388 6  20077390.978 2  25134669.666    25134669.666    25134682.001
     -3188.850       -2484.808
 -12047254.243 8  -9387482.635 6  22227744.490    22227744.490    22227750.271
     -2813.493       -2192.308
 -21112366.267 9 -16420714.586 7  19999934.919    19999934.919    19999938.929
      2341.240        1820.966
 -12747925.468 8  -9915051.606 5  21762666.876    21762666.876    21762671.058
     -3175.195       -2469.565
  -6752134.467 7  -5251666.489 6  23071062.879    23071062.879    23071064.827
      -820.572        -638.216
 05 11 14  0 43 30.0000000  0 11G01G20G14G06G16G25G05G30R18R17R07   -0.000000025
 -21600805.747 9 -16831801.521 7  20572172.789    20572172.789    20572178.226
       420.636         327.763
  -1206048.261 7   -939762.693 3  24831124.809    24831124.809    24831133.223
        37.419          29.176
 -21741049.524 9 -16941082.491 7  21042423.252    21042423.252    21042427.430
     -2245.702       -1749.887
 -19099279.676 9 -14882549.179 7  20972963.458    20972963.458    20972969.239
      -167.680        -130.659
  -7979880.432 8  -6218084.199 5  22669366.159    22669366.159    22669372.569
      2381.201        1855.499
 -19392909.285 9 -15111361.642 7  21330848.089    21330848.089    21330852.410
      1503.332        1171.449
  25861649.555 6  20151908.767 2  25152870.914    25152870.914    25152884.622
     -3186.547       -2483.025
 -11962794.368 8  -9321669.816 6  22243816.935    22243816.935    22243822.859
     -2817.175       -2195.192
 -21182273.317 9 -16475086.721 7  19986898.358    19986898.358    19986902.770
      2319.194        1803.827
 -12652412.961 8  -9840764.134 5  21780509.542    21780509.542    21780513.324
     -3192.268       -2482.874
  -6727183.377 8  -5232260.131 6  23075726.703    23075726.703    23075728.307
      -842.746        -655.456
 05 11 14  0 44  0.0000000  0 11G01G20G14G06G16G25G05G30R18R17R07   -0.000000024
 -21613138.515 9 -16841411.513 7  20569825.986    20569825.986    20569831.395
       401.741         313.038
  -1206918.712 7   -940441.029 3  24830957.006    24830957.006    24830960.984
        20.823          16.243
 -21673439.580 9 -16888399.482 7  21055288.773    21055288.773    21055294.153
     -2261.429       -1762.157
 -19093970.875 9 -14878412.473 7  20973973.883    20973973.883    20973979.463
      -186.025        -144.958
  -8051186.679 8  -6273647.474 5  22655796.570    22655796.570    22655803.582
      2372.708        1848.869
 -19437929.996 9 -15146442.718 7  21322281.107    21322281.107    21322285.256
      1498.221        1167.450
  25957215.113 6  20226375.542 2  25171054.086    25171054.086    25171057.663
     -3184.162       -2481.161
 -11878220.944 8  -9255768.553 6  22259910.903    22259910.903    22259916.856
     -2820.852       -2198.055
 -21251513.243 9 -16528939.973 7  19973985.041    19973985.041    19973991.171
      2296.990        1786.520
 -12556385.422 8  -9766076.124 5  21798447.387    21798447.387    21798452.601
     -3209.351       -2496.173
  -6701560.587 8  -5212331.380 6  23080515.004    23080515.004    23080517.067
      -865.159        -672.908
 05 11 14  0 44 30.0000000  0 11G01G20G14G06G16G25G05G30R18R17R07   -0.000000026
 -21624905.511 9 -16850580.637 7  20567586.929    20567586.929    20567592.223
       382.084         297.740
  -1207293.326 7   -940732.995 3  24830889.059    24830889.059    24830893.839
         3.472           2.708
 -21605360.092 9 -16835350.578 7  21068243.982    21068243.982    21068249.019
     -2277.808       -1774.906
 -19088113.989 9 -14873848.671 7  20975088.131    20975088.131    20975094.140
      -205.059        -159.785
  -8122239.261 8  -6329013.052 5  22642275.329    22642275.329    22642281.482
      2363.455        1841.649
 -19482796.778 9 -15181403.848 7  21313743.340    21313743.340    21313747.518
      1492.284        1162.821
  26052710.419 6  20300787.448 2  25189225.192    25189225.192    25189237.927
     -3182.702       -2480.027
 -11793539.561 8  -9189783.127 6  22276025.755    22276025.755    22276030.391
     -2825.200       -2201.458
 -21320088.118 8 -16582275.967 7  19961197.365    19961197.365    19961203.610
      2273.999        1768.684
 -12459854.739 8  -9690996.743 5  21816481.045    21816481.045    21816484.024
     -3226.731       -2509.683
  -6675272.647 8  -5191885.303 6  23085427.325    23085427.325    23085429.044
      -887.995        -690.666
 05 11 14  0 45  0.0000000  0 11G01G20G14G06G16G25G05G30R18R17R07   -0.000000027
 -21636098.139 9 -16859302.206 7  20565457.139    20565457.139    20565462.291
       363.357         283.151
  -1207164.646 7   -940632.812 3  24830912.787    24830912.787    24830918.024
       -12.817         -10.007
 -21536805.378 9 -16781931.376 7  21081289.581    21081289.581    21081294.704
     -2293.180       -1786.881
 -19081701.724 9 -14868852.112 7  20976308.435    20976308.435    20976314.244
      -223.137        -173.879
  -8193029.862 8  -6384174.514 5  22628804.446    22628804.446    22628811.143
      2355.224        1835.229
 -19527500.721 9 -15216238.077 7  21305236.383    21305236.383    21305240.676
      1487.284        1158.916
  26148142.295 6  20375150.024 2  25207386.204    25207386.204    25207389.295
     -3180.119       -2477.985
 -11708744.174 8  -9123708.882 6  22292161.168    22292161.168    22292167.006
     -2828.548       -2204.052
 -21387986.764 9 -16635086.010 7  19948537.125    19948537.125    19948541.708
      2251.844        1751.436
 -12362817.378 8  -9615523.286 5  21834608.088    21834608.088    21834613.015
     -3243.335       -2522.583
  -6648312.752 8  -5170916.557 6  23090466.242    23090466.242    23090467.388
      -910.000        -707.797
 05 11 14  0 45 30.0000000  0 11G01G20G14G06G16G25G05G30R18R17R07   -0.000000027
 -21646714.153 9 -16867574.469 7  20563436.974    20563436.974    20563442.411
       344.359         268.342
  -1206531.949 7   -940139.805 3  24831031.618    24831031.618    24831040.633
       -29.411         -22.920
 -21467775.703 9 -16728142.070 7  21094425.143    21094425.143    21094430.351
     -2308.791       -1799.056
 -19074732.653 9 -14863421.665 7  20977634.749    20977634.749    20977640.645
      -241.472        -188.182
  -8263556.897 8  -6439130.587 5  22615384.290    22615384.290    22615389.642
      2346.526        1828.433
 -19572039.245 9 -15250943.402 7  21296760.877    21296760.877    21296765.456
      1481.916        1154.732
  26243511.346 6  20449463.469 2  25225533.311    25225533.311    25225546.791
     -3177.760       -2476.198
 -11623834.944 8  -9057545.924 6  22308318.090    22308318.090    22308325.817
     -2832.120       -2206.829
 -21455204.718 9 -16687366.633 7  19936002.069    19936002.069    19936007.053
      2229.318        1733.915
 -12265272.580 8  -9539654.934 5  21852831.397    21852831.397    21852835.178
     -3259.743       -2535.369
  -6620682.507 8  -5149426.449 6  23095628.270    23095628.270    23095630.218
      -932.093        -724.950
 05 11 14  0 46  0.0000000  0 11G01G20G14G06G16G25G05G30R18R17R07   -0.000000026
 -21656756.550 9 -16875399.753 7  20561525.838    20561525.838    20561531.333
       325.172         253.389
  -1205400.100 7   -939257.961 3  24831246.390    24831246.390    24831253.688
       -46.082         -35.883
 -21398276.832 9 -16673987.154 7  21107650.592    21107650.592    21107655.886
     -2324.406       -1811.236
 -19067211.203 9 -14857560.815 7  20979066.257    20979066.257    20979071.866
      -259.911        -202.540
  -8333824.011 8  -6493884.112 5  22602012.336    22602012.336    22602017.316
      2337.967        1821.771
 -19616415.232 9 -15285522.087 7  21288316.333    21288316.333    21288320.683
      1476.477        1150.496
  26338812.765 6  20523724.379 2  25243667.979    25243667.979    25243682.231
     -3175.600       -2474.477
 -11538817.601 8  -8991298.733 6  22324498.525    22324498.525    22324503.018
     -2835.696       -2209.621
 -21521743.627 9 -16739119.097 7  19923592.351    19923592.351    19923597.909
      2206.598        1716.226
 -12167231.788 8  -9463401.020 5  21871144.917    21871144.917    21871150.302
     -3276.360       -2548.286
  -6592388.342 8  -5127419.965 6  23100916.817    23100916.817    23100918.879
      -954.191        -742.151
 05 11 14  0 46 30.0000000  0 11G01G20G14G06G16G25G05G30R18R17R07   -0.000000024
 -21666220.401 9 -16882774.213 7  20559725.060    20559725.060    20559730.498
       305.931         238.394
  -1203766.017 7   -937984.678 3  24831558.379    24831558.379    24831564.131
       -62.726         -48.883
 -21328306.896 9 -16619465.174 7  21120965.759    21120965.759    21120970.996
     -2340.045       -1823.395
 -19059133.795 9 -14851266.732 7  20980603.286    20980603.286    20980608.981
      -278.388        -216.926
  -8403827.090 8  -6548431.903 5  22588691.062    22588691.062    22588697.415
      2329.117        1814.913
 -19660623.409 9 -15319970.012 7  21279903.938    21279903.938    21279908.316
      1470.917        1146.157
  26434049.806 6  20597935.200 2  25261789.353    25261789.353    25261806.496
     -3173.364       -2472.736
 -11453689.633 8  -8924965.301 6  22340695.761    22340695.761    22340702.715
     -2839.264       -2212.404
 -21587597.353 9 -16790338.640 7  19911312.548    19911312.548    19911317.704
      2183.769        1698.477
 -12068690.965 8  -9386758.210 5  21889553.122    21889553.122    21889558.164
     -3292.863       -2561.151
  -6563427.769 8  -5104895.160 6  23106327.863    23106327.863    23106330.040
      -976.258        -759.280
 05 11 14  0 47  0.0000000  0 11G01G20G14G06G16G25G05G30R18R17R07   -0.000000026
 -21675114.850 9 -16889704.994 7  20558032.530    20558032.530    20558037.967
       286.755         223.462
  -1201640.219 7   -936328.236 3  24831962.815    24831962.815    24831968.653
       -79.232         -61.752
 -21257877.825 9 -16564585.428 7  21134367.960    21134367.960    21134373.426
     -2355.496       -1835.440
 -19050510.545 9 -14844547.339 7  20982244.587    20982244.587    20982250.053
      -296.772        -231.255
  -8473575.568 8  -6602781.308 5  22575419.047    22575419.047    22575424.513
      2320.447        1808.178
 -19704672.544 9 -15354294.001 7  21271521.718    21271521.718    21271525.667
      1465.447        1141.909
  26529211.968 6         0.000 1  25279902.546    25279902.546           0.000
     -3171.101          -0.000
 -11368462.601 8  -8858554.708 6  22356915.407    22356915.407    22356921.102
     -2842.729       -2215.113
 -21652773.249 9 -16841030.978 7  19899158.721    19899158.721    19899163.878
      2160.962        1680.742
 -11969666.880 8  -9309739.493 5  21908052.623    21908052.623    21908057.551
     -3308.998       -2573.670
  -6533813.810 8  -5081862.145 6  23111861.152    23111861.152    23111864.074
      -998.303        -776.447
 05 11 14  0 47 30.0000000  0 12G01G20G14G06G16G25G05G30R18R17R08R07-0.000000025
 -21683427.427 9 -16896182.358 7  20556450.677    20556450.677    20556456.172
       267.795         208.659
  -1199012.071 7   -934280.355 3  24832466.208    24832466.208    24832469.184
       -95.496         -74.405
 -21186979.691 9 -16509340.180 7  21147858.993    21147858.993    21147864.230
     -2370.683       -1847.280
 -19041330.204 9 -14837393.839 7  20983990.961    20983990.961    20983996.770
      -314.893        -245.378
  -8543057.535 8  -6656923.051 5  22562196.510    22562196.510    22562201.546
      2311.992        1801.549
 -19748549.529 9 -15388483.863 7  21263171.912    21263171.912    21263176.176
      1460.073        1137.731
  26624309.811 5  20746190.060 1  25297995.464    25297995.464    25298008.056
     -3168.616       -2469.070
 -11283126.469 8  -8792059.069 6  22373154.381    22373154.381    22373160.735
     -2845.905       -2217.602
 -21717256.895 9 -16891184.913 7  19887133.057    19887133.057    19887138.672
      2138.259        1663.073
 -11870152.164 8  -9232339.216 5  21926642.136    21926642.136    21926648.266
     -3324.882       -2586.010
   1764673.115 6   1372522.508 6  24634388.477    24634388.477    24634393.232
      1781.036        1385.366
  -6503536.167 8  -5058312.941 6  23117520.786    23117520.786    23117523.422
     -1019.931        -793.271
 05 11 14  0 48  0.0000000  0 12G01G20G14G06G16G25G05G30R18R17R08R07-0.000000025
 -21691162.983 9 -16902210.100 7  20554978.760    20554978.760    20554984.111
       247.987         193.251
  -1195888.118 6   -931846.188 2  24833056.363    24833056.363    24833061.314
      -112.617         -87.727
 -21115620.303 9 -16453735.518 7  21161438.995    21161438.995    21161443.975
     -2386.570       -1859.660
 -19031598.978 9 -14829811.083 7  20985842.933    20985842.933    20985848.456
      -333.782        -260.090
  -8612278.364 8  -6710861.290 5  22549024.126    22549024.126    22549029.678
      2302.735        1794.341
 -19792259.179 9 -15422543.324 7  21254854.276    21254854.276    21254858.626
      1453.932        1132.938
  26719337.129 6         0.000 1  25316077.650    25316077.650           0.000
     -3166.515          -0.000
 -11197688.598 8  -8725484.174 6  22389413.216    22389413.216    22389417.565
     -2849.849       -2220.666
 -21781051.127 9 -16940802.609 7  19875236.383    19875236.383    19875242.055
      2114.756        1644.820
 -11770154.995 8  -9154563.675 5  21945322.355    21945322.355    21945326.537
     -3341.445       -2598.925
   1711560.319 6   1331212.583 6  24624469.802    24624469.802    24624472.037
      1760.026        1368.900
  -6472603.953 8  -5034254.632 6  23123299.919    23123299.919    23123303.013
     -1042.198        -810.589
 05 11 14  0 48 30.0000000  0 12G01G20G14G06G16G25G05G30R18R17R08R07-0.000000023
 -21698319.154 9 -16907786.358 7  20553617.022    20553617.022    20553622.488
       228.707         178.203
  -1192267.554 6   -929024.966 2  24833745.441    24833745.441    24833753.225
      -129.142        -100.614
 -21043799.678 9 -16397771.444 7  21175105.742    21175105.742    21175110.922
     -2401.881       -1871.595
 -19021315.468 9 -14821797.979 7  20987799.896    20987799.896    20987805.219
      -352.172        -274.413
  -8681236.252 8  -6764594.667 5  22535902.174    22535902.174    22535908.412
      2294.010        1787.544
 -19835798.366 9 -15456469.949 7  21246569.104    21246569.104    21246573.597
      1448.262        1128.520
  26814294.778 5         0.000 1  25334148.868    25334148.868           0.000
     -3164.209          -0.000
 -11112148.682 8  -8658829.748 6  22405689.291    22405689.291    22405695.473
     -2853.272       -2223.314
 -21844152.590 9 -16989881.490 7  19863469.773    19863469.773    19863474.356
      2091.621        1626.812
 -11669678.763 8  -9076415.585 5  21964091.817    21964091.817    21964095.426
     -3357.377       -2611.271
   1659062.831 6   1290381.189 5  24614665.623    24614665.623    24614669.862
      1739.245        1352.738
  -6441017.466 8  -5009687.400 6  23129203.559    23129203.559    23129204.705
     -1063.974        -827.529
 05 11 14  0 49  0.0000000  0 12G01G20G14G06G16G25G05G30R18R17R08R07-0.000000021
 -21704894.297 9 -16912909.885 7  20552365.700    20552365.700    20552371.137
       209.156         163.019
  -1188150.374 6   -925816.840 2  24834528.003    24834528.003    24834534.785
      -145.802        -113.622
 -20971519.118 9 -16341448.990 7  21188860.701    21188860.701    21188865.652
     -2417.278       -1883.588
 -19010479.258 9 -14813354.191 7  20989861.942    20989861.942    20989867.494
      -370.692        -288.869
  -8749930.210 8  -6818122.391 5  22522830.435    22522830.435    22522836.646
      2285.104        1780.606
 -19879165.141 9 -15490262.223 7  21238316.619    21238316.619    21238320.969
      1442.382        1123.930
  26909182.861 6         0.000 1  25352206.022    25352206.022           0.000
     -3162.269          -0.000
 -11026507.568 8  -8592096.455 6  22421987.521    22421987.521    22421993.731
     -2856.673       -2225.954
 -21906556.892 9 -17038418.135 7  19851832.687    19851832.687    19851837.443
      2068.231        1608.616
 -11568727.362 7  -8997897.889 5  21982950.815    21982950.815    21982955.169
     -3373.128       -2623.524
   1607183.465 6   1250030.591 5  24604977.093    24604977.093    24604982.479
      1718.690        1336.788
  -6408777.496 8  -4984611.933 6  23135228.565    23135228.565    23135229.080
     -1085.807        -844.519
 05 11 14  0 49 30.0000000  0 12G01G20G14G06G16G25G05G30R18R17R08R07-0.000000023
 -21710894.852 9 -16917585.665 7  20551223.993    20551223.993    20551229.316
       190.250         148.254
  -1183544.657 6   -922228.027 2  24835407.848    24835407.848    24835414.087
      -161.871        -126.113
 -20898787.527 9 -16284775.075 7  21202700.648    21202700.648    21202705.799
     -2432.062       -1895.091
 -18999097.911 9 -14804485.627 7  20992027.714    20992027.714    20992033.295
      -388.638        -302.824
  -8818366.889 8  -6871449.636 5  22509806.440    22509806.440    22509812.192
      2276.751        1774.094
 -19922365.395 9 -15523924.772 7  21230095.960    21230095.960    21230100.510
      1437.027        1119.775
  27003993.543 6         0.000 1  25370247.387    25370247.387           0.000
     -3159.394          -0.000
 -10940773.894 8  -8525291.036 6  22438302.020    22438302.020    22438308.545
     -2859.475       -2228.180
 -21968269.570 9 -17086416.851 7  19840324.266    19840324.266    19840329.479
      2045.340        1590.822
 -11467311.630 8  -8919019.045 5  22001895.978    22001895.978    22001899.129
     -3388.315       -2635.366
   1555916.595 6   1210156.304 5  24595404.422    24595404.422    24595410.208
      1698.420        1321.011
  -6375894.716 8  -4959036.494 6  23141373.804    23141373.804    23141377.127
     -1106.919        -860.912
 05 11 14  0 50  0.0000000  0 12G01G20G14G06G16G25G05G30R18R17R08R07-0.000000023
 -21716314.311 9 -16921808.655 7  20550192.779    20550192.779    20550198.159
       170.733         133.034
  -1178445.845 6   -918254.960 2  24836375.452    24836375.452    24836382.807
      -178.382        -138.994
 -20825601.519 9 -16227747.057 7  21216627.855    21216627.855    21216632.720
     -2447.276       -1906.958
 -18987166.292 9 -14795188.282 7  20994298.296    20994298.296    20994303.876
      -407.132        -317.230
  -8886540.430 8  -6924571.840 5  22496833.922    22496833.922    22496839.416
      2267.861        1767.166
 -19965392.086 9 -15557452.064 7  21221908.299    21221908.299    21221912.878
      1431.101        1115.143
  27098731.773 6         0.000 1  25388272.418    25388272.418           0.000
     -3156.887          -0.000
 -10854943.525 8  -8458410.269 6  22454635.464    22454635.464    22454641.817
     -2862.834       -2230.777
 -22029282.599 9 -17133871.389 7  19828946.436    19828946.436    19828951.306
      2021.817        1572.509
 -11365428.237 8  -8839776.472 5  22020928.767    22020928.767    22020934.497
     -3404.053       -2647.605
   1505270.446 5   1170764.817 5  24585943.846    24585943.846    24585951.122
      1677.720        1304.891
  -6342365.583 8  -4932958.344 6  23147640.099    23147640.099    23147642.907
     -1128.620        -877.817
 05 11 14  0 50 30.0000000  0 12G01G20G14G06G16G25G05G30R18R17R08R07-0.000000024
 -21721152.352 9 -16925578.588 7  20549272.068    20549272.068    20549277.591
       151.590         118.130
  -1172855.172 6   -913898.647 2  24837438.998    24837438.998    24837446.983
      -194.553        -151.608
 -20751963.396 9 -16170366.747 7  21230640.445    21230640.445    21230646.083
     -2462.078       -1918.518
 -18974685.388 9 -14785462.929 7  20996673.192    20996673.192    20996679.259
      -425.194        -331.316
  -8954451.005 8  -6977489.150 5  22483911.805    22483911.805    22483916.756
      2259.320        1760.462
 -20008244.320 9 -15590843.411 7  21213753.985    21213753.985    21213758.163
      1425.507        1110.792
  27193396.573 5         0.000 1  25406290.244    25406290.244           0.000
     -3154.285          -0.000
 -10769018.536 8  -8391455.795 6  22470985.031    22470985.031    22470992.014
     -2865.724       -2233.030
 -22089593.256 9 -17180779.646 7  19817699.723    19817699.723    19817704.421
      1998.634        1554.493
 -11263083.018 8  -8760174.695 5  22040047.652    22040047.652    22040052.178
     -3419.095       -2659.276
   1455245.992 6   1131856.847 5  24576605.228    24576605.228    24576607.634
      1657.079        1288.858
  -6308193.010 8  -4906379.741 6  23154025.202    23154025.202    23154026.863
     -1149.724        -894.221
 05 11 14  0 51  0.0000000  0 12G01G20G14G06G16G25G05G30R18R17R08R07-0.000000024
 -21725405.365 9 -16928892.642 7  20548462.743    20548462.743    20548468.237
       132.556         103.285
  -1166770.381 6   -909157.331 2  24838598.889    24838598.889    24838608.448
      -210.603        -164.096
 -20677872.062 9 -16112633.297 7  21244739.555    21244739.555    21244745.021
     -2476.686       -1929.876
 -18961652.460 9 -14775307.420 7  20999153.067    20999153.067    20999159.220
      -443.062        -345.247
  -9022095.240 8  -7030198.923 5  22471038.928    22471038.928    22471043.707
      2250.918        1753.957
 -20050917.833 9 -15624095.503 7  21205633.213    21205633.213    21205637.449
      1420.022        1106.524
  27287990.096 6         0.000 1  25424289.680    25424289.680           0.000
     -3151.348          -0.000
 -10682997.240 8  -8324426.246 6  22487355.237    22487355.237    22487360.274
     -2868.356       -2235.070
 -22149196.281 9 -17227137.528 7  19806584.821    19806584.821    19806589.233
      1975.524        1536.544
 -11160276.703 7  -8680214.291 5  22059253.023    22059253.023    22059258.638
     -3433.914       -2670.794
   1405848.364 6   1093436.443 5  24567379.276    24567379.276    24567382.828
      1636.751        1273.017
  -6273376.043 8  -4879299.946 6  23160531.736    23160531.736    23160534.028
     -1170.730        -910.583
 05 11 14  0 51 30.0000000  0 12G01G20G14G06G16G25G05G30R18R17R08R07-0.000000020
 -21729071.562 9 -16931749.441 7  20547765.102    20547765.102    20547770.511
       112.582          87.713
  -1160191.696 6   -904031.094 2  24839849.737    24839849.737    24839857.264
      -227.305        -177.101
 -20603328.752 9 -16054547.636 7  21258924.593    21258924.593    21258930.174
     -2492.147       -1941.935
 -18948067.211 9 -14764721.521 7  21001738.637    21001738.637    21001744.332
      -461.902        -359.918
  -9089471.908 8  -7082700.229 6  22458217.894    22458217.894    22458221.986
      2241.566        1746.676
 -20093410.326 9 -15657206.549 7  21197547.191    21197547.191    21197551.455
      1413.535        1101.478
  27382513.016 5         0.000 1  25442276.260    25442276.260           0.000
     -3149.475          -0.000
 -10596880.093 8  -8257322.034 6  22503742.043    22503742.043    22503748.425
     -2872.025       -2237.922
 -22208088.377 9 -17272942.471 7  19795601.879    19795601.879    19795607.608
      1951.370        1517.737
 -11057011.779 8  -8599897.212 5  22078544.650    22078544.650    22078549.921
     -3449.648       -2683.052
   1357081.254 5   1055506.439 5  24558271.415    24558271.415    24558277.488
      1615.289        1256.321
  -6237917.438 7  -4851721.109 6  23167157.341    23167157.341    23167159.002
     -1192.525        -927.524
 05 11 14  0 52  0.0000000  0 12G01G20G14G06G16G25G05G30R18R17R08R07-0.000000018
 -21732155.576 9 -16934152.584 7  20547178.211    20547178.211    20547183.792
        93.140          72.568
  -1153125.440 6   -898524.969 3  24841196.610    24841196.610    24841205.854
      -243.594        -189.798
 -20528340.632 9 -15996115.395 7  21273194.470    21273194.470    21273199.850
     -2506.950       -1953.472
 -18933935.192 9 -14753709.560 7  21004427.939    21004427.939    21004433.520
      -480.093        -374.123
  -9156586.114 8  -7134997.008 6  22445446.023    22445446.023    22445451.890
      2232.823        1739.869
 -20135725.727 9 -15690179.580 7  21189495.115    21189495.115    21189498.949
      1407.599        1096.842
  27476959.188 5         0.000 1  25460255.089           0.000           0.000
     -3146.403          -0.000
 -10510673.977 8  -8190148.491 6  22520147.917    22520147.917    22520152.611
     -2874.932       -2240.218
 -22266272.908 9 -17318197.057 7  19784752.005    19784752.005    19784757.218
      1927.747        1499.343
 -10953298.266 8  -8519231.214 5  22097917.799    22097917.799    22097922.497
     -3464.473       -2694.599
   1308940.301 5   1018063.481 4  24549281.213    24549281.213    24549288.718
      1594.304        1240.101
  -6201823.638 8  -4823648.216 6  23173902.819    23173902.819    23173904.939
     -1213.628        -943.931
 05 11 14  0 52 30.0000000  0 12G01G20G14G06G16G25G05G30R18R17R08R07-0.000000020
 -21734661.509 9 -16936105.266 7  20546701.329    20546701.329    20546706.910
        74.147          57.768
  -1145577.200 6   -892643.255 2  24842630.526    24842630.526    24842641.201
      -259.370        -202.085
 -20452914.493 9 -15937341.820 7  21287547.342    21287547.342    21287552.894
     -2521.233       -1964.595
 -18919261.755 9 -14742275.714 7  21007219.899    21007219.899    21007225.823
      -497.888        -387.967
  -9223441.989 8  -7187092.486 6  22432723.774    22432723.774    22432729.870
      2224.485        1733.384
 -20177867.476 9 -15723017.301 7  21181475.743    21181475.743    21181480.093
      1402.066        1092.519
  27571323.441 5         0.000 1  25478216.818           0.000           0.000
     -3143.948          -0.000
 -10424384.923 8  -8122910.327 6  22536567.210    22536567.210    22536573.707
     -2877.425       -2242.160
 -22323752.019 9 -17362903.006 7  19774032.728    19774032.728    19774037.942
      1904.439        1481.237
 -10849145.445 8  -8438223.532 5  22117375.739    22117375.739    22117377.629
     -3478.853       -2705.755
   1261423.381 5    981105.861 5  24540407.457    24540407.457    24540412.957
      1573.703        1224.022
  -6165102.831 7  -4795087.659 6  23180764.487    23180764.487    23180768.211
     -1234.077        -959.846
 05 11 14  0 53  0.0000000  0 12G01G20G14G06G16G25G05G30R18R17R08R07-0.000000020
 -21736581.784 9 -16937601.597 7  20546335.873    20546335.873    20546341.368
        54.244          42.305
  -1137540.965 6   -886381.296 2  24844161.371    24844161.371    24844169.155
      -275.993        -215.051
 -20377045.206 9 -15878222.955 7  21301985.303    21301985.303    21301990.082
     -2536.308       -1976.350
 -18904040.395 9 -14730414.887 7  21010116.762    21010116.762    21010122.314
      -516.462        -402.431
  -9290032.621 8  -7238981.271 6  22420051.717    22420051.717    22420056.811
      2215.294        1726.212
 -20219827.014 9 -15755713.057 7  21173490.896    21173490.896    21173495.647
      1395.642        1087.517
  27665612.074 5         0.000 1  25496146.814           0.000           0.000
     -3141.757          -0.000
 -10338007.352 8  -8055603.188 6  22553005.598    22553005.598    22553010.978
     -2880.697       -2244.704
 -22380516.046 9 -17407052.756 7  19763447.732    19763447.732    19763452.716
      1880.238        1462.388
 -10744549.611 8  -8356871.329 5  22136914.345    22136914.345    22136921.735
     -3493.866       -2717.446
   1214539.477 5    944640.583 5  24531655.214    24531655.214    24531658.594
      1552.129        1207.170
  -6127749.889 7  -4766035.454 6  23187745.213    23187745.213    23187748.192
     -1255.545        -976.524
 05 11 14  0 53 30.0000000  0 11G01G20G14G06G16G25G30R18R17R08R07   -0.000000018
 -21737913.447 9 -16938639.274 7  20546082.316    20546082.316    20546087.982
        34.592          26.947
  -1129015.447 6   -879738.062 2  24845782.647    24845782.647    24845788.571
      -292.284        -227.747
 -20300732.734 9 -15818758.745 7  21316507.054    21316507.054    21316511.748
     -2551.081       -1987.849
 -18888269.522 9 -14718125.876 7  21013117.902    21013117.902    21013123.054
      -534.855        -416.799
  -9356355.232 8  -7290661.178 6  22407430.754    22407430.754    22407436.678
      2206.270        1719.169
 -20261600.677 9 -15788263.955 7  21165541.848    21165541.848    21165546.227
      1389.355        1082.621
 -10251540.540 8  -7988226.513 6  22569458.327    22569458.327    22569463.736
     -2883.692       -2247.065
 -22436561.319 9 -17450643.495 7  19752996.203    19752996.203    19753000.958
      1856.189        1443.691
 -10639514.036 8  -8275177.052 5  22156537.695    22156537.695    22156539.414
     -3508.434       -2728.771
   1168292.316 6    908670.435 5  24523019.051    24523019.051    24523022.145
      1530.910        1190.693
  -6089766.278 7  -4736492.738 6  23194842.377    23194842.377    23194846.158
     -1276.586        -992.898
 05 11 14  0 54  0.0000000  0 12G01G20G14G06G16G25G05G30R18R17R08R07-0.000000017
 -21738659.102 9 -16939220.314 7  20545940.495    20545940.495    20545945.933
        14.811          11.543
  -1120004.879 6   -872716.913 2  24847498.509    24847498.509    24847506.608
      -308.711        -240.559
 -20223982.320 9 -15758953.294 7  21331112.373    21331112.373    21331117.210
     -2565.936       -1999.422
 -18871952.873 9 -14705411.591 7  21016222.501    21016222.501    21016228.138
      -553.250        -431.132
  -9422412.868 8  -7342134.608 6  22394861.486    22394861.486    22394866.208
      2197.225        1712.140
 -20303190.544 9 -15820671.648 7  21157627.210    21157627.210    21157631.732
      1382.965        1077.647
  27853964.582 5         0.000 1  25531992.699           0.000           0.000
     -3136.852          -0.000
 -10164988.988 8  -7920783.792 6  22585929.778    22585929.778    22585935.444
     -2886.740       -2249.401
 -22491888.493 9 -17493675.701 7  19742678.567    19742678.567    19742683.551
      1832.019        1424.920
 -10534044.798 7  -8193145.521 5  22176239.055    22176239.055    22176243.352
     -3523.110       -2740.209
   1122680.591 6    873194.625 6  24514500.649    24514500.649    24514504.488
      1509.426        1173.997
  -6051156.800 7  -4706463.216 6  23202059.268    23202059.268    23202061.101
     -1297.687       -1009.309
 05 11 14  0 54 30.0000000  0 13G21G01G20G14G06G16G25G05G30R18R17R08-0.000000015
                                R07
   1286002.084 6         0.000 1  25717898.360           0.000           0.000
      2242.951          -0.000
 -21738818.215 9 -16939344.306 7  20545910.206    20545910.206    20545915.958
        -4.098          -3.196
  -1110510.509 6   -865318.730 2  24849304.685    24849304.685    24849313.328
      -324.123        -252.571
 -20146796.031 9 -15698808.182 7  21345800.270    21345800.270    21345805.250
     -2579.718       -2010.161
 -18855091.089 9 -14692272.531 7  21019431.274    21019431.274    21019437.112
      -570.753        -444.758
  -9488205.456 8  -7393401.499 6  22382340.979    22382340.979    22382346.502
      2189.075        1705.756
 -20344595.450 9 -15852935.218 7  21149748.056    21149748.056    21149752.578
      1377.445        1073.356
  27948023.890 5         0.000 1  25549890.556           0.000           0.000
     -3134.055          -0.000
 -10078354.215 8  -7853276.257 6  22602415.438    22602415.438    22602421.963
     -2888.787       -2251.021
 -22546495.498 9 -17536147.791 7  19732495.697    19732495.697    19732500.567
      1808.582        1406.684
 -10428145.971 8  -8110779.887 5  22196022.815    22196022.815    22196026.481
     -3536.626       -2750.694
   1077706.257 6    838214.536 6  24506101.925    24506101.925    24506106.681
      1488.943        1158.072
  -6011925.071 7  -4675949.732 6  23209389.058    23209389.058    23209392.439
     -1317.689       -1024.885
 05 11 14  0 55  0.0000000  0 13G21G01G20G14G06G16G25G05G30R18R17R08-0.000000019
                                R07
   1218657.344 6         0.000 1  25705085.096           0.000           0.000
      2246.019          -0.000
 -21738399.903 9 -16939018.357 7  20545989.787    20545989.787    20545995.597
       -24.264         -18.902
  -1100542.953 6   -857551.878 2  24851200.860    24851200.860    24851213.424
      -340.783        -265.563
 -20069185.566 9 -15638332.556 7  21360569.552    21360569.552    21360574.160
     -2594.778       -2021.904
 -18837694.433 9 -14678716.685 7  21022741.349    21022741.349    21022747.187
      -589.436        -459.293
  -9553742.167 8  -7444469.000 6  22369869.489    22369869.489    22369874.669
      2179.586        1698.378
 -20385823.527 9 -15885061.021 7  21141902.978    21141902.978    21141906.985
      1370.642        1068.022
  28041994.742 5         0.000 1  25567773.377           0.000           0.000
     -3131.081          -0.000
  -9991647.253 8  -7785712.447 6  22618915.909    22618915.909    22618920.802
     -2892.100       -2253.541
 -22600389.861 9 -17578065.585 7  19722444.842    19722444.842    19722450.056
      1783.924        1387.502
 -10321831.940 8  -8028091.322 5  22215882.020    22215882.020    22215884.999
     -3551.455       -2762.242
   1033361.378 6    803723.996 6  24497821.361    24497821.361    24497825.773
      1466.947        1140.927
  -5972083.173 8  -4644961.670 6  23216836.851    23216836.851    23216838.340
     -1338.901       -1041.341
 05 11 14  0 55 30.0000000  0 12G21G01G20G14G06G16G25G30R18R17R08R07-0.000000016
   1151210.047 6    897048.157 1  25692249.055           0.000    25692248.769
      2250.311        1753.269
 -21737383.845 9 -16938226.633 7  20546183.130    20546183.130    20546188.911
       -43.486         -33.894
  -1090083.728 6   -849401.856 2  24853189.113    24853189.113    24853201.676
      -356.471        -277.756
 -19991133.219 9 -15577512.606 7  21375422.365    21375422.365    21375427.030
     -2608.779       -2032.828
 -18819743.823 9 -14664729.188 7  21026157.404    21026157.404    21026163.214
      -607.224        -473.163
  -9619002.908 8  -7495321.446 6  22357451.180    22357451.180    22357456.589
      2171.146        1691.795
 -20426853.590 9 -15917032.506 7  21134094.982    21134094.982    21134099.418
      1364.693        1063.417
  -9904849.613 8  -7718078.016 6  22635431.909    22635431.909    22635439.292
     -2894.388       -2255.368
 -22653549.740 9 -17619412.132 7  19712531.947    19712531.947    19712536.416
      1760.112        1368.975
 -10215086.519 7  -7945067.204 5  22235823.436    22235823.436    22235828.421
     -3564.992       -2772.779
    989668.126 6    769740.280 6  24489661.644    24489661.644    24489667.488
      1445.950        1124.622
  -5931613.781 7  -4613485.540 6  23224399.425    23224399.425    23224400.858
     -1358.996       -1056.974
 05 11 14  0 56  0.0000000  0 12G21G01G20G14G06G16G25G30R18R17R08R07-0.000000018
   1083644.909 6         0.000 1  25679392.698    25679392.698           0.000
      2253.528          -0.000
 -21735787.507 9 -16936982.731 7  20546486.937    20546486.937    20546492.603
       -63.260         -49.301
  -1079151.567 6   -840883.286 2  24855271.092    24855271.092    24855278.161
      -372.688        -290.392
 -19912659.108 9 -15516364.004 7  21390355.147    21390355.147    21390360.184
     -2623.213       -2044.037
 -18801257.702 9 -14650324.422 7  21029675.376    21029675.376    21029681.443
      -625.465        -487.386
  -9684005.596 8  -7545972.806 6  22345080.929    22345080.929    22345086.395
      2162.077        1684.756
 -20467701.852 9 -15948862.341 7  21126321.900    21126321.900    21126326.794
      1358.209        1058.337
  -9817980.587 8  -7650387.936 6  22651963.257    22651963.257    22651968.037
     -2897.188       -2257.518
 -22705990.193 9 -17660199.137 7  19702751.989    19702751.989    19702756.916
      1735.606        1349.944
 -10107930.147 8  -7861723.468 5  22255842.142    22255842.142    22255844.663
     -3578.962       -2783.636
    946609.157 6    736249.916 6  24481619.238    24481619.238    24481624.051
      1424.157        1107.674
  -5890537.773 7  -4581537.602 6  23232075.063    23232075.063    23232077.069
     -1379.613       -1073.027
 05 11 14  0 56 30.0000000  0 12G21G01G20G14G06G16G25G30R18R17R08R07-0.000000014
   1015981.096 7         0.000 1  25666514.460    25666514.460           0.000
      2257.655          -0.000
 -21733593.623 9 -16935273.219 7  20546904.369    20546904.369    20546910.121
       -82.576         -64.334
  -1067731.063 6   -831984.236 2  24857446.972    24857446.972    24857447.201
      -388.345        -302.596
 -19833748.582 8 -15454875.345 7  21405371.620    21405371.620    21405376.943
     -2637.099       -2054.864
 -18782220.060 9 -14635489.897 7  21033297.892    21033297.892    21033304.159
      -643.222        -501.213
  -9748733.117 8  -7596409.745 6  22332764.145    22332764.145    22332770.069
      2153.523        1678.064
 -20508350.352 9 -15980536.515 7  21118586.839    21118586.839    21118591.390
      1352.130        1053.630
  -9731024.806 8  -7582630.243 6  22668509.057    22668509.057    22668515.925
     -2899.413       -2259.287
 -22757693.006 9 -17700412.424 7  19693111.070    19693111.070    19693115.539
      1711.664        1331.312
 -10000351.789 8  -7778051.526 5  22275938.227    22275938.227    22275941.665
     -3592.465       -2794.128
    904203.795 6    703267.946 6  24473701.608    24473701.608    24473707.681
      1403.144        1091.343
  -5848840.968 7  -4549106.810 6  23239866.587    23239866.587    23239869.280
     -1399.672       -1088.628
 05 11 14  0 57  0.0000000  0 12G21G01G20G14G06G16G25G30R18R17R08R07-0.000000017
    948201.220 6    738860.100 2  25653616.230    25653616.230    25653633.287
      2260.802        1762.105
 -21730821.652 9 -16933113.235 7  20547431.955    20547431.955    20547437.707
      -102.353         -79.760
  -1055843.204 6   -822721.087 2  24859706.736    24859706.736    24859715.350
      -404.375        -315.105
 -19754423.820 8 -15393063.880 7  21420466.148    21420466.148    21420471.757
     -2651.340       -2065.967
 -18762651.586 9 -14620241.741 7  21037021.582    21037021.582    21037027.678
      -661.397        -515.377
  -9813205.395 8  -7646647.808 6  22320495.671    22320495.671    22320500.336
      2144.507        1671.029
 -20548818.004 9 -16012069.778 7  21110885.973    21110885.973    21110890.780
      1345.527        1048.462
  -9644003.451 8  -7514821.505 6  22685068.961    22685068.961    22685076.087
     -2902.086       -2261.338
 -22808676.533 9 -17740066.280 7  19683603.082    19683603.082    19683607.952
      1687.129        1312.209
  -9892375.693 8  -7694070.179 5  22296109.571    22296109.571    22296114.039
     -3606.137       -2804.794
    862433.078 6    670779.572 6  24465901.099    24465901.099    24465904.136
      1381.401        1074.447
  -5806546.369 7  -4516211.071 6  23247769.949    23247769.949    23247773.501
     -1420.104       -1104.525
 05 11 14  0 57 30.0000000  0 12G21G01G20G14G06G16G25G30R18R17R08R07-0.000000014
    880324.968 6    685969.780 2  25640697.242    25640697.242    25640716.330
      2264.387        1764.437
 -21727454.404 9 -16930489.415 7  20548072.645    20548072.645    20548078.369
      -121.729         -94.837
  -1043472.340 6   -813081.466 2  24862061.951    24862061.951    24862071.309
      -419.936        -327.228
 -19674670.373 9 -15330918.383 7  21435643.230    21435643.230    21435648.410
     -2665.148       -2076.734
 -18742536.115 9 -14604567.365 7  21040849.478    21040849.478    21040855.574
      -679.183        -529.229
  -9877405.495 8  -7696673.789 6  22308278.429    22308278.429    22308283.379
      2135.926        1664.355
 -20589086.089 9 -16043447.520 7  21103223.166    21103223.166    21103227.888
      1339.383        1043.665
  -9556901.192 8  -7446949.675 5  22701643.822    22701643.822    22701650.604
     -2904.277       -2263.067
 -22858922.143 9 -17779146.181 7  19674233.383    19674233.383    19674238.310
      1662.952        1293.417
  -9783986.707 7  -7609767.725 5  22316357.076    22316357.076    22316362.462
     -3619.285       -2814.974
    821316.588 6    638800.101 6  24458223.286    24458223.286    24458227.296
      1360.170        1057.900
  -5763639.890 7  -4482839.427 6  23255788.881    23255788.881    23255791.402
     -1439.837       -1119.876
 05 11 14  0 58  0.0000000  0 12G21G01G20G14G06G16G25G30R18R17R08R07-0.000000014
    812346.664 6         0.000 1  25627763.304    25627763.304           0.000
      2267.508          -0.000
 -21723499.406 9 -16927407.603 7  20548825.196    20548825.196    20548831.034
      -141.798        -110.497
  -1030627.784 6   -803072.703 2  24864505.858    24864505.858    24864510.609
      -436.252        -339.939
 -19594497.794 8 -15268446.286 7  21450899.648    21450899.648    21450905.115
     -2679.549       -2087.981
 -18721882.457 9 -14588473.615 7  21044780.013    21044780.013    21044785.594
      -697.595        -543.590
  -9941341.001 8  -7746493.600 6  22296112.351    22296112.351    22296117.216
      2126.585        1657.074
 -20629161.388 9 -16074675.053 7  21095597.319    21095597.319    21095601.555
      1332.418        1038.263
  -9469727.200 8  -7379021.987 6  22718233.146    22718233.146    22718239.699
     -2907.144       -2265.303
 -22908435.037 9 -17817656.212 7  19665000.406    19665000.406    19665004.932
      1638.011        1274.013
  -9675198.529 8  -7525154.738 5  22336681.388    22336681.388    22336684.997
     -3633.121       -2825.750
    780846.982 6    607323.616 6  24450665.585    24450665.585    24450669.366
      1338.089        1040.717
  -5720132.241 7  -4449000.205 6  23263920.553    23263920.553    23263922.386
     -1460.388       -1135.840
 05 11 14  0 58 30.0000000  0 12G21G01G20G14G06G16G25G30R18R17R08R07-0.000000015
    744265.361 7    579949.986 2  25614807.204    25614807.204    25614816.276
      2270.447        1769.139
 -21718959.638 9 -16923870.126 7  20549689.335    20549689.335    20549695.174
      -161.599        -125.946
  -1017313.957 7   -792698.368 3  24867040.676    24867040.676    24867044.311
      -452.221        -352.322
 -19513911.686 9 -15205651.971 7  21466234.388    21466234.388    21466240.112
     -2693.609       -2098.896
 -18700694.549 9 -14571963.581 7  21048811.708    21048811.708    21048817.432
      -715.721        -557.701
 -10005014.798 8  -7796109.476 6  22283994.525    22283994.525    22284000.105
      2117.578        1650.064
 -20669045.577 9 -16105753.670 7  21088007.497    21088007.497    21088011.990
      1325.742        1033.038
  -9382486.154 8  -7311042.021 6  22734833.726    22734833.726    22734840.794
     -2909.687       -2267.273
 -22957216.331 9 -17855597.207 7  19655903.060    19655903.060    19655908.217
      1613.276        1254.790
  -9566018.510 7  -7440237.020 5  22357075.257    22357075.257    22357079.898
     -3646.371       -2836.081
    741022.758 6    576349.116 6  24443230.367    24443230.367    24443233.633
      1316.160        1023.718
  -5676030.029 7  -4414698.551 6  23272161.147    23272161.147    23272162.981
     -1480.472       -1151.451
 05 11 14  0 59  0.0000000  0 12G21G01G20G14G06G16G25G30R18R17R08R07-0.000000014
    676094.643 7    526830.286 2  25601834.546    25601834.546    25601847.710
      2273.690        1771.675
 -21713824.004 9 -16919868.348 7  20550666.532    20550666.532    20550672.399
      -181.263        -141.242
  -1003521.325 6   -781950.915 2  24869663.269    24869663.269    24869673.114
      -467.874        -364.543
 -19432903.578 9 -15142528.809 7  21481650.006    21481650.006    21481655.615
     -2707.416       -2109.676
 -18678962.555 9 -14555029.566 7  21052947.277    21052947.277    21052953.029
      -733.607        -571.630
 -10068416.202 8  -7845513.122 6  22271930.051    22271930.051    22271935.202
      2108.685        1643.125
 -20708726.728 9 -16136674.053 7  21080456.295    21080456.295    21080460.932
      1319.172        1027.930
  -9295168.647 8  -7243002.496 5  22751450.605    22751450.605    22751457.216
     -2911.957       -2269.069
 -23005253.935 9 -17892959.762 7  19646945.441    19646945.441    19646950.368
      1588.679        1235.638
  -9456441.402 8  -7355010.439 5  22377547.047    22377547.047    22377552.376
     -3659.220       -2846.072
    701856.294 6    545886.253 6  24435914.241    24435914.241    24435919.283
      1294.438        1006.781
  -5631325.382 7  -4379928.333 6  23280512.537    23280512.537    23280517.235
     -1500.323       -1166.898
 05 11 14  0 59 30.0000000  0 12G21G01G20G14G06G16G25G30R18R17R08R07-0.000000011
    607831.834 7    473638.864 2  25588845.180    25588845.180    25588855.769
      2277.058        1774.290
 -21708097.293 9 -16915405.980 7  20551756.345    20551756.345    20551761.983
      -200.608        -156.305
   -989256.558 7   -770835.559 2  24872379.430    24872379.430    24872387.100
      -483.169        -376.495
 -19351481.072 9 -15079082.740 7  21497144.144    21497144.144    21497149.353
     -2720.853       -2120.143
 -18656692.420 9 -14537676.223 7  21057185.635    21057185.635    21057190.643
      -751.160        -585.313
 -10131550.243 8  -7894708.430 6  22259915.959    22259915.959    22259921.225
      2100.136        1636.461
 -20748208.483 9 -16167439.083 7  21072943.332    21072943.332    21072948.083
      1312.869        1022.982
  -9207781.116 8  -7174908.381 6  22768080.092    22768080.092    22768086.875
     -2913.892       -2270.561
 -23052551.451 9 -17929746.706 7  19638124.494    19638124.494    19638129.364
      1564.319        1216.705
  -9346476.084 7  -7269481.905 5  22398089.208    22398089.208    22398094.537
     -3671.966       -2855.968
    663343.998 6    515932.190 6  24428724.100    24428724.100    24428727.366
      1272.964         990.121
  -5586025.951 7  -4344695.469 6  23288981.771    23288981.771    23288981.542
     -1519.781       -1182.032
 05 11 14  1  0  0.0000000  0 12G21G01G20G14G06G16G25G30R18R17R08R07-0.000000012
    539471.848 7    420371.813 2  25575837.081    25575837.081    25575854.795
      2280.332        1776.853
 -21701786.729 9 -16910488.658 7  20552957.083    20552957.083    20552962.864
      -220.103        -171.478
   -974528.269 6   -759358.948 2  24875181.085    24875181.085    24875190.729
      -498.741        -388.637
 -19269653.631 9 -15015321.160 7  21512715.303    21512715.303    21512720.855
     -2734.333       -2130.638
 -18633892.446 9 -14519909.999 7  21061524.289    21061524.289    21061529.555
      -768.842        -599.111
 -10194424.180 8  -7943701.077 6  22247951.978    22247951.978    22247956.872
      2091.446        1629.683
 -20787496.890 9 -16198053.456 7  21065466.828    21065466.828    21065471.665
      1306.351        1017.942
  -9120332.250 8  -7106766.526 5  22784721.008    22784721.008    22784727.647
     -2915.997       -2272.204
 -23099114.423 9 -17965962.323 7  19629441.848    19629441.848    19629446.431
      1539.805        1197.618
  -9236132.023 7  -7183658.814 5  22418701.455    22418701.455    22418706.497
     -3684.421       -2865.664
    625479.150 6    486481.751 6  24421651.679    24421651.679    24421655.461
      1251.408         973.306
  -5540142.877 7  -4309008.691 6  23297554.562    23297554.562    23297556.682
     -1539.170       -1197.137
 05 11 14  1  0 30.0000000  0 12G21G01G20G14G06G16G25G30R18R17R08R07-0.000000013
    471027.918 6    367039.315 2  25562811.431    25562811.431    25562820.446
      2282.658        1778.669
 -21694881.723 9 -16905108.134 7  20554271.136    20554271.136    20554276.860
      -240.180        -187.151
   -959327.563 6   -747514.305 2  24878071.927    24878071.927    24878085.550
      -514.671        -401.047
 -19187413.191 9 -14951237.743 7  21528365.249    21528365.249    21528370.457
     -2748.311       -2141.521
 -18610553.199 9 -14501723.576 7  21065965.921    21065965.921    21065971.015
      -787.062        -613.319
 -10257027.424 8  -7992482.805 6  22236037.879    22236037.879    22236044.633
      2082.142        1622.454
 -20826580.060 9 -16228507.887 7  21058029.570    21058029.570    21058034.635
      1299.220        1012.365
  -9032813.132 8  -7038569.882 5  22801375.567    22801375.567    22801381.949
     -2918.512       -2274.176
 -23144930.689 9 -18001597.169 7  19620897.167    19620897.167    19620903.125
      1514.673        1178.100
  -9125403.328 7  -7097536.554 5  22439387.029    22439387.029    22439388.862
     -3697.179       -2875.559
    588274.603 6    457544.867 6  24414704.420    24414704.420    24414710.035
      1228.987         955.902
  -5493668.534 7  -4272862.035 6  23306238.589    23306238.589    23306240.651
     -1558.971       -1212.539
 05 11 14  1  1  0.0000000  0 12G21G01G20G14G06G16G25G30R18R17R08R07-0.000000013
    402495.736 7    313638.192 3  25549769.322    25549769.322    25549781.256
      2286.376        1781.547
 -21687388.612 9 -16899269.349 7  20555697.210    20555697.210    20555702.848
      -259.014        -201.863
   -943662.239 6   -735307.614 2  24881054.269    24881054.269    24881062.596
      -529.258        -412.422
 -19104768.778 9 -14886839.545 7  21544092.283    21544092.283    21544097.749
     -2760.999       -2151.443
 -18586682.026 9 -14483122.669 7  21070507.693    21070507.693    21070513.732
      -804.013        -626.535
 -10319366.348 8  -8041058.553 6  22224174.611    22224174.611    22224180.334
      2074.117        1616.185
 -20865463.468 9 -16258806.667 7  21050630.689    21050630.689    21050635.440
      1293.335        1007.805
  -8945231.606 8  -6970324.632 5  22818041.466    22818041.466    22818048.878
     -2919.831       -2275.240
 -23190005.688 9 -18036655.457 7  19612492.431    19612492.431    19612496.957
      1490.690        1159.433
  -9014301.663 7  -7011124.217 5  22460140.189    22460140.189    22460144.944
     -3708.845       -2884.593
    551724.534 6    429117.010 6  24407879.677    24407879.677    24407883.344
      1207.947         939.551
  -5446612.883 7  -4236263.260 6  23315032.579    23315032.579    23315033.495
     -1577.581       -1227.012
 05 11 14  1  1 30.0000000  0 12G21G01G20G14G06G16G25G30R18R17R08R07-0.000000016
    333878.966 7    260171.152 2  25536711.328    25536711.328    25536723.948
      2288.616        1783.335
 -21679306.266 9 -16892971.432 7  20557235.068    20557235.068    20557240.935
      -279.291        -217.629
   -927532.751 7   -722739.180 3  24884125.476    24884125.476    24884130.684
      -545.360        -424.970
 -19021721.726 9 -14822127.620 7  21559895.560    21559895.560    21559901.255
     -2774.980       -2162.313
 -18562278.994 9 -14464107.331 7  21075151.154    21075151.154    21075157.249
      -822.326        -640.767
 -10381440.032 8  -8089427.642 6  22212363.306    22212363.306    22212368.028
      2064.644        1608.799
 -20904144.724 9 -16288947.924 7  21043269.776    21043269.776    21043274.441
      1285.921        1002.010
  -8857587.831 8  -6902030.853 5  22834720.187    22834720.187    22834726.683
     -2922.597       -2277.372
 -23234336.047 9 -18071134.581 7  19604225.594    19604225.594    19604229.719
      1465.175        1139.573
  -8902829.128 7  -6924423.444 4  22480965.336    22480965.336    22480968.430
     -3721.970       -2894.859
    515831.151 6    401199.858 6  24401175.473    24401175.473    24401180.056
      1185.355         921.917
  -5398977.981 7  -4199213.997 6  23323934.326    23323934.326    23323935.414
     -1597.414       -1242.413
 05 11 14  1  2  0.0000000  0 12G21G01G20G14G06G16G25G30R18R17R08R07-0.000000015
    265184.117 7    206643.286 2  25523637.524    25523637.524    25523655.954
      2290.835        1785.023
 -21670630.630 9 -16886211.200 7  20558886.015    20558886.015    20558891.825
      -299.365        -233.265
   -910936.386 7   -709806.974 3  24887282.518    24887282.518    24887289.730
      -561.254        -437.289
 -18938270.147 9 -14757100.470 7  21575775.824    21575775.824    21575781.175
     -2788.704       -2173.020
 -18537340.853 9 -14444675.032 7  21079896.836    21079896.836    21079902.416
      -840.421        -654.864
 -10443244.418 8  -8137586.896 6  22200602.320    22200602.320    22200607.957
      2055.410        1601.603
 -20942618.363 9 -16318927.434 7  21035948.252    21035948.252    21035953.031
      1278.683         996.386
  -8769879.349 8  -6833686.658 5  22851410.456    22851410.456    22851417.182
     -2924.916       -2279.198
 -23277916.664 9 -18105030.573 7  19596098.221    19596098.221    19596102.690
      1439.905        1119.940
  -8790986.527 7  -6837434.840 5  22501857.548    22501857.548    22501861.731
     -3734.456       -2904.596
    480600.095 6    373797.898 6  24394597.331    24394597.331    24394600.597
      1163.064         904.625
  -5350762.145 7  -4161712.879 6  23332945.312    23332945.312    23332948.005
     -1617.035       -1257.704
 05 11 14  1  2 30.0000000  0 12G21G01G20G14G06G16G25G30R18R17R08R07-0.000000010
    196417.889 7    153059.670 3  25510552.531    25510552.531    25510563.435
      2293.655        1787.266
 -21661357.445 9 -16878985.354 7  20560650.750    20560650.750    20560656.560
      -318.813        -248.415
   -893870.565 6   -696508.941 2  24890530.247    24890530.247    24890535.856
      -576.384        -449.138
 -18854412.073 9 -14691756.567 7  21591733.518    21591733.518    21591738.755
     -2801.731       -2183.169
 -18511864.798 9 -14424823.578 7  21084744.865    21084744.865    21084750.532
      -857.905        -668.494
 -10504775.284 8  -8185533.011 6  22188892.454    22188892.454    22188898.436
      2046.770        1594.875
 -20980878.726 9 -16348740.712 7  21028667.747    21028667.747    21028672.212
      1272.053         991.191
  -8682103.019 8  -6765289.622 6  22868114.569    22868114.569    22868120.350
     -2926.721       -2280.558
 -23320741.411 9 -18138338.659 7  19588112.611    19588112.611    19588117.252
      1415.193        1100.693
  -8678774.061 8  -6750158.524 5  22522822.098    22522822.098    22522825.192
     -3746.177       -2913.726
    446036.988 7    346915.395 6  24388143.567    24388143.567    24388147.234
      1141.262         887.654
  -5301965.273 7  -4123759.849 6  23342064.800    23342064.800    23342065.774
     -1635.897       -1272.362
 05 11 14  1  3  0.0000000  0 12G21G01G20G14G06G16G25G30R18R17R08R07-0.000000012
    127565.303 7     99408.665 2  25497450.172    25497450.172    25497462.449
      2296.570        1789.534
 -21651503.495 9 -16871306.955 7  20562525.839    20562525.839    20562531.534
      -338.040        -263.407
   -876353.788 7   -682859.543 3  24893865.327    24893865.327    24893872.968
      -591.260        -460.731
 -18770167.100 8 -14626111.187 7  21607764.646    21607764.646    21607770.198
     -2814.496       -2193.094
 -18485868.541 9 -14404566.772 7  21089692.262    21089692.262    21089697.413
      -875.100        -681.884
 -10566049.417 8  -8233279.053 6  22177232.604    22177232.604    22177238.499
      2038.285        1588.266
 -21018941.301 9 -16378399.892 7  21021424.694    21021424.694    21021429.358
      1265.544         986.157
  -8594277.438 8  -6696854.213 5  22884827.219    22884827.219    22884833.229
     -2928.209       -2281.744
 -23362826.166 9 -18171071.198 7  19580264.358    19580264.358    19580269.171
      1390.573        1081.548
  -8566213.495 7  -6662611.510 5  22543847.069    22543847.069    22543855.090
     -3757.711       -2922.679
    412125.997 7    320540.162 6  24381809.565    24381809.565    24381811.570
      1119.570         870.812
  -5252608.065 7  -4085371.016 6  23351287.821    23351287.821    23351290.685
     -1654.475       -1286.827
 05 11 14  1  3 30.0000000  0 12G21G01G20G14G06G16G25G30R18R17R08R07-0.000000013
     58639.705 6     45700.700 2  25484332.841    25484332.841    25484341.713
      2298.616        1791.109
 -21641058.019 9 -16863167.637 7  20564513.521    20564513.521    20564519.158
      -358.089        -279.031
   -858377.032 7   -668851.719 3  24897286.323    24897286.323    24897293.736
      -606.919        -472.937
 -18685526.901 8 -14560157.822 7  21623871.241    21623871.241    21623877.079
     -2827.962       -2203.616
 -18459342.543 9 -14383897.181 7  21094740.054    21094740.054    21094745.234
      -893.079        -695.890
 -10627056.055 8  -8280816.652 6  22165623.115    22165623.115    22165629.211
      2029.066        1581.086
 -21056794.180 9 -16407895.661 7  21014221.518    21014221.518    21014226.297
      1258.201         980.412
  -8506393.089 8  -6628373.001 5  22901550.845    22901550.845    22901557.255
     -2930.477       -2283.475
 -23404158.718 9 -18203218.691 7  19572556.678    19572556.678    19572561.089
      1365.181        1061.784
  -8453295.998 7  -6574786.844 5  22564942.102    22564942.102    22564945.997
     -3769.889       -2932.108
    378877.947 6    294680.564 6  24375601.097    24375601.097    24375604.248
      1097.249         853.428
  -5202682.083 7  -4046539.804 6  23360619.203    23360619.203    23360619.776
     -1673.675       -1301.744
 05 11 14  1  4  0.0000000  0 12G21G01G20G14G06G16G25G30R18R17R08R07-0.000000010
    -10352.079 6     -8058.929 2  25471206.453    25471206.453    25471219.989
      2301.289        1793.231
 -21630016.885 9 -16854564.175 7  20566614.588    20566614.588    20566620.484
      -377.488        -294.140
   -839937.822 7   -654483.528 3  24900792.697    24900792.697    24900801.196
      -621.808        -484.541
 -18600489.722 8 -14493895.131 6  21640053.149    21640053.149    21640059.331
     -2840.673       -2213.488
 -18432283.803 9 -14362812.486 7  21099889.087    21099889.087    21099894.495
      -910.323        -709.329
 -10687791.139 8  -8328142.657 6  22154066.783    22154066.783    22154071.562
      2020.454        1574.356
 -21094431.913 9 -16437223.799 7  21007059.401    21007059.401    21007063.894
      1251.476         975.167
  -8418447.176 8  -6559843.814 5  22918286.004    22918286.004    22918292.929
     -2932.045       -2284.718
 -23444733.857 9 -18234777.113 7  19564989.498    19564989.498    19564994.998
      1340.347        1042.502
  -8340021.897 7  -6486684.834 5  22586101.721    22586101.721    22586108.538
     -3781.055       -2940.798
    346299.298 6    269341.626 6  24369518.143    24369518.143    24369522.326
      1075.224         836.284
  -5152186.937 7  -4007265.942 6  23370052.861    23370052.861    23370055.955
     -1692.126       -1316.108
 05 11 14  1  4 30.0000000  0 12G21G01G20G14G06G16G25G30R18R17R08R07-0.000000011
    -79415.151 6    -61874.165 2  25458061.359    25458061.359    25458075.296
      2303.425        1794.850
 -21618388.179 9 -16845502.864 7  20568827.456    20568827.456    20568833.208
      -397.284        -309.556
   -821045.341 7   -639762.155 3  24904389.834    24904389.834    24904396.960
      -637.112        -496.424
 -18515066.212 8 -14427331.406 6  21656308.778    21656308.778    21656314.674
     -2853.742       -2223.703
 -18404701.677 9 -14341319.951 7  21105137.966    21105137.966    21105143.518
      -927.935        -723.068
 -10748262.898 8  -8375263.464 6  22142558.694    22142558.694    22142564.961
      2011.460        1567.385
 -21131861.247 9 -16466389.534 7  20999936.913    20999936.913    20999941.606
      1244.306         969.587
  -8330449.157 8  -6491274.046 5  22935031.671    22935031.671    22935038.625
     -2933.942       -2286.208
 -23484558.185 9 -18265751.557 7  19557562.955    19557562.955    19557568.111
      1315.091        1022.865
  -8226406.710 7  -6398317.495 5  22607326.851    22607326.851    22607334.586
     -3792.647       -2949.862
    314382.486 6    244517.448 6  24363556.483    24363556.483    24363561.925
      1052.997         818.968
  -5101133.616 7  -3967557.895 6  23379593.754    23379593.754    23379596.848
     -1710.875       -1330.680
 05 11 14  1  5  0.0000000  0 12G21G01G20G14G06G16G25G30R18R17R08R07-0.000000010
   -148543.056 6   -115740.034 2  25444906.899    25444906.899    25444915.799
      2305.222        1796.266
 -21606167.492 9 -16835980.271 7  20571153.206    20571153.206    20571158.558
      -417.312        -325.201
   -801696.458 6   -624685.135 3  24908069.511    24908069.511    24908077.925
      -652.634        -508.566
 -18429254.232 8 -14360464.972 7  21672638.495    21672638.495    21672644.505
     -2866.925       -2233.962
 -18376592.545 9 -14319416.768 7  21110487.608    21110487.608    21110492.445
      -945.853        -737.033
 -10808466.769 8  -8422175.545 6  22131101.933    22131101.933    22131108.286
      2002.245        1560.192
 -21169076.304 9 -16495388.263 7  20992854.946    20992854.946    20992859.410
      1236.823         963.754
  -8242395.736 8  -6422661.082 5  22951788.316    22951788.316    22951794.641
     -2936.117       -2287.875
 -23523625.922 9 -18296137.539 7  19550277.951    19550277.951    19550282.306
      1289.527        1002.963
  -8112446.990 7  -6309682.172 4  22628615.694    22628615.694    22628617.298
     -3804.477       -2959.056
    283133.436 7    220212.643 6  24357722.238    24357722.238    24357727.107
      1030.415         801.424
  -5049521.272 7  -3927415.076 6  23389238.840    23389238.840    23389241.819
     -1729.738       -1345.360
 05 11 14  1  5 30.0000000  0 13G21G01G20G14G06G16G25G23G30R18R17R08-0.000000019
                                R07
   -217748.784 6   -169666.535 2  25431737.260    25431737.260    25431744.615
      2307.413        1798.005
 -21593370.573 9 -16826008.666 7  20573588.436    20573588.436    20573593.845
      -436.858        -340.417
   -781908.772 7   -609266.181 2  24911835.646    24911835.646    24911844.718
      -667.602        -520.194
 -18343071.832 8 -14293309.905 7  21689038.199    21689038.199    21689044.295
     -2879.555       -2243.804
 -18347973.178 9 -14297115.986 7  21115933.228    21115933.228    21115938.580
      -963.133        -750.524
 -10868418.280 8  -8468890.949 6  22119693.390    22119693.390    22119699.514
      1993.454        1553.366
 -21206091.064 9 -16524230.956 7  20985811.266    20985811.266    20985816.074
      1229.767         958.272
    557547.648 6         0.000 1  25420951.229           0.000           0.000
      3555.685          -0.000
  -8154303.613 8  -6354017.992 5  22968550.973    22968550.973    22968558.099
     -2937.786       -2289.178
 -23561951.460 9 -18325946.273 7  19543130.604    19543130.604    19543135.187
      1264.424         983.419
  -7998161.916 7  -6220793.829 5  22649963.772    22649963.772    22649965.720
     -3815.489       -2967.605
    252536.643 6    196415.103 6  24352006.481    24352006.481    24352011.580
      1008.248         784.190
  -4997369.204 7  -3886852.445 6  23398985.286    23398985.286    23398988.551
     -1748.022       -1359.566
 05 11 14  1  6  0.0000000  0 13G21G01G20G14G06G16G25G23G30R18R17R08-0.000000023
                                R07
   -287008.586 6   -223635.179 2  25418557.364    25418557.364    25418566.007
      2309.369        1799.540
 -21579976.507 9 -16815571.758 7  20576137.187    20576137.187    20576142.739
      -456.622        -355.813
   -761663.011 6   -593490.325 3  24915688.662    24915688.662    24915699.394
      -682.712        -531.981
 -18256500.404 8 -14225851.709 7  21705512.190    21705512.190    21705518.228
     -2892.391       -2253.802
 -18318823.699 9 -14274402.137 7  21121479.695    21121479.695    21121485.390
      -980.702        -764.178
 -10928096.275 8  -8515393.240 6  22108337.760    22108337.760    22108342.797
      1984.411        1546.314
 -21242883.346 9 -16552900.264 7  20978809.987    20978809.987    20978814.537
      1222.454         952.587
    450947.536 6         0.000 1  25400667.554           0.000           0.000
      3550.650          -0.000
  -8066153.249 8  -6285329.498 5  22985326.503    22985326.503    22985333.285
     -2939.604       -2290.612
 -23599512.524 8 -18355160.423 7  19536126.132    19536126.132    19536130.830
      1239.011         963.664
  -7883536.588 7  -6131640.836 5  22671377.924    22671377.924    22671381.877
     -3826.653       -2976.256
    222615.152 7    173142.798 6  24346419.950    24346419.950    24346424.361
       985.922         766.834
  -4944659.195 7  -3845855.866 6  23408836.554    23408836.554    23408838.559
     -1766.463       -1373.917
 05 11 14  1  6 30.0000000  0 13G21G01G20G14G06G16G25G23G30R18R17R08-0.000000026
                                R07
   -356323.427 6   -277646.682 2  25405367.855    25405367.855    25405377.128
      2311.619        1801.255
 -21565989.037 9 -16804672.472 7  20578799.036    20578799.036    20578804.703
      -475.853        -370.784
   -740964.371 7   -577361.558 3  24919627.511    24919627.511    24919633.378
      -697.259        -543.316
 -18169546.186 8 -14158095.218 7  21722059.804    21722059.804    21722065.041
     -2904.559       -2263.294
 -18289149.000 9 -14251279.031 7  21127126.456    21127126.456    21127132.867
      -997.600        -777.354
 -10987504.681 8  -8561685.474 6  22097032.535    22097032.535    22097038.144
      1976.060        1539.782
 -21279455.304 9 -16581397.868 7  20971850.440    20971850.440    20971855.076
      1215.661         947.270
    344489.847 6         0.000 1  25380407.028           0.000           0.000
      3546.445          -0.000
  -7977949.607 8  -6216599.467 5  23002110.854    23002110.854    23002117.579
     -2940.699       -2291.459
 -23636310.493 9 -18383781.043 7  19529264.108    19529264.108    19529269.093
      1214.194         944.359
  -7768579.581 7  -6042229.849 4  22692853.666    22692853.666    22692858.536
     -3837.070       -2984.404
    193365.682 6    150393.179 6  24340957.847    24340957.847    24340961.628
       964.062         749.834
  -4891398.988 8  -3804431.359 6  23418790.166    23418790.166    23418790.968
     -1784.138       -1387.670
 05 11 14  1  7  0.0000000  0 13G21G01G20G14G06G16G25G23G30R18R17R08-0.000000026
                                R07
   -425688.027 6   -331696.895 2  25392166.451    25392166.451    25392178.556
      2313.124        1802.417
 -21551405.446 9 -16793308.662 7  20581574.268    20581574.268    20581579.505
      -495.841        -386.369
   -719811.589 7   -560878.877 3  24923656.073    24923656.073    24923662.770
      -712.420        -555.145
 -18082208.916 8 -14090040.261 7  21738679.101    21738679.101    21738684.911
     -2917.394       -2273.292
 -18258947.504 9 -14227745.407 7  21132874.139    21132874.139    21132879.977
     -1015.289        -791.111
 -11046640.860 8  -8607765.573 6  22085779.117    22085779.117    22085784.812
      1966.863        1532.613
 -21315803.004 9 -16609720.724 7  20964933.972    20964933.972    20964938.465
      1208.029         941.309
    238180.378 6    185597.142 2  25360177.011    25360177.011    25360181.332
      3541.289        2759.440
  -7889691.101 8  -6147826.746 5  23018905.371    23018905.371    23018911.695
     -2942.674       -2292.999
 -23672342.980 9 -18411806.291 7  19522545.029    19522545.029    19522549.040
      1188.514         924.392
  -7653291.484 7  -5952561.399 5  22714390.182    22714390.182    22714393.390
     -3848.319       -2993.136
    164792.093 6    128169.274 6  24335622.457    24335622.457    24335626.696
       941.413         732.215
  -4837588.870 7  -3762579.117 6  23428844.485    23428844.485    23428847.579
     -1802.563       -1401.996
 05 11 14  1  7 30.0000000  0 13G21G01G20G14G06G16G25G23G30R18R17R08-0.000000024
                                R07
   -495102.163 6   -385785.707 2  25378958.252    25378958.252    25378970.616
      2314.698        1803.653
 -21536228.096 9 -16781482.182 7  20584462.399    20584462.399    20584468.008
      -515.660        -401.835
   -698208.571 7   -544045.399 3  24927763.261    24927763.261    24927773.564
      -727.490        -566.874
 -17994493.045 9 -14021690.297 7  21755371.160    21755371.160    21755376.884
     -2929.988       -2283.102
 -18228222.535 9 -14203803.890 7  21138721.245    21138721.245    21138726.539
     -1032.719        -804.711
 -11105506.664 8  -8653635.001 6  22074577.701    22074577.701    22074583.253
      1957.871        1525.613
 -21351927.061 9 -16637869.308 7  20958059.767    20958059.767    20958064.059
      1200.516         935.471
    132019.484 6    102874.266 2  25339976.762    25339976.762    25339979.624
      3536.335        2755.604
  -7801381.133 8  -6079013.892 5  23035711.239    23035711.239    23035717.879
     -2944.339       -2294.277
 -23707609.967 9 -18439236.143 7  19515968.334    19515968.334    19515972.459
      1162.964         904.521
  -7537676.440 7  -5862638.670 4  22735987.364    22735987.364    22735991.490
     -3859.170       -3001.568
    136893.173 7    106470.088 6  24330413.592    24330413.592    24330417.030
       918.854         714.655
  -4783234.271 7  -3720303.396 6  23439002.934    23439002.934    23439005.053
     -1820.702       -1416.098
 05 11 14  1  8  0.0000000  0 13G21G01G20G14G06G16G25G23G30R18R17R08-0.000000022
                                R07
   -564566.631 6   -439913.697 2  25365743.036    25365743.036    25365750.992
      2315.689        1804.404
 -21520461.059 9 -16769196.213 7  20587462.560    20587462.560    20587468.369
      -536.007        -417.669
   -676160.827 7   -526865.396 3  24931958.147    24931958.147    24931963.985
      -742.982        -578.926
 -17906404.977 9 -13953050.290 7  21772134.080    21772134.080    21772139.574
     -2943.058       -2293.286
 -18196979.149 9 -14179458.390 7  21144666.249    21144666.249    21144671.772
     -1050.657        -818.711
 -11164105.923 8  -8699296.745 6  22063426.138    22063426.138    22063431.632
      1948.280        1518.155
 -21387829.546 9 -16665845.252 7  20951227.470    20951227.470    20951231.963
      1192.459         929.195
     26005.953 6     20266.271 2  25319800.826    25319800.826    25319811.243
      3530.684        2751.180
  -7713024.699 8  -6010164.817 5  23052524.421    23052524.421    23052530.230
     -2946.599       -2296.063
 -23742115.063 9 -18466073.417 7  19509533.423    19509533.423    19509538.235
      1136.808         884.172
  -7421744.091 7  -5772469.188 4  22757645.328    22757645.328    22757652.032
     -3870.249       -3010.241
    109665.878 6     85293.321 6  24325327.595    24325327.595    24325331.892
       895.827         696.758
  -4728342.309 7  -3677609.719 6  23449261.522    23449261.522    23449263.356
     -1839.245       -1430.531
 05 11 14  1  8 30.0000000  0 13G21G01G20G14G06G16G25G23G30R18R17R08-0.000000024
                                R07
   -634084.578 6   -494083.306 2  25352511.138    25352511.138    25352523.329
      2318.231        1806.389
 -21504110.434 9 -16756455.491 7  20590574.134    20590574.134    20590579.829
      -554.581        -432.149
   -653675.900 7   -509344.690 3  24936236.921    24936236.921    24936243.990
      -756.525        -589.467
 -17817952.826 8 -13884126.584 6  21788965.377    21788965.377    21788971.473
     -2954.266       -2302.018
 -18165224.473 9 -14154714.486 7  21150708.661    21150708.661    21150714.356
     -1066.878        -831.303
 -11222444.835 8  -8744755.636 6  22052325.078    22052325.078    22052330.258
      1940.450        1512.060
 -21423515.194 9 -16693652.205 7  20944436.645    20944436.645    20944441.052
      1186.025         924.184
    -79863.631 6    -62229.568 2  25299655.516    25299655.516    25299656.832
      3526.755        2748.116
  -7624628.910 8  -5941285.107 5  23069346.382    23069346.382    23069352.163
     -2946.984       -2296.338
 -23775862.363 9 -18492321.278 7  19503240.311    19503240.311    19503245.067
      1112.474         865.278
  -7305503.957 7  -5682060.314 4  22779360.011    22779360.011    22779364.079
     -3879.519       -3017.422
     83105.142 6     64634.998 6  24320368.251    24320368.251    24320371.574
       874.464         680.142
  -4672923.075 7  -3634505.946 6  23459615.978    23459615.978    23459619.759
     -1855.919       -1443.500
 05 11 14  1  9  0.0000000  0 13G21G01G20G14G06G16G25G23G30R18R17R08-0.000000028
                                R07
   -703650.027 6   -548289.865 2  25339273.188    25339273.188    25339285.723
      2319.908        1807.690
 -21487172.564 9 -16743257.192 7  20593797.161    20593797.161    20593803.028
      -574.148        -447.361
   -630751.501 7   -491481.533 2  24940599.967    24940599.967    24940607.923
      -771.196        -600.909
 -17729135.708 8 -13814918.500 6  21805867.174    21805867.174    21805872.840
     -2966.386       -2311.445
 -18132955.784 9 -14129570.043 7  21156849.578    21156849.578    21156854.643
     -1083.918        -844.615
 -11280519.344 9  -8790008.495 6  22041273.938    22041273.938    22041279.003
      1931.672        1505.197
 -21458978.650 9 -16721286.030 7  20937688.381    20937688.381    20937692.702
      1178.666         918.444
   -185582.641 6   -144608.094 3  25279539.221    25279539.221    25279543.972
      3521.742        2744.238
  -7536191.141 8  -5872372.648 5  23086174.743    23086174.743    23086180.610
     -2948.359       -2297.402
 -23808847.748 9 -18517976.534 7  19497089.179    19497089.179    19497093.820
      1087.055         845.485
  -7188957.704 7  -5591413.383 4  22801131.398    22801131.398    22801137.700
     -3889.627       -3025.329
     57215.408 6     44498.583 6  24315532.615    24315532.615    24315538.058
       852.059         662.701
  -4616975.767 7  -3590991.449 6  23470072.215    23470072.215    23470074.564
     -1873.385       -1457.078
 05 11 14  1  9 30.0000000  0 13G21G01G20G14G06G16G25G23G30R18R17R08-0.000000026
                                R07
   -773248.620 7   -602522.235 2  25326029.530    25326029.530    25326040.004
      2320.474        1808.116
 -21469636.192 9 -16729592.509 7  20597134.169    20597134.169    20597140.207
      -594.475        -463.228
   -607377.939 7   -473268.374 3  24945048.423    24945048.423    24945055.807
      -786.557        -612.904
 -17639944.361 8 -13745418.789 6  21822839.560    21822839.560    21822845.141
     -2979.210       -2321.469
 -18100163.047 9 -14104017.236 7  21163089.929    21163089.929    21163094.708
     -1101.812        -858.555
 -11338317.938 8  -8835046.342 6  22030274.877    22030274.877    22030280.314
      1922.057        1497.707
 -21494207.100 9 -16748736.732 7  20930984.542    20930984.542    20930988.950
      1170.391         911.977
   -291136.612 6   -226857.951 2  25259452.675    25259452.675    25259452.017
      3515.686        2739.506
  -7447700.914 8  -5803419.321 5  23103014.362    23103014.362    23103020.773
     -2950.544       -2299.120
 -23841057.595 9 -18543028.606 7  19491082.548    19491082.548    19491087.590
      1060.737         825.005
  -7072095.174 7  -5500520.487 4  22822963.232    22822963.232    22822968.159
     -3900.463       -3033.666
     32009.458 6     24893.960 6  24310825.494    24310825.494    24310830.192
       828.819         644.647
  -4560492.543 7  -3547060.115 6  23480627.953    23480627.953    23480629.557
     -1891.667       -1471.306
 05 11 14  1 10  0.0000000  0 13G21G01G20G14G06G16G25G23G30R18R17R08-0.000000020
                                R07
   -842881.247 6   -656781.075 2  25312777.468    25312777.468    25312785.510
      2321.561        1808.993
 -21451504.807 9 -16715464.185 7  20600584.628    20600584.628    20600590.324
      -614.371        -478.738
   -583560.224 7   -454709.150 3  24949580.652    24949580.652    24949591.870
      -801.492        -624.536
 -17550384.498 8 -13675631.937 6  21839882.071    21839882.071    21839887.680
     -2991.527       -2331.043
 -18066850.642 9 -14078059.503 7  21169428.578    21169428.578    21169434.359
     -1119.173        -872.085
 -11395843.971 8  -8879871.824 6  22019328.527    22019328.527    22019333.764
      1912.915        1490.592
 -21529202.302 9 -16776005.668 7  20924325.138    20924325.138    20924329.688
      1162.492         905.840
   -396526.409 6   -308979.873 2  25239397.927    25239397.927    25239397.727
      3510.029        2735.095
  -7359162.713 8  -5734428.593 5  23119862.094    23119862.094    23119869.334
     -2952.146       -2300.368
 -23872494.861 9 -18567479.771 7  19485219.807    19485219.807    19485224.791
      1034.935         804.941
  -6954923.476 7  -5409387.113 4  22844851.318    22844851.318    22844854.240
     -3910.914       -3041.776
      7484.631 7      5819.115 6  24306246.548    24306246.548    24306250.903
       805.946         626.861
  -4503479.719 7  -3502716.873 6  23491282.039    23491282.039    23491284.216
     -1909.337       -1485.034
 05 11 14  1 10 30.0000000  0 13G21G01G20G14G06G16G25G23G30R18R17R08-0.000000018
                                R07
   -912555.975 7   -711072.796 2  25299518.498    25299518.498    25299532.435
      2323.324        1810.382
 -21432789.812 9 -16700881.103 7  20604146.104    20604146.104    20604151.770
      -633.333        -493.518
   -559311.122 6   -435813.735 2  24954195.706    24954195.706    24954200.457
      -815.196        -635.235
 -17460469.752 8 -13605568.565 6  21856991.677    21856991.677    21856997.944
     -3002.847       -2339.852
 -18033030.867 9 -14051706.424 7  21175863.976    21175863.976    21175869.814
     -1135.555        -884.836
 -11453108.500 8  -8924493.513 6  22008431.385    22008431.385    22008436.851
      1904.701        1484.175
 -21563973.761 9 -16803100.271 7  20917708.045    20917708.045    20917712.911
      1155.514         900.381
   -501760.366 6   -390980.299 2  25219371.593    25219371.593    25219370.820
      3505.350        2731.426
  -7270588.613 7  -5665409.907 5  23136717.351    23136717.351    23136725.164
     -2952.878       -2300.957
 -23903169.825 9 -18591338.044 7  19479499.823    19479499.823    19479504.406
      1009.979         785.544
  -6837459.557 7  -5318026.513 4  22866794.822    22866794.822    22866801.296
     -3920.082       -3048.925
    -16369.709 7    -12734.300 6  24301791.805    24301791.805    24301797.133
       784.157         609.908
  -4445952.173 7  -3457973.294 6  23502031.271    23502031.271    23502034.938
     -1925.893       -1497.892
 05 11 14  1 11  0.0000000  0 13G21G01G20G14G06G16G25G23G30R18R17R08-0.000000020
                                R07
   -982269.470 7   -765394.726 2  25286253.644    25286253.644    25286265.149
      2324.137        1811.008
 -21413490.570 9 -16685842.760 7  20607818.744    20607818.744    20607824.124
      -653.373        -509.127
   -534631.443 7   -416582.878 3  24958892.495    24958892.495    24958897.331
      -830.151        -646.860
 -17370201.717 8 -13535229.870 6  21874169.793    21874169.793    21874175.116
     -3015.128       -2349.437
 -17998704.221 9 -14024958.393 7  21182396.794    21182396.794    21182402.146
     -1152.975        -898.449
 -11510110.781 9  -8968910.844 6  21997584.014    21997584.014    21997588.965
      1895.339        1476.859
 -21598519.158 9 -16830018.739 7  20911134.293    20911134.293    20911139.130
      1147.402         894.086
   -606834.819 6   -472856.477 2  25199378.605    25199378.605    25199374.426
      3499.493        2726.890
  -7181979.032 8  -5596363.560 5  23153579.640    23153579.640    23153585.364
     -2954.618       -2302.297
 -23933080.639 9 -18614601.963 7  19473922.786    19473922.786    19473926.739
       983.965         765.288
  -6719708.932 7  -5226442.842 4  22888791.800    22888791.800    22888795.009
     -3930.084       -3056.765
    -39552.117 7    -30765.113 6  24297462.228    24297462.228    24297466.353
       761.149         592.020
  -4387912.605 7  -3412831.467 6  23512879.061    23512879.061    23512880.379
     -1943.466       -1511.587
 05 11 14  1 11 30.0000000  0 13G21G01G20G14G06G16G25G23G30R18R17R08-0.000000018
                                R07
  -1052010.535 6   -819738.149 2  25272981.737    25272981.737    25272990.781
      2325.415        1811.980
 -21393599.095 9 -16670342.930 7  20611604.034    20611604.034    20611609.529
      -672.512        -524.018
   -509514.452 7   -397011.206 2  24963672.325    24963672.325    24963679.222
      -844.010        -657.650
 -17279574.314 8 -13464611.173 6  21891416.080    21891416.080    21891421.746
     -3026.472       -2358.302
 -17963863.579 9 -13997809.837 7  21189026.817    21189026.817    21189031.940
     -1169.522        -911.327
 -11566842.138 8  -9013117.061 6  21986788.055    21986788.055    21986793.550
      1886.958        1470.350
 -21632828.793 9 -16856753.505 7  20904605.472    20904605.472    20904610.079
      1140.115         888.414
   -711738.666 6   -554599.706 2  25179416.171    25179416.171    25179412.193
      3494.318        2722.827
  -7093326.620 8  -5527283.805 5  23170450.586    23170450.586    23170455.909
     -2955.376       -2302.889
 -23962218.632 9 -18637264.821 7  19468488.924    19468488.924    19468492.476
       958.795         745.742
  -6601663.377 7  -5134629.854 4  22910841.376    22910841.376    22910846.131
     -3939.316       -3063.868
    -62053.470 7    -48266.187 6  24293259.020    24293259.020    24293264.119
       739.092         574.836
  -4329356.349 7  -3367287.755 6  23523820.096    23523820.096    23523822.789
     -1960.046       -1524.476
 05 11 14  1 12  0.0000000  0 13G21G01G20G14G06G16G25G23G30R18R17R08-0.000000016
                                R07
  -1121782.646 7   -874105.786 2  25259704.661    25259704.661    25259717.768
      2326.270        1812.667
 -21373121.707 9 -16654386.554 7  20615500.588    20615500.588    20615506.111
      -692.450        -539.559
   -483968.192 7   -377105.083 2  24968534.286    24968534.286    24968539.638
      -858.880        -669.256
 -17188596.310 8 -13393719.281 6  21908728.174    21908728.174    21908734.184
     -3038.541       -2367.674
 -17928516.170 9 -13970266.402 7  21195752.937    21195752.937    21195758.375
     -1186.777        -924.781
 -11623308.672 8  -9057116.906 6  21976043.067    21976043.067    21976047.989
      1877.726        1463.151
 -21666907.329 9 -16883308.190 7  20898120.756    20898120.756    20898125.192
      1131.962         882.042
   -816475.652 6   -636212.950 2  25159484.379    25159484.379    25159483.892
      3488.314        2718.180
  -7004638.545 8  -5458176.297 5  23187325.962    23187325.962    23187332.258
     -2956.985       -2304.111
 -23990588.469 9 -18659330.215 7  19463198.266    19463198.266    19463202.334
       932.734         725.441
  -6483333.228 7  -5042595.470 4  22932948.740    22932948.740    22932954.928
     -3949.135       -3071.537
    -83878.439 7    -65241.181 6  24289185.279    24289185.279    24289189.805
       716.183         557.026
  -4270292.698 7  -3321349.412 6  23534858.649    23534858.649    23534862.029
     -1977.249       -1537.857
 05 11 14  1 12 30.0000000  0 13G21G01G20G14G06G16G25G23G30R18R17R08-0.000000013
                                R07
  -1191577.946 7   -928491.444 2  25246425.136    25246425.136    25246431.317
      2327.155        1813.342
 -21352053.812 9 -16637970.037 7  20619509.821    20619509.821    20619515.316
      -711.748        -554.606
   -457989.302 7   -356861.856 3  24973475.720    24973475.720    24973481.472
      -872.748        -680.047
 -17097265.144 8 -13322552.183 6  21926108.111    21926108.111    21926114.150
     -3049.884       -2376.523
 -17892658.542 9 -13942325.398 7  21202576.341    21202576.341    21202581.692
     -1203.400        -937.696
 -11679505.624 8  -9100906.678 6  21965349.305    21965349.305    21965354.371
      1869.092        1456.432
 -21700748.016 9 -16909677.550 7  20891681.094    20891681.094    20891685.444
      1124.376         876.152
   -921037.642 6   -717689.878 2  25139585.418    25139585.418    25139592.630
      3482.790        2713.846
  -6915910.830 8  -5389037.879 5  23204211.457    23204211.457    23204218.611
     -2957.913       -2304.880
 -24018183.906 9 -18680793.300 7  19458051.769    19458051.769    19458056.410
       907.286         705.655
  -6364717.836 7  -4950339.162 4  22955107.216    22955107.216    22955115.753
     -3958.319       -3078.607
   -105021.550 6    -81685.853 6  24285236.773    24285236.773    24285241.414
       693.722         539.573
  -4210720.308 7  -3275015.403 6  23545991.064    23545991.064    23545993.012
     -1993.823       -1550.736
 05 11 14  1 13  0.0000000  0 13G21G01G20G14G06G16G25G23G30R18R17R08-0.000000019
                                R07
  -1261412.616 7   -982907.781 2  25233134.057    25233134.057    25233145.332
      2327.466        1813.593
 -21330414.233 9 -16621108.053 7  20623627.479    20623627.479    20623633.059
      -731.813        -570.248
   -431598.281 7   -336297.477 3  24978497.910    24978497.910    24978505.923
      -887.709        -691.744
 -17005602.050 9 -13251126.452 6  21943551.156    21943551.156    21943557.108
     -3061.929       -2385.927
 -17856310.641 9 -13914002.357 7  21209493.473    21209493.473    21209499.054
     -1220.727        -951.217
 -11735451.673 8  -9144500.924 6  21954702.492    21954702.492    21954707.758
      1859.740        1449.147
 -21734368.051 9 -16935874.977 7  20885283.158    20885283.158    20885287.908
      1116.002         869.605
  -1025440.722 6   -799042.975 2  25119719.602    25119719.602    25119720.117
      3476.481        2708.945
  -6827163.251 8  -5319883.967 5  23221098.399    23221098.399    23221106.183
     -2959.538       -2306.133
 -24045023.929 9 -18701668.853 7  19453046.720    19453046.720    19453051.131
       881.050         685.254
  -6245840.807 7  -4857879.323 4  22977314.582    22977314.582    22977321.744
     -3968.128       -3086.304
   -125501.881 6    -97615.012 6  24281411.853    24281411.853    24281415.864
       670.570         521.540
  -4150661.888 7  -3228303.363 6  23557213.189    23557213.189    23557217.199
     -2010.959       -1564.084
 05 11 14  1 13 30.0000000  0 13G21G01G20G14G06G16G25G23G30R18R17R08-0.000000019
                                R07
  -1331259.607 7  -1037333.732 2  25219843.060    25219843.060    25219848.784
      2328.208        1814.159
 -21308179.338 9 -16603782.191 7  20627858.644    20627858.644    20627864.540
      -751.368        -585.455
   -404772.635 7   -315394.430 2  24983603.373    24983603.373    24983612.388
      -901.759        -702.682
 -16913585.246 8 -13179425.120 6  21961061.333    21961061.333    21961066.771
     -3073.381       -2394.808
 -17819449.606 9 -13885279.467 7  21216508.140    21216508.140    21216513.034
     -1237.499        -964.308
 -11791122.508 8  -9187880.696 6  21944108.538    21944108.538    21944114.233
      1850.869        1442.215
 -21767741.363 9 -16961880.160 7  20878932.239    20878932.239    20878937.276
      1108.034         863.377
  -1129658.003 7   -880251.394 2  25099885.991    25099885.991    25099895.235
      3470.434        2704.212
  -6738372.598 8  -5250696.482 5  23237994.546    23237994.546    23238002.502
     -2960.620       -2306.996
 -24071082.635 9 -18721936.716 7  19448186.484    19448186.484    19448191.354
       855.341         665.274
  -6126679.760 7  -4765198.531 4  22999574.761    22999574.761    22999578.314
     -3977.063       -3093.309
   -145293.691 6   -113008.672 6  24277715.330    24277715.330    24277720.429
       647.904         503.936
  -4090096.623 7  -3181197.124 6  23568532.349    23568532.349    23568534.755
     -2027.471       -1576.926
 05 11 14  1 14  0.0000000  0 13G21G01G20G14G06G16G25G23G30R18R17R08-0.000000016
                                R07
  -1401118.708 7  -1091769.104 2  25206546.314    25206546.314    25206558.277
      2328.929        1814.766
 -21285352.111 9 -16585994.760 7  20632202.643    20632202.643    20632208.367
      -770.604        -600.461
   -377516.863 7   -294156.214 3  24988790.606    24988790.606    24988795.757
      -915.389        -713.303
 -16821219.933 8 -13107452.196 6  21978638.294    21978638.294    21978643.932
     -3084.448       -2403.459
 -17782079.277 9 -13856159.725 7  21223618.926    21223618.926    21223624.335
     -1253.995        -977.145
 -11846520.806 8  -9231048.116 6  21933566.593    21933566.593    21933571.888
      1842.197        1435.477
 -21800869.323 9 -16987694.160 7  20872628.464    20872628.464    20872633.158
      1100.338         857.411
  -1233689.249 6   -961314.802 2  25080089.370    25080089.370    25080091.545
      3464.590        2699.659
  -6649542.608 8  -5181478.334 5  23254900.235    23254900.235    23254906.617
     -2961.473       -2307.616
 -24096362.326 9 -18741598.662 7  19443472.665    19443472.665    19443477.248
       829.805         645.402
  -6007244.688 7  -4672304.636 5  23021887.013    23021887.013    23021892.342
     -3985.455       -3099.866
   -164399.507 6   -127868.795 6  24274147.869    24274147.869    24274151.478
       625.446         486.494
  -4029030.414 7  -3133701.204 6  23579942.670    23579942.670    23579946.165
     -2043.690       -1589.534
 05 11 14  1 14 30.0000000  0 13G21G01G20G14G06G16G25G23G30R18R17R08-0.000000018
                                R07
  -1471001.599 7  -1146222.987 2  25193251.421    25193251.421    25193262.039
      2329.444        1815.143
 -21261947.209 9 -16567757.190 7  20636656.308    20636656.308    20636662.175
      -790.096        -615.676
   -349847.117 7   -272595.481 2  24994055.577    24994055.577    24994061.758
      -929.338        -724.134
 -16728523.008 8 -13035220.893 6  21996277.749    21996277.749    21996283.616
     -3095.703       -2412.232
 -17744215.373 9 -13826655.372 7  21230823.898    21230823.898    21230829.450
     -1270.641        -990.104
 -11901660.476 8  -9274013.998 6  21923073.855    21923073.855    21923078.834
      1833.381        1428.604
 -21833764.705 9 -17013326.944 7  20866368.737    20866368.737    20866373.373
      1092.310         851.157
  -1337545.786 7  -1042242.129 3  25060331.051    25060331.051    25060330.278
      3458.692        2695.119
  -6560688.452 8  -5112241.351 5  23271807.707    23271807.707    23271814.232
     -2962.488       -2308.444
 -24120876.755 9 -18760665.420 7  19438900.885    19438900.885    19438905.813
       804.058         625.393
  -5887551.743 7  -4579210.152 4  23044245.655    23044245.655    23044253.905
     -3994.227       -3106.656
   -182833.477 6   -142206.298 6  24270707.102    24270707.102    24270712.087
       602.950         468.943
  -3967481.726 7  -3085830.073 6  23591445.973    23591445.973    23591449.354
     -2059.961       -1602.171
 05 11 14  1 15  0.0000000  0 13G21G01G20G14G06G16G25G23G30R18R17R08-0.000000016
                                R07
  -1540891.920 7  -1200682.661 2  25179950.299    25179950.299    25179959.028
      2329.608        1815.278
 -21237952.018 9 -16549059.655 7  20641222.773    20641222.773    20641228.211
      -809.908        -631.099
   -321751.737 6   -250703.074 2  24999400.644    24999400.644    24999406.854
      -943.892        -735.516
 -16635483.706 8 -12962722.785 6  22013982.671    22013982.671    22013988.795
     -3107.214       -2421.195
 -17705846.001 9 -13796757.148 7  21238125.419    21238125.419    21238131.515
     -1287.628       -1003.341
 -11956529.022 8  -9316768.613 6  21912633.040    21912633.040    21912638.535
      1824.196        1421.444
 -21866412.848 9 -17038767.049 7  20860155.927    20860155.927    20860160.935
      1083.913         844.605
  -1441211.667 7  -1123020.879 3  25040599.176    25040599.176    25040600.807
      3452.073        2689.910
  -6471797.986 8  -5042976.091 5  23288723.062    23288723.062    23288728.270
     -2963.807       -2309.399
 -24144612.261 9 -18779126.344 7  19434474.580    19434474.580    19434479.564
       777.929         605.065
  -5767592.176 7  -4485908.240 4  23066656.218    23066656.218    23066661.776
     -4003.241       -3113.677
   -200581.228 6   -156010.092 6  24267391.163    24267391.163    24267396.377
       579.982         451.107
  -3905440.298 7  -3037575.698 6  23603039.524    23603039.524    23603041.930
     -2076.423       -1614.983
 05 11 14  1 15 30.0000000  0 13G21G01G20G14G06G16G25G23G30R18R17R08-0.000000014
                                R07
  -1610791.777 6  -1255149.800 3  25166646.004    25166646.004    25166656.249
      2329.567        1815.247
 -21213371.478 9 -16529905.995 7  20645900.237    20645900.237    20645905.789
      -829.685        -646.501
   -293237.291 6   -228484.060 2  25004829.503    25004829.503    25004835.284
      -957.969        -746.471
 -16542109.006 8 -12889963.338 6  22031750.935    22031750.935    22031757.803
     -3118.615       -2430.077
 -17666977.285 9 -13766469.812 7  21245521.707    21245521.707    21245527.374
     -1304.461       -1016.470
 -12011130.905 8  -9359315.456 6  21902241.717    21902241.717    21902247.870
      1815.062        1414.358
 -21898816.618 9 -17064016.748 7  20853989.804    20853989.804    20853994.583
      1075.472         838.056
  -1544688.566 7  -1203652.338 3  25020909.406    25020909.406    25020914.042
      3445.444        2684.785
  -6382876.696 8  -4973686.798 5  23305643.842    23305643.842    23305651.283
     -2965.058       -2310.401
 -24167572.489 9 -18796984.270 7  19430193.125    19430193.125    19430198.625
       751.838         584.753
  -5647374.330 7  -4392405.479 5  23089112.232    23089112.232    23089119.680
     -4012.129       -3120.525
   -217647.136 6   -169283.543 6  24264203.865    24264203.865    24264206.042
       556.947         433.206
  -3842914.732 7  -2988944.769 6  23614725.096    23614725.096    23614726.013
     -2092.802       -1627.755
 05 11 14  1 16  0.0000000  0 13G21G01G20G14G06G16G25G23G30R18R17R08-0.000000012
                                R07
  -1680700.169 7  -1309623.554 2  25153342.245    25153342.245    25153347.911
      2330.551        1815.992
 -21188207.778 9 -16510297.921 7  20650688.717    20650688.717    20650694.354
      -848.274        -661.019
   -264307.439 6   -205941.373 3  25010331.725    25010331.725    25010341.198
      -971.025        -756.659
 -16448403.301 8 -12816945.953 6  22049583.213    22049583.213    22049588.536
     -3128.775       -2438.006
 -17627612.121 9 -13735795.638 7  21253012.222    21253012.222    21253018.375
     -1320.199       -1028.737
 -12065467.802 8  -9401655.823 6  21891902.192    21891902.192    21891907.916
      1807.036        1408.094
 -21930976.136 9 -17089076.082 7  20847869.834    20847869.834    20847874.871
      1068.123         832.287
  -1647975.496 6  -1284135.692 3  25001254.134    25001254.134    25001258.799
      3439.991        2680.534
  -6293927.314 8  -4904375.635 5  23322570.875    23322570.875    23322577.543
     -2965.206       -2310.552
 -24189758.610 9 -18814240.126 7  19426056.362    19426056.362    19426060.831
       726.852         565.325
  -5526902.138 7  -4298704.881 4  23111618.304    23111618.304    23111623.059
     -4019.741       -3126.479
   -234032.437 6   -182027.643 6  24261145.220    24261145.220    24261148.600
       535.010         416.114
  -3779910.538 7  -2939941.603 6  23626497.593    23626497.593    23626501.031
     -2107.773       -1639.362
 05 11 14  1 16 30.0000000  0 13G21G01G20G14G06G16G25G23G30R18R17R08-0.000000015
                                R07
  -1750621.524 7  -1364107.465 2  25140039.426    25140039.426    25140050.844
      2330.998        1816.357
 -21162468.867 9 -16490241.640 7  20655586.574    20655586.574    20655592.155
      -867.446        -675.912
   -234971.003 6   -183081.857 3  25015915.010    25015915.010    25015921.964
      -984.480        -767.149
 -16354376.463 8 -12743678.356 6  22067475.959    22067475.959    22067481.425
     -3139.464       -2446.351
 -17587759.317 9 -13704741.494 7  21260596.097    21260596.097    21260601.649
     -1336.434       -1041.384
 -12119546.810 9  -9443795.246 6  21881612.008    21881612.008    21881616.816
      1798.413        1401.391
 -21962897.279 9 -17113949.697 7  20841795.371    20841795.371    20841800.179
      1060.135         826.083
  -1751076.849 7  -1364474.499 3  24981634.895    24981634.895    24981637.298
      3433.744        2675.635
  -6204957.984 8  -4835048.922 5  23339502.021    23339502.021    23339508.861
     -2965.851       -2311.044
 -24211177.693 9 -18830899.390 7  19422061.974    19422061.974    19422066.844
       701.255         545.414
  -5406187.930 7  -4204816.062 4  23134167.998    23134167.998    23134175.389
     -4027.651       -3132.665
   -249744.545 6   -194248.161 6  24258210.823    24258210.823    24258214.032
       512.671         398.757
  -3716438.280 7  -2890574.345 6  23638359.788    23638359.788    23638361.679
     -2123.487       -1651.573
 05 11 14  1 17  0.0000000  0 13G21G01G20G14G06G16G25G23G30R18R17R08-0.000000008
                                R07
  -1820539.379 7  -1418588.626 2  25126733.994    25126733.994    25126740.576
      2330.429        1815.920
 -21136141.583 9 -16469726.885 7  20660596.375    20660596.375    20660602.013
      -887.451        -691.500
   -205216.561 6   -159896.654 3  25021576.857    25021576.857    25021582.981
      -998.885        -778.346
 -16260017.082 8 -12670151.614 6  22085431.307    22085431.307    22085437.861
     -3150.885       -2455.208
 -17547406.560 9 -13673297.777 7  21268275.736    21268275.736    21268280.744
     -1353.492       -1054.662
 -12173354.194 9  -9485723.006 6  21871372.359    21871372.359    21871377.195
      1788.952        1393.999
 -21994564.610 9 -17138625.525 7  20835769.472    20835769.472    20835774.423
      1051.241         819.151
  -1853976.001 6  -1444655.695 3  24962053.013    24962053.013    24962058.794
      3426.482        2670.006
  -6115956.146 8  -4765696.833 5  23356437.698    23356437.698    23356445.196
     -2967.266       -2312.136
 -24231815.209 9 -18846950.774 7  19418213.061    19418213.061    19418217.416
       674.783         524.836
  -5285223.138 7  -4110732.402 4  23156765.325    23156765.325    23156771.971
     -4036.264       -3139.297
   -264769.121 6   -205933.920 6  24255404.608    24255404.608    24255407.988
       489.161         380.475
  -3652488.468 7  -2840835.666 6  23650308.717    23650308.717    23650313.243
     -2139.658       -1664.165
 05 11 14  1 17 30.0000000  0 13G21G01G20G14G06G16G25G23G30R18R17R08-0.000000005
                                R07
  -1890452.020 7  -1473065.760 2  25113429.223    25113429.223    25113436.577
      2330.362        1815.849
 -21109227.717 9 -16448755.039 7  20665717.945    20665717.945    20665723.783
      -906.798        -706.607
   -175046.920 7   -136387.924 3  25027317.891    25027317.891    25027327.821
     -1012.486        -788.917
 -16165328.981 8 -12596368.737 6  22103450.161    22103450.161    22103456.372
     -3161.598       -2463.594
 -17506556.517 9 -13641466.544 7  21276049.060    21276049.060    21276054.125
     -1369.861       -1067.406
 -12226891.300 9  -9527440.173 6  21861184.493    21861184.493    21861189.473
      1780.159        1387.116
 -22025977.612 9 -17163103.156 7  20829791.979    20829791.979    20829796.357
      1042.951         812.680
  -1956671.495 6  -1524678.256 2  24942513.488    24942513.488    24942513.145
      3419.811        2664.786
  -6026923.702 8  -4696320.962 5  23373380.362    23373380.362    23373385.542
     -2968.121       -2312.832
 -24251672.125 9 -18862395.029 7  19414510.386    19414510.386    19414514.397
       648.992         504.778
  -5164013.233 7  -4016458.075 4  23179407.734    23179407.734    23179414.552
     -4044.289       -3145.544
   -279106.789 6   -217085.457 6  24252726.953    24252726.953    24252730.448
       466.551         362.875
  -3588065.848 7  -2790729.259 6  23662349.499    23662349.499    23662352.764
     -2155.221       -1676.288
 05 11 14  1 18  0.0000000  0 13G21G01G20G14G06G16G25G23G30R18R17R08-0.000000005
                                R07
  -1960367.220 7  -1527544.919 2  25100124.483    25100124.483    25100134.500
      2329.947        1815.554
 -21081738.129 9 -16427334.592 7  20670949.096    20670949.096    20670954.876
      -926.417        -721.871
   -144474.554 6   -112565.379 3  25033135.978    25033135.978    25033144.878
     -1026.248        -799.695
 -16070325.032 8 -12522339.728 6  22121528.925    22121528.925    22121535.392
     -3172.579       -2472.151
 -17465221.021 9 -13609257.069 7  21283914.309    21283914.309    21283920.318
     -1386.399       -1080.305
 -12280168.477 8  -9568954.785 6  21851045.953    21851045.953    21851051.419
      1771.088        1380.052
 -22057145.351 9 -17187389.693 7  20823860.963    20823860.963    20823865.256
      1034.346         806.003
  -2059170.955 6  -1604548.053 3  24923009.100    24923009.100    24923008.413
      3412.907        2659.429
  -5937872.141 8  -4626930.157 5  23390326.131    23390326.131    23390332.942
     -2969.190       -2313.642
 -24270758.698 9 -18877240.129 7  19410951.528    19410951.528    19410954.965
       622.896         484.471
  -5042569.719 7  -3922002.101 4  23202095.048    23202095.048    23202101.923
     -4052.454       -3151.911
   -292768.183 6   -227710.996 6  24250176.082    24250176.082    24250179.635
       443.627         345.015
  -3523184.493 7  -2740266.040 6  23674473.488    23674473.488    23674475.092
     -2170.885       -1688.462
 05 11 14  1 18 30.0000000  0 13G21G01G20G14G06G16G25G23G30R18R17R08-0.000000007
                                R07
  -2030280.175 6  -1582022.304 2  25086820.823    25086820.823    25086831.068
      2330.142        1815.711
 -21053671.769 9 -16405464.711 7  20676289.946    20676289.946    20676296.013
      -945.365        -736.670
   -113499.725 7    -88429.244 3  25039030.399    25039030.399    25039039.328
     -1039.382        -809.858
 -15975006.289 8 -12448065.442 6  22139666.956    22139666.956    22139673.338
     -3182.719       -2480.004
 -17423399.841 9 -13576669.142 7  21291872.685    21291872.685    21291878.494
     -1402.339       -1092.711
 -12333184.421 9  -9610265.867 6  21840957.593    21840957.593    21840962.974
      1762.621        1373.479
 -22088064.817 9 -17211482.756 7  20817976.818    20817976.818    20817981.625
      1026.290         799.706
  -2161469.888 7  -1684261.598 3  24903538.656    24903538.656    24903543.893
      3406.436        2654.324
  -5848800.668 8  -4557523.850 5  23407276.327    23407276.327    23407281.994
     -2969.547       -2313.919
 -24289073.107 9 -18891484.653 7  19407536.243    19407536.243    19407539.738
       597.426         464.646
  -4920898.076 7  -3827368.699 4  23224824.589    23224824.589    23224831.349
     -4059.823       -3157.656
   -305751.315 6   -237809.000 6  24247751.354    24247751.354    24247756.166
       421.207         327.621
  -3457846.336 7  -2689447.562 6  23686684.667    23686684.667    23686686.042
     -2185.747       -1700.031
 05 11 14  1 19  0.0000000  0 13G21G01G20G14G06G16G25G23G30R18R17R08-0.000000005
                                R07
  -2100178.067 7  -1636488.017 3  25073519.158    25073519.158    25073531.092
      2329.512        1815.158
 -21025019.142 9 -16383138.002 7  20681742.390    20681742.390    20681748.286
      -964.996        -751.946
    -82114.106 6    -63972.971 3  25045002.877    25045002.877    25045009.946
     -1053.159        -820.653
 -15879365.304 8 -12373540.048 6  22157866.683    22157866.683    22157872.808
     -3193.552       -2488.489
 -17381084.496 9 -13543696.155 7  21299925.228    21299925.228    21299930.666
     -1418.906       -1105.630
 -12385928.731 9  -9651365.278 6  21830920.630    21830920.630    21830925.581
      1753.444        1366.331
 -22118724.219 9 -17235373.175 7  20812142.594    20812142.594    20812147.144
      1017.466         792.840
  -2263555.302 6  -1763808.701 3  24884112.243    24884112.243    24884119.340
      3399.098        2648.610
  -5759700.141 8  -4488094.912 5  23424232.049    23424232.049    23424237.114
     -2970.724       -2314.850
 -24306604.414 9 -18905120.089 7  19404266.595    19404266.595    19404270.662
       571.163         444.226
  -4798990.617 7  -3732551.842 4  23247597.774    23247597.774    23247604.936
     -4067.577       -3163.625
   -318045.346 6   -247371.007 6  24245457.094    24245457.094    24245461.162
       398.166         309.652
  -3392044.681 7  -2638268.585 6  23698980.880    23698980.880    23698983.688
     -2201.254       -1712.082
 05 11 14  1 19 30.0000000  0 13G21G01G20G14G06G16G25G23G30R18R17R08-0.000000002
                                R07
  -2170064.698 7  -1690944.893 3  25060218.382    25060218.382    25060229.686
      2328.999        1814.807
 -20995787.542 9 -16360360.142 7  20687304.930    20687304.930    20687310.968
      -984.297        -766.981
    -50326.359 6    -39203.366 3  25051050.707    25051050.707    25051061.754
     -1066.532        -831.092
 -15783411.207 8 -12298770.674 6  22176126.552    22176126.552    22176133.163
     -3203.888       -2496.525
 -17338282.993 8 -13510344.356 7  21308069.908    21308069.908    21308076.032
     -1435.031       -1118.203
 -12438408.321 9  -9692258.426 6  21820934.093    21820934.093    21820938.529
      1744.653        1359.457
 -22149128.432 9 -17259064.765 7  20806356.920    20806356.920    20806361.785
      1008.954         786.197
  -2365430.729 7  -1843192.201 3  24864726.481    24864726.481    24864732.319
      3392.009        2643.165
  -5670578.070 8  -4418649.175 5  23441191.335    23441191.335    23441198.003
     -2971.366       -2315.361
 -24323359.102 9 -18918151.496 7  19401142.159    19401142.159    19401146.284
       545.271         424.085
  -4676856.197 7  -3637558.536 4  23270413.332    23270413.332    23270419.405
     -4074.925       -3169.420
   -329657.353 7   -256402.583 6  24243287.866    24243287.866    24243292.392
       375.371         291.964
  -3325790.832 7  -2586737.855 6  23711361.792    23711361.792    23711363.969
     -2216.236       -1723.745
 05 11 14  1 20  0.0000000  0 13G21G01G20G14G06G16G25G23G30R18R17R08-0.000000002
                                R07
  -2239943.211 7  -1745395.482 3  25046925.567    25046925.567    25046933.609
      2328.919        1814.693
 -20965983.336 9 -16337136.105 7  20692976.249    20692976.249    20692982.144
     -1003.187        -781.691
    -18144.024 7    -14126.318 2  25057176.027    25057176.027    25057182.924
     -1079.495        -841.150
 -15687152.008 8 -12223763.573 6  22194443.920    22194443.920    22194449.443
     -3213.847       -2504.265
 -17295002.526 8 -13476619.348 7  21316306.518    21316306.518    21316312.299
     -1450.774       -1130.480
 -12490628.698 9  -9732949.584 6  21810996.805    21810996.805    21811001.441
      1736.195        1352.868
 -22179281.480 9 -17282560.638 7  20800619.185    20800619.185    20800623.936
      1000.742         779.831
  -2467098.917 7  -1922414.126 3  24845382.170    24845382.170    24845382.743
      3385.307        2637.914
  -5581440.987 8  -4349191.746 5  23458154.055    23458154.055    23458159.492
     -2971.631       -2315.533
 -24339342.277 9 -18930582.828 7  19398161.189    19398161.189    19398165.944
       519.754         404.262
  -4554504.454 7  -3542396.099 4  23293269.909    23293269.909    23293275.581
     -4082.102       -3174.979
   -340592.994 7   -264908.046 6  24241245.998    24241245.998    24241250.696
       353.174         274.687
  -3259094.240 7  -2534862.790 6  23723825.363    23723825.363    23723827.941
     -2230.694       -1734.979
 05 11 14  1 20 30.0000000  0 13G21G01G20G14G06G16G25G23G30R18R17R08-0.000000004
                                R07
  -2309805.888 7  -1799833.788 3  25033628.908    25033628.908    25033635.490
      2328.244        1814.186
 -20935602.448 9 -16313462.685 7  20698757.818    20698757.818    20698763.714
     -1022.539        -796.776
     14435.487 7     11260.239 2  25063377.889    25063377.889    25063387.047
     -1092.832        -851.556
 -15590586.090 8 -12148517.456 6  22212819.708    22212819.708    22212826.634
     -3224.221       -2512.371
 -17251239.903 9 -13442518.630 7  21324634.563    21324634.563    21324639.342
     -1467.023       -1143.126
 -12542585.388 9  -9773435.273 6  21801109.775    21801109.775    21801114.755
      1727.251        1345.899
 -22209177.306 9 -17305856.091 7  20794929.998    20794929.998    20794934.662
       991.966         772.974
  -2568552.390 7  -2001468.770 3  24826075.076    24826075.076    24826080.085
      3377.951        2632.152
  -5492284.950 8  -4279719.559 5  23475118.931    23475118.931    23475125.542
     -2972.476       -2316.215
 -24354549.143 9 -18942410.363 7  19395325.027    19395325.027    19395330.126
       493.731         383.996
  -4431937.477 7  -3447066.282 4  23316165.922    23316165.922    23316173.084
     -4089.298       -3180.525
   -350847.476 6   -272883.773 6  24239330.622    24239330.622    24239334.174
       330.162         256.804
  -3191953.565 7  -2482642.336 6  23736372.175    23736372.175    23736375.154
     -2245.562       -1746.538
 05 11 14  1 21  0.0000000  0 13G21G01G20G14G06G16G25G23G30R18R17R08-0.000000001
                                R07
  -2379641.390 7  -1854250.952 2  25020339.627    25020339.627    25020349.386
      2326.885        1813.176
 -20904637.290 9 -16289334.000 7  20704650.196    20704650.196    20704656.263
     -1042.441        -812.304
     47418.536 7     36961.216 3  25069654.555    25069654.555    25069659.849
     -1106.564        -862.269
 -15493707.265 8 -12073027.517 6  22231255.569    22231255.569    22231261.522
     -3235.008       -2520.772
 -17206988.488 9 -13408037.017 7  21333054.455    21333054.455    21333060.894
     -1483.694       -1156.138
 -12594270.219 9  -9813709.138 6  21791274.532    21791274.532    21791278.854
      1717.765        1338.543
 -22238805.797 9 -17328943.234 8  20789291.761    20789291.761    20789296.683
       982.634         765.678
  -2669780.504 6  -2080347.837 3  24806813.441    24806813.441    24806815.845
      3369.779        2625.764
  -5403102.706 8  -4210226.950 5  23492089.842    23492089.842    23492096.825
     -2973.748       -2317.181
 -24368971.360 9 -18953627.592 7  19392636.125    19392636.125    19392640.536
       467.118         363.290
  -4309149.285 7  -3351564.405 4  23339104.536    23339104.536    23339109.521
     -4097.175       -3186.699
   -360411.904 6   -280322.765 6  24237544.934    24237544.934    24237547.455
       306.675         238.546
  -3124364.537 7  -2430073.139 6  23749002.441    23749002.441    23749005.879
     -2260.884       -1758.473
 05 11 14  1 21 30.0000000  0 13G21G01G20G14G06G16G25G23G30R18R17R08-0.000000002
                                R07
  -2449463.037 7  -1908657.318 2  25007052.390    25007052.390    25007057.970
      2326.845        1813.145
 -20873104.536 9 -16264763.025 7  20710651.046    20710651.046    20710656.684
     -1060.859        -826.622
     80787.311 6     62962.791 3  25076003.156    25076003.156    25076011.627
     -1118.989        -871.936
 -15396534.185 8 -11997308.297 6  22249747.166    22249747.166    22249752.861
     -3244.302       -2528.006
 -17162265.487 8 -13373187.953 7  21341564.622    21341564.622    21341570.832
     -1498.919       -1168.005
 -12645699.088 9  -9853783.550 6  21781487.899    21781487.899    21781492.678
      1709.723        1332.241
 -22268181.131 9 -17351833.109 8  20783701.932    20783701.932    20783706.740
       974.644         759.471
  -2770796.067 6  -2159061.264 3  24787589.328    24787589.328    24787594.307
      3363.342        2620.779
  -5313910.997 8  -4140726.967 5  23509063.172    23509063.172    23509068.323
     -2973.537       -2317.078
 -24382624.610 8 -18964246.743 7  19390089.487    19390089.487    19390094.586
       441.973         343.756
  -4186158.052 7  -3255904.535 4  23362080.261    23362080.261    23362086.621
     -4103.148       -3191.337
   -369303.199 6   -287238.230 6  24235884.304    24235884.304    24235888.659
       284.838         221.527
  -3056347.213 7  -2377170.854 6  23761714.370    23761714.370    23761717.235
     -2274.700       -1769.247
 05 11 14  1 22  0.0000000  0 13G21G01G20G14G06G16G25G23G30R18R17R08-0.000000001
                                R07
  -2519255.932 6  -1963041.265 2  24993769.295    24993769.295    24993778.768
      2325.775        1812.302
 -20840992.937 9 -16239741.005 7  20716761.360    20716761.360    20716767.513
     -1080.168        -841.692
    114552.017 6     89272.868 2  25082426.871    25082426.871    25082429.876
     -1132.249        -882.267
 -15299057.189 8 -11921352.266 6  22268296.625    22268296.625    22268302.664
     -3254.416       -2535.907
 -17117060.599 8 -13337963.397 7  21350167.566    21350167.566    21350173.605
     -1515.032       -1180.530
 -12696860.041 9  -9893649.199 6  21771752.175    21771752.175    21771756.754
      1700.724        1325.227
 -22297290.019 9 -17374515.357 8  20778162.889    20778162.889    20778167.182
       965.708         752.457
  -2871584.011 7  -2237597.468 3  24768409.654    24768409.654    24768413.489
      3355.601        2614.802
  -5224698.454 8  -4071210.758 5  23526038.803    23526038.803    23526045.270
     -2974.255       -2317.571
 -24395497.336 9 -18974258.831 7  19387689.254    19387689.254    19387694.525
       415.918         323.490
  -4062957.515 7  -3160081.943 4  23385095.237    23385095.237    23385098.732
     -4110.301       -3196.923
   -377507.562 7   -293619.436 6  24234352.430    24234352.430    24234355.294
       261.931         203.714
  -2987892.301 7  -2323928.207 6  23774506.478    23774506.478    23774509.285
     -2289.263       -1780.557
 05 11 14  1 22 30.0000000  0 13G21G01G20G14G06G16G25G23G30R18R17R08 0.000000000
                                R07
  -2589021.277 7  -2017403.763 2  24980495.513    24980495.513    24980502.095
      2324.847        1811.560
 -20808308.041 9 -16214272.261 7  20722981.002    20722981.002    20722987.012
     -1099.163        -856.504
    148705.748 7    115886.100 3  25088926.657    25088926.657    25088932.610
     -1145.011        -892.170
 -15201283.674 8 -11845165.182 6  22286902.673    22286902.673    22286908.340
     -3264.127       -2543.475
 -17071379.995 9 -13302368.133 7  21358859.773    21358859.773    21358866.041
     -1530.697       -1192.747
 -12747757.586 8  -9933309.613 6  21762066.539    21762066.539    21762071.232
      1692.079        1318.517
 -22326135.536 9 -17396992.408 8  20772673.700    20772673.700    20772678.164
       956.966         745.692
  -2972146.153 7  -2315957.623 3  24749274.141    24749274.141    24749278.606
      3348.174        2608.923
  -5135470.675 8  -4001682.677 5  23543018.569    23543018.569    23543024.808
     -2974.625       -2317.857
 -24407594.199 9 -18983667.450 7  19385433.674    19385433.674    19385438.257
       390.175         303.480
  -3939555.388 7  -3064102.527 4  23408149.696    23408149.696    23408155.884
     -4116.788       -3201.931
   -385031.296 7   -299471.243 6  24232947.224    24232947.224    24232950.146
       239.297         186.096
  -2919008.327 7  -2270351.823 6  23787379.563    23787379.563    23787383.229
     -2303.345       -1791.483
 05 11 14  1 23  0.0000000  0 13G21G01G20G14G06G16G25G23G30R18R17R08 0.000000002
                                R07
  -2658754.485 7  -2071741.181 3  24967226.088    24967226.088    24967232.728
      2324.037        1810.956
 -20775048.443 9 -16188355.696 7  20729310.234    20729310.234    20729316.130
     -1118.088        -871.246
    183248.329 7    142802.305 2  25095502.347    25095502.347    25095507.957
     -1157.759        -902.159
 -15103214.502 8 -11768747.718 6  22305564.510    22305564.510    22305570.004
     -3273.747       -2550.954
 -17025223.137 9 -13266401.768 7  21367643.944    21367643.944    21367649.983
     -1546.357       -1204.957
 -12798389.864 8  -9972763.311 6  21752431.890    21752431.890    21752436.268
      1683.467        1311.799
 -22354713.321 9 -17419260.823 7  20767235.586    20767235.586    20767240.222
       948.282         738.921
  -3072477.484 7  -2394137.998 3  24730182.780    24730182.780    24730186.872
      3340.538        2603.070
  -5046226.381 8  -3932141.726 5  23560000.617    23560000.617    23560008.086
     -2974.930       -2318.128
 -24418912.774 8 -18992470.733 7  19383322.287    19383322.287    19383327.157
       364.465         283.472
  -3815954.421 7  -2967968.456 4  23431237.846    23431237.846    23431243.976
     -4123.336       -3207.017
   -391871.977 6   -304791.828 6  24231669.443    24231669.443    24231674.484
       216.690         168.557
  -2849698.294 7  -2216444.081 6  23800330.828    23800330.828    23800334.724
     -2317.235       -1802.292
 05 11 14  1 23 30.0000000  0 13G21G01G20G14G06G16G25G23G30R18R17R08 0.000000001
                                R07
  -2728458.367 7  -2126055.731 3  24953960.579    24953960.579    24953970.710
      2323.237        1810.329
 -20741220.587 9 -16161996.336 7  20735747.576    20735747.576    20735753.156
     -1136.793        -885.801
    218172.444 6    170015.831 2  25102144.787    25102144.787    25102152.886
     -1170.288        -911.892
 -15004857.431 8 -11692105.900 6  22324280.805    22324280.805    22324287.244
     -3283.075       -2558.262
 -16978597.308 9 -13230069.961 7  21376516.398    21376516.398    21376522.608
     -1561.714       -1216.929
 -12848762.383 9 -10012014.582 6  21742846.082    21742846.082    21742850.661
      1675.025        1305.228
 -22383027.805 9 -17441324.054 7  20761847.539    20761847.539    20761852.118
       939.670         732.190
  -3172580.524 7  -2472140.408 3  24711130.548    24711130.548    24711139.191
      3333.322        2597.400
  -4956971.919 7  -3862592.922 5  23576984.170    23576984.170    23576990.952
     -2974.980       -2318.139
 -24429458.324 9 -19000672.779 7  19381356.161    19381356.161    19381360.687
       338.867         263.573
  -3692161.029 7  -2871684.732 4  23454362.830    23454362.830    23454369.247
     -4129.541       -3211.841
   -398035.264 7   -309585.529 6  24230519.550    24230519.550    24230522.472
       194.439         151.204
  -2779970.469 7  -2162211.358 6  23813360.743    23813360.743    23813365.728
     -2330.902       -1812.928
 05 11 14  1 24  0.0000000  0 13G21G01G20G14G06G16G25G23G30R18R17R08 0.000000000
                                R07
  -2798129.062 7  -2180344.358 3  24940701.625    24940701.625    24940712.442
      2321.422        1808.911
 -20706824.574 9 -16135194.251 7  20742292.839    20742292.839    20742298.505
     -1156.406        -901.094
    253476.708 7    197525.533 2  25108865.247    25108865.247    25108871.600
     -1183.533        -922.242
 -14906214.195 8 -11615241.135 6  22343052.269    22343052.269    22343058.565
     -3293.227       -2566.161
 -16931503.149 9 -13193373.225 7  21385477.503    21385477.503    21385483.741
     -1578.035       -1229.620
 -12898874.513 9 -10051062.952 6  21733309.761    21733309.761    21733314.426
      1665.670        1297.917
 -22411076.930 9 -17463180.522 7  20756509.679    20756509.679    20756514.229
       930.136         724.779
  -3272451.810 7  -2549962.144 3  24692127.016    24692127.016    24692131.223
      3324.820        2590.780
  -4867707.288 8  -3793036.156 5  23593972.425    23593972.425    23593980.524
     -2976.042       -2319.008
 -24439230.695 9 -19008273.443 7  19379533.711    19379533.711    19379538.180
       312.430         242.979
  -3568177.167 6  -2775252.912 4  23477522.976    23477522.976    23477529.507
     -4136.119       -3217.001
   -403520.313 7   -313851.759 6  24229494.911    24229494.911    24229499.266
       171.086         133.073
  -2709828.418 7  -2107656.474 5  23826469.589    23826469.589    23826472.053
     -2345.389       -1824.196
 05 11 14  1 24 30.0000000  0 13G21G01G20G14G06G16G25G23G30R18R17R08 0.000000002
                                R07
  -2867756.344 7  -2234599.171 3  24927452.783    24927452.783    24927461.683
      2320.381        1808.077
 -20671853.663 9 -16107944.193 7  20748947.734    20748947.734    20748953.401
     -1175.050        -915.623
    289166.942 7    225336.041 3  25115654.353    25115654.353    25115662.967
     -1195.869        -931.824
 -14807279.974 8 -11538149.595 6  22361879.085    22361879.085    22361885.152
     -3302.414       -2573.294
 -16883934.625 8 -13156306.858 7  21394529.540    21394529.540    21394536.094
     -1593.336       -1241.547
 -12948718.620 9 -10089902.483 6  21723824.639    21723824.639    21723829.561
      1657.216        1291.339
 -22438851.143 9 -17484822.751 7  20751224.511    20751224.511    20751229.204
       921.420         718.005
  -3372080.757 7  -2627595.068 3  24673169.494    24673169.494    24673174.016
      3317.140        2584.781
  -4778425.544 8  -3723466.058 5  23610960.755    23610960.755    23610968.167
     -2976.132       -2319.047
 -24448222.291 9 -19015266.875 7  19377856.705    19377856.705    19377861.403
       286.922         223.166
  -3444002.557 7  -2678672.681 4  23500720.963    23500720.963    23500725.145
     -4142.089       -3221.632
   -408319.889 6   -317584.825 6  24228597.177    24228597.177    24228602.161
       148.767         115.719
  -2639268.666 7  -2052776.714 5  23839653.872    23839653.872    23839657.883
     -2358.718       -1834.552
 05 11 14  1 25  0.0000000  0 13G21G01G20G14G06G16G25G23G30R18R17R08 0.000000007
                                R07
  -2937344.689 7  -2288823.626 3  24914209.003    24914209.003    24914218.648
      2318.601        1806.706
 -20636316.218 9 -16080252.686 7  20755710.086    20755710.086    20755716.182
     -1194.292        -930.638
    325233.426 7    253439.702 2  25122520.459    25122520.459    25122524.437
     -1208.781        -941.886
 -14708064.792 8 -11460839.129 6  22380759.388    22380759.388    22380765.656
     -3312.157       -2580.885
 -16835900.862 8 -13118877.959 7  21403670.245    21403670.245    21403676.513
     -1609.157       -1253.885
 -12998302.444 9 -10128539.185 6  21714389.121    21714389.121    21714393.786
      1648.129        1284.279
 -22466356.069 9 -17506255.158 7  20745990.532    20745990.532    20745995.140
       912.024         710.673
  -3471472.028 7  -2705042.793 3  24654254.249    24654254.249    24654259.343
      3308.750        2578.217
  -4689135.093 7  -3653889.199 5  23627953.642    23627953.642    23627961.255
     -2976.728       -2319.510
 -24456440.476 9 -19021658.744 7  19376324.669    19376324.669    19376328.909
       260.779         202.822
  -3319647.569 7  -2581952.156 4  23523952.006    23523952.006    23523957.048
     -4148.583       -3226.703
   -412441.840 6   -320790.854 6  24227828.506    24227828.506    24227832.803
       125.730          97.797
  -2568302.200 7  -1997580.627 5  23852915.971    23852915.971    23852919.179
     -2372.503       -1845.293
 05 11 14  1 25 30.0000000  0 13G21G01G20G14G06G16G25G23G30R18R17R08 0.000000009
                                R07
  -3006884.971 7  -2343010.609 2  24900976.650    24900976.650    24900985.207
      2317.262        1805.652
 -20600207.320 9 -16052115.899 7  20762581.445    20762581.445    20762587.512
     -1212.970        -945.165
    361679.860 7    281839.423 3  25129455.868    25129455.868    25129464.711
     -1221.072        -951.478
 -14608565.405 8 -11383307.225 6  22399692.886    22399692.886    22399698.953
     -3321.171       -2587.959
 -16787397.605 9 -13081083.207 7  21412900.046    21412900.046    21412906.028
     -1624.398       -1265.787
 -13047620.175 9 -10166968.553 6  21705004.530    21705004.530    21705008.851
      1639.620        1277.649
 -22493584.095 9 -17527471.781 7  20740809.273    20740809.273    20740813.737
       903.114         703.711
  -3570616.744 7  -2782298.390 4  24635389.976    24635389.976    24635395.614
      3300.845        2572.034
  -4599830.644 8  -3584301.440 5  23644948.917    23644948.917    23644955.385
     -2976.879       -2319.609
 -24463879.789 9 -19027444.847 7  19374936.942    19374936.942    19374941.297
       235.117         182.875
  -3195111.185 7  -2485090.583 4  23547217.286    23547217.286    23547220.494
     -4154.091       -3230.951
   -415880.060 6   -323465.075 6  24227187.585    24227187.585    24227191.538
       103.277          80.318
  -2496927.107 7  -1942066.719 5  23866254.477    23866254.477    23866256.654
     -2385.803       -1855.630
 05 11 14  1 26  0.0000000  0 13G21G01G20G14G06G16G25G23G30R18R17R08 0.000000009
                                R07
  -3076381.358 7  -2397163.382 3  24887752.883    24887752.883    24887761.927
      2315.485        1804.322
 -20563534.531 9 -16023539.705 7  20769559.884    20769559.884    20769566.009
     -1231.986        -959.991
    398498.037 7         0.000 1  25136461.453           0.000           0.000
     -1233.697          -0.000
 -14508791.061 8 -11305561.062 6  22418679.580    22418679.580    22418685.561
     -3330.542       -2595.237
 -16738433.339 8 -13042929.240 7  21422217.924    21422217.924    21422224.277
     -1639.980       -1277.909
 -13096678.291 9 -10205195.625 6  21695669.108    21695669.108    21695673.687
      1630.757        1270.738
 -22520540.431 9 -17548476.715 7  20735679.423    20735679.423    20735683.916
       893.843         696.508
  -3669518.496 7  -2859364.665 3  24616566.911    24616566.911    24616571.748
      3292.427        2565.515
  -4510519.677 7  -3514708.582 4  23661942.494    23661942.494    23661949.992
     -2977.322       -2319.960
 -24470547.036 9 -19032630.432 7  19373693.956    19373693.956    19373698.196
       209.171         162.684
  -3070402.332 7         0.000 1  23570513.455    23570513.455           0.000
     -4160.043          -0.000
   -418641.289 6   -325612.705 6  24226671.254    24226671.254    24226674.061
        80.603          62.726
  -2425154.339 7  -1886243.526 5  23879667.772    23879667.772    23879670.694
     -2399.197       -1866.012
 05 11 14  1 26 30.0000000  0 13G21G01G20G14G06G16G25G23G30R18R17R08 0.000000009
                                R07
  -3145830.145 7  -2451279.080 3  24874534.836    24874534.836    24874546.942
      2314.421        1803.411
 -20526298.257 9 -15994524.433 7  20776646.055    20776646.055    20776652.093
     -1250.316        -974.287
    435685.695 7         0.000 1  25143539.517           0.000           0.000
     -1245.461          -0.000
 -14408743.768 8 -11227602.207 6  22437717.956    22437717.956    22437724.280
     -3339.192       -2601.966
 -16689008.855 9 -13004416.655 7  21431623.426    21431623.426    21431629.579
     -1654.845       -1289.502
 -13145476.659 8 -10243220.281 6  21686382.888    21686382.888    21686387.639
      1622.547        1264.324
 -22547223.161 9 -17569268.433 7  20730601.971    20730601.971    20730606.378
       885.114         689.691
  -3768173.959 7  -2936239.034 3  24597793.608    24597793.608    24597798.502
      3284.692        2559.461
  -4421202.389 7  -3445110.764 5  23678938.622    23678938.622    23678946.406
     -2977.091       -2319.805
 -24476441.473 8 -19037214.969 7  19372594.268    19372594.268    19372598.966
       183.890         143.013
  -2945521.056 7  -2290965.041 4  23593842.720    23593842.720    23593848.106
     -4165.241       -3239.615
   -420726.161 6   -327234.307 6  24226281.739    24226281.739    24226285.749
        58.591          45.572
  -2352986.716 7  -1830113.156 5  23893154.748    23893154.748    23893155.837
     -2411.847       -1875.886
 05 11 14  1 27  0.0000000  0 13G21G01G20G14G06G16G25G23G30R18R17R08 0.000000006
                                R07
  -3215230.021 7  -2505356.682 3  24861329.121    24861329.121    24861338.851
      2312.146        1801.664
 -20488501.219 9 -15965072.205 7  20783838.573    20783838.573    20783843.953
     -1269.610        -989.301
    473239.438 7    368768.701 2  25150684.184    25150684.184    25150692.770
     -1258.188        -980.381
 -14308428.104 8 -11149434.250 6  22456808.184    22456808.184    22456813.449
     -3348.641       -2609.305
 -16639127.816 9 -12965548.321 7  21441114.725    21441114.725    21441121.565
     -1670.674       -1301.834
 -13194016.891 9 -10281043.822 6  21677145.754    21677145.754    21677150.590
      1613.347        1257.153
 -22573632.206 9 -17589846.893 7  20725576.453    20725576.453    20725581.032
       875.378         682.119
  -3866581.866 7  -3012920.544 3  24579071.022    24579071.022    24579071.108
      3275.730        2552.489
  -4331881.108 7  -3375509.889 5  23695937.259    23695937.259    23695943.469
     -2977.713       -2320.298
 -24481565.521 8 -19041200.321 7  19371639.012    19371639.012    19371643.194
       157.575         122.570
  -2820477.226 7  -2193708.767 4  23617202.056    23617202.056    23617203.202
     -4171.259       -3244.361
   -422136.545 6   -328331.325 6  24226018.064    24226018.064    24226022.361
        35.379          27.519
  -2280430.212 7  -1773680.355 5  23906714.741    23906714.741    23906714.512
     -2425.312       -1886.357
 05 11 14  1 27 30.0000000  0 13G21G01G20G14G06G16G25G23G30R18R17R08-0.000000003
                                R07
  -3284563.216 7  -2559382.302 3  24848135.746    24848135.746    24848146.621
      2310.118        1800.111
 -20450129.040 9 -15935171.805 7  20791140.485    20791140.485    20791146.037
     -1288.585       -1004.085
    511172.246 7    398326.668 2  25157902.658    25157902.658    25157911.730
     -1270.686        -990.118
 -14207831.249 8 -11071047.157 6  22475950.250    22475950.250    22475957.548
     -3357.832       -2616.474
 -16588776.454 9 -12926313.504 7  21450696.491    21450696.491    21450702.501
     -1686.131       -1313.869
 -13242283.501 9 -10318654.113 6  21667961.090    21667961.090    21667965.669
      1604.403        1250.154
 -22599750.559 9 -17610198.844 7  20720606.077    20720606.077    20720610.942
       865.817         674.662
  -3964723.609 7  -3089394.635 3  24560392.253    24560392.253    24560397.605
      3267.047        2545.736
  -4242541.371 7  -3305894.604 5  23712936.312    23712936.312    23712944.725
     -2978.170       -2320.633
 -24485904.416 9 -19044574.984 7  19370829.804    19370829.804    19370834.159
       131.611         102.353
  -2695255.822 7  -2096314.405 4  23640594.291    23640594.291    23640597.900
     -4176.840       -3248.635
   -422857.325 6   -328891.991 6  24225882.856    24225882.856    24225888.299
        12.682           9.850
  -2207473.050 7  -1716935.990 5  23920345.537    23920345.537    23920348.344
     -2438.510       -1896.636
 05 11 14  1 28  0.0000000  0 13G21G01G20G14G06G16G25G23G30R18R17R08-0.000000001
                                R07
  -3353843.853 7  -2613367.037 3  24834952.888    24834952.888    24834960.215
      2308.309        1798.717
 -20411200.156 9 -15904837.608 7  20798548.266    20798548.266    20798554.104
     -1306.889       -1018.370
    549464.698 7    428164.885 2  25165191.464    25165191.464    25165197.474
     -1282.341        -999.215
 -14106972.753 8 -10992456.208 6  22495143.722    22495143.722    22495149.589
     -3366.298       -2623.090
 -16537973.957 9 -12886727.119 7  21460363.857    21460363.857    21460369.352
     -1700.933       -1325.409
 -13290294.441 9 -10356065.198 6  21658825.137    21658825.137    21658829.487
      1596.073        1243.711
 -22625593.962 9 -17630336.539 7  20715688.100    20715688.100    20715693.165
       856.844         667.674
  -4062614.557 7  -3165673.356 3  24541763.284    24541763.284    24541768.063
      3258.745        2539.307
  -4153201.165 7  -3236278.932 5  23729939.632    23729939.632    23729944.440
     -2978.041       -2320.541
 -24489476.138 9 -19047352.990 7  19370163.832    19370163.832    19370168.071
       106.256          82.635
  -2569881.947 7  -1998801.504 4  23664015.219    23664015.219    23664025.531
     -4181.693       -3252.487
   -422906.411 6   -328930.189 6  24225874.316    24225874.316    24225879.644
        -9.559          -7.420
  -2134137.173 7  -1659897.010 5  23934050.479    23934050.479    23934053.974
     -2450.829       -1906.179
 05 11 14  1 28 30.0000000  0 13G21G01G20G14G06G16G25G23G30R18R17R08-0.000000006
                                R07
  -3423072.481 7  -2667311.287 3  24821776.869    24821776.869    24821786.370
      2306.554        1797.337
 -20371719.085 9 -15874073.154 7  20806061.268    20806061.268    20806067.135
     -1325.364       -1032.751
    588111.138 6    458278.903 2  25172545.205    25172545.205    25172551.043
     -1294.332       -1008.563
 -14005859.221 8 -10913666.522 6  22514384.651    22514384.651    22514392.264
     -3374.828       -2629.730
 -16486725.332 8 -12846793.109 7  21470116.128    21470116.128    21470121.995
     -1715.840       -1336.994
 -13338053.259 9 -10393279.836 6  21649736.860    21649736.860    21649741.238
      1587.596        1237.087
 -22651164.276 9 -17650261.431 7  20710822.185    20710822.185    20710827.251
       847.601         660.471
  -4160254.855 7  -3241756.753 3  24523183.570    24523183.570    24523188.349
      3250.240        2532.637
  -4063864.917 7  -3166666.377 5  23746939.921    23746939.921    23746945.960
     -2977.983       -2320.512
 -24492284.310 8 -19049537.124 7  19369640.103    19369640.103    19369644.629
        80.747          62.813
  -2444359.829 7  -1901173.310 4  23687462.488    23687462.488    23687470.681
     -4186.731       -3256.360
   -422287.666 6   -328448.968 6  24225990.078    24225990.078    24225994.203
       -31.949         -24.854
  -2060429.425 7  -1602568.817 5  23947824.845    23947824.845    23947827.366
     -2463.247       -1915.865
 05 11 14  1 29  0.0000000  0 13G21G01G20G14G06G16G25G23G30R18R17R08-0.000000007
                                R07
  -3492232.869 7  -2721202.339 3  24808621.189    24808621.189    24808626.855
      2304.441        1795.610
 -20331673.487 9 -15842868.785 7  20813681.769    20813681.769    20813687.722
     -1344.079       -1047.324
    627122.808 7    488677.606 2  25179966.979    25179966.979    25179969.726
     -1306.272       -1017.872
 -13904479.796 8 -10834669.677 6  22533676.918    22533676.918    22533682.270
     -3383.569       -2636.525
 -16435019.011 9 -12806502.438 7  21479956.011    21479956.011    21479962.249
     -1730.991       -1348.833
 -13385546.416 9 -10430287.455 6  21640699.238    21640699.238    21640703.731
      1578.837        1230.292
 -22676446.309 9 -17669961.685 7  20706011.261    20706011.261    20706015.898
       838.104         653.071
  -4257628.087 7  -3317632.049 3  24504657.500    24504657.500    24504658.874
      3241.415        2525.807
  -3974519.483 7  -3097046.658 5  23763939.919    23763939.919    23763949.535
     -2978.092       -2320.573
 -24494316.147 8 -19051117.438 7  19369261.128    19369261.128    19369265.539
        54.974          42.735
  -2318680.733 6  -1803423.008 4  23710940.417    23710940.417    23710945.631
     -4191.809       -3260.274
   -420987.850 6   -327438.054 6  24226231.174    24226231.174    24226236.388
       -54.358         -42.214
  -1986340.266 7  -1544943.944 5  23961669.837    23961669.837    23961673.160
     -2475.878       -1925.695
 05 11 14  1 29 30.0000000  0 13G21G01G20G14G06G16G25G23G30R18R17R08-0.000000007
                                R07
  -3561326.837 7  -2775041.665 3  24795469.298    24795469.298    24795479.744
      2301.637        1793.474
 -20291069.301 9 -15811229.169 7  20821408.684    20821408.684    20821414.351
     -1363.088       -1062.148
    666492.424 7    519355.099 2  25187460.334    25187460.334    25187462.309
     -1318.519       -1027.406
 -13802841.829 8 -10755471.343 6  22553017.423    22553017.423    22553024.320
     -3392.525       -2643.546
 -16382861.574 9 -12765860.237 7  21489880.840    21489880.840    21489887.279
     -1746.383       -1360.835
 -13432778.843 9 -10467091.901 6  21631711.220    21631711.220    21631715.885
      1569.759        1223.192
 -22701443.600 9 -17689440.056 7  20701254.502    20701254.502    20701259.109
       828.174         645.336
  -4354736.198 7  -3393300.747 3  24486176.086    24486176.086    24486180.636
      3232.189        2518.598
  -3885170.711 7  -3027424.303 5  23780943.179    23780943.179    23780950.791
     -2978.677       -2321.060
 -24495576.430 9 -19052097.668 7  19369026.469    19369026.469    19369030.536
        28.846          22.436
  -2192849.977 6  -1705554.657 4  23734447.551    23734447.551    23734452.249
     -4197.110       -3264.485
   -419013.007 6   -325902.051 6  24226602.181    24226602.181    24226605.905
       -77.495         -60.279
  -1911878.898 7  -1487029.625 5  23975586.092    23975586.092    23975589.587
     -2488.409       -1935.418
 05 11 14  1 30  0.0000000  0 13G21G01G20G14G06G16G25G23G30R18R17R08-0.000000005
                                R07
  -3630347.564 7  -2828823.944 3  24782334.956    24782334.956    24782345.602
      2299.688        1791.929
 -20249903.829 9 -15779152.171 7  20829242.047    20829242.047    20829247.971
     -1381.286       -1076.335
    706221.883 7    550313.014 2  25195018.886    25195018.886    25195022.149
     -1330.115       -1036.457
 -13700944.699 8 -10676071.066 6  22572408.633    22572408.633    22572415.873
     -3400.646       -2649.850
 -16330250.889 8 -12724864.855 7  21499891.409    21499891.409    21499898.649
     -1761.005       -1372.207
 -13479747.086 9 -10503690.484 6  21622773.280    21622773.280    21622778.288
      1561.440        1216.702
 -22726150.604 9 -17708692.240 7  20696552.668    20696552.668    20696557.418
       818.915         638.111
  -4451572.554 7  -3468757.658 4  24467749.072    24467749.072    24467753.164
      3223.557        2511.877
  -3795815.225 7  -2957796.712 5  23797946.732    23797946.732    23797953.715
     -2978.350       -2320.817
 -24496062.751 9 -19052475.929 7  19368936.023    19368936.023    19368939.861
         3.592           2.783
  -2066872.097 7  -1607571.925 4  23757982.838    23757982.838    23757988.223
     -4201.607       -3267.933
   -416359.659 6   -323838.350 6  24227096.357    24227096.357    24227100.769
       -99.649         -77.507
  -1837045.749 7  -1428826.119 5  23989569.859    23989569.859    23989571.578
     -2500.419       -1944.788
 05 11 14  1 30 30.0000000  0 13G21G01G20G14G06G16G25G23G30R18R17R08-0.000000005
                                R07
  -3699299.336 7  -2882552.469 3  24769213.043    24769213.043    24769223.375
      2296.660        1789.635
 -20208185.255 9 -15746644.197 7  20837181.017    20837181.017    20837186.454
     -1400.451       -1091.255
    746301.906 7         0.000 1  25202647.591    25202647.591           0.000
     -1342.435          -0.000
 -13598797.874 8 -10596476.241 6  22591846.321    22591846.321    22591851.673
     -3409.646       -2656.829
 -16277195.743 9 -12683523.122 7  21509988.700    21509988.700    21509994.395
     -1776.500       -1384.301
 -13526457.979 9 -10540088.518 7  21613884.442    21613884.442    21613889.393
      1552.130        1209.438
 -22750572.799 9 -17727722.498 7  20691905.349    20691905.349    20691910.043
       808.677         630.118
  -4548141.067 7  -3544005.814 4  24449371.987    24449371.987    24449377.081
      3213.825        2504.236
  -3706460.894 7  -2888170.013 5  23814951.583    23814951.583    23814958.051
     -2979.035       -2321.341
 -24495782.469 9 -19052257.943 7  19368987.906    19368987.906    19368992.203
       -22.769         -17.689
  -1940755.846 6  -1509481.544 4  23781541.212    23781541.212    23781543.962
     -4206.696       -3271.844
   -413035.749 6   -321253.126 6  24227717.483    24227717.483    24227722.010
      -122.648         -95.424
  -1761852.116 7  -1370342.297 5  24003622.010    24003622.010    24003624.015
     -2513.037       -1954.575
 05 11 14  1 31  0.0000000  0 13G21G01G20G14G06G16G25G23G30R18R17R08-0.000000006
                                R07
  -3768179.392 7  -2936225.091 3  24756106.276    24756106.276    24756115.606
      2294.255        1787.780
 -20165915.091 9 -15713706.400 7  20845224.486    20845224.486    20845229.923
     -1418.737       -1105.503
    786730.075 6         0.000 1  25210339.403    25210339.403           0.000
     -1353.887          -0.000
 -13496403.917 8 -10516688.825 6  22611331.515    22611331.515    22611338.698
     -3417.758       -2663.183
 -16223698.267 9 -12641836.722 7  21520168.674    21520168.674    21520175.084
     -1791.156       -1395.723
 -13572912.221 9 -10576286.557 7  21605044.600    21605044.600    21605049.265
      1543.645        1202.857
 -22774708.626 9 -17746529.606 7  20687312.583    20687312.583    20687316.933
       799.167         622.743
  -4644439.028 7  -3619043.225 3  24431048.009    24431048.009    24431052.073
      3204.900        2497.319
  -3617108.613 8  -2818544.899 5  23831953.921    23831953.921    23831961.361
     -2978.870       -2321.171
 -24494735.866 9 -19051443.924 7  19369182.995    19369182.995    19369187.178
       -48.203         -37.471
  -1814503.601 7  -1411285.322 3  23805126.336    23805126.336    23805128.399
     -4211.150       -3275.327
   -409041.608 6   -318146.553 6  24228462.245    24228462.245    24228468.089
      -144.828        -112.657
  -1686301.123 7  -1311580.495 5  24017741.161    24017741.161    24017742.765
     -2524.857       -1963.772
 05 11 14  1 31 30.0000000  0 13G21G01G20G14G06G16G25G23G30R18R17R08-0.000000008
                                R07
  -3836982.575 7  -2989837.741 3  24743013.080    24743013.080    24743021.179
      2291.652        1785.689
 -20123092.705 9 -15680338.295 7  20853373.213    20853373.213    20853379.052
     -1437.082       -1119.815
    827505.912 6    644819.861 2  25218100.824    25218100.824    25218111.899
     -1365.387       -1063.948
 -13393763.324 8 -10436709.248 6  22630863.686    22630863.686    22630869.181
     -3425.937       -2669.543
 -16169758.402 9 -12599805.602 7  21530432.968    21530432.968    21530438.720
     -1805.834       -1407.139
 -13619107.956 9 -10612283.153 7  21596253.787    21596253.787    21596258.223
      1535.051        1196.139
 -22798554.603 9 -17765110.860 7  20682774.832    20682774.832    20682779.325
       789.539         615.205
  -4740461.977 7  -3693866.244 3  24412774.967    24412774.967    24412777.542
      3195.581        2490.068
  -3527757.182 7  -2748920.453 5  23848956.804    23848956.804    23848963.959
     -2978.788       -2321.124
 -24492921.858 9 -19050033.039 7  19369521.492    19369521.492    19369525.617
       -73.767         -57.350
  -1688119.102 7  -1312986.219 4  23828736.513    23828736.513    23828736.570
     -4215.529       -3278.731
   -404376.064 6   -314517.832 6  24229334.390    24229334.390    24229338.802
      -167.208        -130.038
  -1610395.200 7  -1252542.684 5  24031925.124    24031925.124    24031928.963
     -2536.558       -1972.855
 05 11 14  1 32  0.0000000  0 13G21G01G20G14G06G16G25G23G30R18R17R08-0.000000006
                                R07
  -3905701.026 7  -3043384.352 3  24729937.337    24729937.337    24729943.319
      2289.456        1783.928
 -20079713.839 9 -15646536.590 7  20861628.309    20861628.309    20861633.889
     -1454.906       -1133.698
    868632.901 6    676866.817 1  25225926.587    25225926.587    25225927.932
     -1376.283       -1072.419
 -13290873.856 8 -10356535.737 6  22650442.899    22650442.899    22650448.994
     -3433.451       -2675.418
 -16115372.364 9 -12557426.805 7  21540782.036    21540782.036    21540788.275
     -1819.901       -1418.117
 -13665039.800 9 -10648074.127 7  21587513.105    21587513.105    21587517.254
      1527.010        1189.888
 -22822103.872 9 -17783460.923 7  20678293.710    20678293.710    20678298.089
       780.367         608.095
  -4836200.852 7  -3768467.911 4  24394556.449    24394556.449    24394558.252
      3186.863        2483.292
  -3438401.867 7  -2679292.998 5  23865961.441    23865961.441    23865967.995
     -2978.230       -2320.706
 -24490336.712 9 -19048022.362 7  19370003.431    19370003.431    19370007.327
       -98.696         -76.730
  -1561599.458 7  -1214582.069 4  23852369.864    23852369.864    23852377.656
     -4219.011       -3281.435
   -399034.623 6   -310363.432 6  24230332.171    24230332.171    24230336.353
      -188.908        -146.909
  -1534133.044 7  -1193227.820 5  24046175.296    24046175.296    24046180.739
     -2547.652       -1981.498
 05 11 14  1 32 30.0000000  0 13G21G01G20G14G06G16G25G23G30R18R17R08-0.000000005
                                R07
  -3974337.531 7  -3096867.115 3  24716874.343    24716874.343    24716879.981
      2286.481        1781.636
 -20035786.122 9 -15612307.190 7  20869987.378    20869987.378    20869993.216
     -1473.338       -1148.060
    910102.036 6    709180.329 1  25233819.219    25233819.219    25233829.922
     -1387.839       -1081.423
 -13187744.561 8 -10276175.338 6  22670067.714    22670067.714    22670073.724
     -3441.602       -2681.748
 -16060548.333 8 -12514706.739 7  21551214.567    21551214.567    21551221.549
     -1834.697       -1429.653
 -13710714.423 9 -10683664.654 7  21578821.447    21578821.447    21578826.112
      1518.198        1183.010
 -22845360.990 9 -17801583.333 7  20673868.144    20673868.144    20673872.437
       770.385         600.284
  -4931659.860 7  -3842851.491 4  24376392.120    24376392.120    24376396.040
      3177.238        2475.797
  -3349049.509 7  -2609667.823 4  23882962.956    23882962.956    23882970.998
     -2978.328       -2320.769
 -24486986.592 9 -19045416.705 7  19370628.277    19370628.277    19370632.574
      -124.431         -96.760
  -1434954.731 7  -1116080.522 4  23876029.214    23876029.214    23876035.229
     -4223.501       -3285.173
   -393024.339 6   -305688.766 6  24231453.283    24231453.283    24231458.439
      -211.393        -164.415
  -1457525.610 7  -1133644.355 5  24060492.407    24060492.407    24060496.933
     -2559.300       -1990.544
 05 11 14  1 33  0.0000000  0 13G21G01G20G14G06G16G25G23G30R18R17R08-0.000000004
                                R07
  -4042887.292 6  -3150282.217 3  24703829.805    24703829.805    24703841.767
      2283.261        1779.144
 -19991308.462 9 -15577649.277 7  20878451.056    20878451.056    20878456.694
     -1491.929       -1162.531
    951913.696 6         0.000 1  25241774.434    25241774.434           0.000
     -1399.570          -0.000
 -13084375.674 8 -10195628.257 6  22689738.583    22689738.583    22689743.305
     -3449.781       -2688.136
 -16005285.765 9 -12471644.975 7  21561730.964    21561730.964    21561736.888
     -1849.548       -1441.207
 -13756129.653 9 -10719053.049 7  21570178.880    21570178.880    21570183.945
      1509.284        1176.066
 -22868321.841 9 -17819474.894 7  20669498.888    20669498.888    20669503.095
       760.216         592.382
  -5026833.605 7  -3917012.784 3  24358283.348    24358283.348    24358283.720
      3167.453        2468.111
  -3259698.373 7  -2540043.598 5  23899967.895    23899967.895    23899972.960
     -2978.567       -2320.921
 -24482869.512 8 -19042214.519 7  19371395.461    19371395.461    19371400.159
      -150.149        -116.791
  -1308185.757 7         0.000 1  23899709.610    23899709.610           0.000
     -4227.828          -0.000
   -386344.236 6   -300493.137 6  24232702.661    24232702.661    24232706.615
      -233.964        -181.947
  -1380573.686 7  -1073793.002 5  24074872.910    24074872.910    24074874.743
     -2570.991       -1999.654
 05 11 14  1 33 30.0000000  0 13G21G01G20G14G06G16G25G23G30R18R17R08-0.000000011
                                R07
  -4111360.806 7  -3203637.875 3  24690798.295    24690798.295    24690806.909
      2281.196        1777.508
 -19946295.619 9 -15542574.328 7  20887016.615    20887016.615    20887022.510
     -1509.242       -1176.023
    994051.906 6    774595.659 1  25249793.948    25249793.948    25249803.764
     -1410.073       -1098.745
 -12980783.279 8 -10114907.004 5  22709450.993    22709450.993    22709458.377
     -3456.632       -2693.495
 -15949600.075 9 -12428253.486 7  21572327.806    21572327.806    21572333.673
     -1863.129       -1451.792
 -13801298.966 9 -10754249.823 7  21561583.494    21561583.494    21561588.874
      1501.605        1170.086
 -22890998.558 9 -17837145.032 7  20665183.297    20665183.297    20665187.819
       751.233         585.367
  -5121732.504 7  -3990959.943 4  24340221.293    24340221.293    24340222.381
      3158.735        2461.405
  -3170362.600 7  -2470431.352 5  23916967.186    23916967.186    23916974.626
     -2977.513       -2320.172
 -24478000.901 8 -19038427.794 7  19372303.274    19372303.274    19372308.029
      -174.719        -135.908
  -1181309.182 7   -918800.527 4  23923412.855    23923412.855    23923417.668
     -4230.886       -3290.715
   -379008.268 6   -294787.404 6  24234071.766    24234071.766    24234078.469
      -255.384        -198.635
  -1303295.585 7  -1013687.903 5  24089316.460    24089316.460    24089319.439
     -2581.241       -2007.625
 05 11 14  1 34  0.0000000  0 13G21G01G20G14G06G16G25G23G30R18R17R08-0.000000005
                                R07
  -4179725.222 7  -3256908.558 3  24677790.831    24677790.831    24677799.131
      2277.281        1774.491
 -19900718.992 9 -15507060.084 7  20895689.590    20895689.590    20895695.142
     -1528.293       -1190.876
   1036544.162 6    807706.402 1  25257879.556    25257879.556    25257892.892
     -1421.852       -1107.953
 -12876940.253 8 -10033990.451 6  22729211.875    22729211.875    22729218.829
     -3465.278       -2700.215
 -15893463.232 9 -12384510.485 7  21583009.742    21583009.742    21583016.582
     -1878.423       -1463.743
 -13846192.809 9 -10789231.963 7  21553040.333    21553040.333    21553045.313
      1492.203        1162.787
 -22913359.644 9 -17854569.221 7  20660928.143    20660928.143    20660932.436
       740.403         576.906
  -5216324.049 7  -4064667.518 4  24322221.837    24322221.837    24322221.551
      3148.234        2453.187
  -3081013.145 7  -2400808.435 4  23933970.848    23933970.848    23933976.772
     -2978.191       -2320.626
 -24472350.938 9 -19034033.342 7  19373357.188    19373357.188    19373362.115
      -201.014        -156.340
  -1054298.594 6   -820014.439 4  23947138.347    23947138.347    23947142.300
     -4235.515       -3294.314
   -370986.802 6   -288548.490 6  24235570.932    24235570.932    24235575.343
      -278.443        -216.567
  -1225665.280 7   -953308.895 5  24103821.766    24103821.766    24103824.630
     -2593.188       -2016.928
 05 11 14  1 34 30.0000000  0 13G21G01G20G14G06G16G25G23G30R18R17R08-0.000000010
                                R07
  -4248010.713 7  -3310117.715 3  24664796.348    24664796.348    24664802.959
      2275.072        1772.776
 -19854613.022 9 -15471133.352 7  20904463.254    20904463.254    20904469.064
     -1545.405       -1204.200
   1079355.220 6         0.000 1  25266025.688    25266025.688           0.000
     -1432.100          -0.000
 -12772882.543 8  -9952906.617 5  22749013.728    22749013.728    22749020.024
     -3471.900       -2705.397
 -15836910.271 9 -12340443.249 7  21593771.752    21593771.752    21593777.934
     -1891.708       -1474.085
 -13890844.228 9 -10824025.188 6  21544543.581    21544543.581    21544548.274
      1484.649        1156.880
 -22935436.615 9 -17871772.035 7  20656727.209    20656727.209    20656731.502
       731.424         569.946
  -5310638.035 7  -4138158.848 4  24304272.592    24304272.592    24304278.287
      3139.470        2446.366
  -2991683.614 7  -2331200.999 4  23950969.906    23950969.906    23950975.629
     -2977.008       -2319.747
 -24465954.679 9 -19029058.440 7  19374549.686    19374549.686    19374554.269
      -225.338        -175.261
   -927190.834 6         0.000 1  23970883.648    23970883.648           0.000
     -4238.292          -0.000
   -362314.313 6   -281803.187 6  24237188.636    24237188.636    24237195.110
      -299.724        -233.133
  -1147720.317 7   -892685.166 5  24118388.207    24118388.207    24118391.301
     -2603.057       -2024.618
 05 11 14  1 35  0.0000000  0 13G21G01G20G14G06G16G25G23G30R18R17R08-0.000000011
                                R07
  -4316192.054 7  -3363245.712 3  24651821.991    24651821.991    24651828.373
      2271.428        1769.944
 -19807956.748 9 -15434777.814 7  20913342.160    20913342.160    20913347.626
     -1563.864       -1218.592
   1122504.970 6    874688.733 1  25274235.963    25274235.963    25274252.018
     -1443.327       -1124.669
 -12668590.354 8  -9871640.066 5  22768859.725    22768859.725    22768867.280
     -3479.766       -2711.490
 -15779920.626 9 -12296035.732 7  21604616.261    21604616.261    21604622.271
     -1906.392       -1485.486
 -13935231.173 9 -10858612.332 6  21536096.849    21536096.849    21536101.628
      1475.684        1149.881
 -22957205.171 9 -17888734.499 7  20652584.842    20652584.842    20652588.791
       720.971         561.795
  -5404649.655 7  -4211414.549 4  24286382.718    24286382.718    24286385.437
      3129.188        2438.302
  -2902352.166 7  -2261592.117 4  23967967.151    23967967.151    23967975.594
     -2977.135       -2319.856
 -24458789.859 9 -19023485.747 7  19375886.147    19375886.147    19375890.444
      -251.166        -195.354
   -799966.711 7   -622200.626 4  23994651.444    23994651.444    23994655.340
     -4241.996       -3299.094
   -352969.648 6   -274535.131 6  24238934.894    24238934.894    24238939.306
      -322.163        -250.564
  -1069441.625 7   -831801.850 5  24133015.716    24133015.716    24133019.383
     -2614.237       -2033.285
 05 11 14  1 35 30.0000000  0 13G21G01G20G14G06G16G25G23G30R18R17R08-0.000000011
                                R07
  -4384274.191 7  -3416296.459 3  24638864.069    24638864.069    24638872.740
      2267.864        1767.149
 -19760759.375 9 -15398000.640 7  20922323.181    20922323.181    20922328.848
     -1582.147       -1232.851
   1165983.377 6         0.000 1  25282509.822    25282509.822           0.000
     -1454.591          -0.000
 -12564074.106 8  -9790198.926 5  22788749.417    22788749.417    22788754.597
     -3487.469       -2717.510
 -15722503.940 9 -12251295.473 7  21615542.853    21615542.853    21615548.892
     -1920.847       -1496.770
 -13979361.826 9 -10892999.790 6  21527699.053    21527699.053    21527703.517
      1466.835        1142.995
 -22978671.854 9 -17905461.751 7  20648499.954    20648499.954    20648503.874
       710.630         553.725
  -5498363.423 7  -4284438.201 3  24268551.989    24268551.989    24268552.189
      3118.853        2430.280
  -2813027.177 7  -2191988.278 4  23984964.965    23984964.965    23984973.378
     -2977.247       -2319.953
 -24450865.864 9 -19017322.594 7  19377364.090    19377364.090    19377368.043
      -276.687        -215.200
   -672639.177 7   -523167.998 4  24018438.133    24018438.133    24018444.435
     -4245.875       -3302.402
   -342960.746 6   -266750.449 5  24240803.479    24240803.479    24240807.833
      -344.580        -267.973
   -990842.015 7   -770668.936 5  24147705.095    24147705.095    24147707.043
     -2625.195       -2041.851
 05 11 14  1 36  0.0000000  0 13G21G01G20G14G06G16G25G23G30R18R17R08-0.000000012
                                R07
  -4452255.671 7  -3469268.725 3  24625928.868    24625928.868    24625935.021
      2264.028        1764.110
 -19713024.042 9 -15360804.288 7  20931406.683    20931406.683    20931412.464
     -1600.384       -1247.059
   1209786.441 6         0.000 1  25290844.338    25290844.338           0.000
     -1465.694          -0.000
 -12459338.081 8  -9708586.500 5  22808679.433    22808679.433    22808686.359
     -3495.126       -2723.471
 -15664663.604 9 -12206225.079 7  21626549.862    21626549.862    21626555.843
     -1935.305       -1508.032
 -14023237.654 8 -10927188.665 6  21519349.448    21519349.448    21519354.456
      1457.991        1136.080
 -22999836.309 9 -17921953.493 7  20644472.336    20644472.336    20644476.457
       700.153         545.560
  -5591778.148 7  -4357228.803 4  24250773.012    24250773.012    24250777.161
      3108.463        2422.197
  -2723710.916 7  -2122391.199 4  24001962.930    24001962.930    24001968.969
     -2977.287       -2319.966
 -24442184.592 9 -19010570.447 7  19378982.699    19378982.699    19378987.225
      -302.237        -235.068
   -545211.411 6   -424057.447 4  24042241.267    24042241.267    24042242.757
     -4249.205       -3304.948
   -332291.231 6   -258451.922 6  24242796.370    24242796.370    24242799.980
      -366.865        -285.359
   -911926.369 7   -709290.266 5  24162451.385    24162451.385    24162455.109
     -2635.981       -2050.202
 05 11 14  1 36 30.0000000  0 13G21G01G20G14G06G16G25G23G30R18R17R08-0.000000011
                                R07
  -4520128.404 7  -3522156.348 3  24613013.884    24613013.884    24613020.524
      2260.435        1761.356
 -19664747.080 9 -15323185.889 7  20940593.435    20940593.435    20940599.159
     -1618.328       -1261.036
   1253916.944 6    977087.389 2  25299241.713    25299241.713    25299243.888
     -1476.457       -1150.491
 -12354379.920 8  -9626801.015 5  22828652.295    22828652.295    22828659.535
     -3502.382       -2729.128
 -15606396.458 8 -12160822.116 7  21637636.629    21637636.629    21637642.668
     -1949.434       -1519.027
 -14066853.976 9 -10961175.363 6  21511049.375    21511049.375    21511053.868
      1449.474        1129.459
 -23020692.406 9 -17938204.957 7  20640503.561    20640503.561    20640507.539
       689.954         537.612
  -5684886.176 7  -4429780.442 3  24233057.341    24233057.341    24233061.062
      3098.341        2414.293
  -2634398.875 7  -2052797.465 4  24018957.793    24018957.793    24018964.032
     -2977.027       -2319.787
 -24432742.789 9 -19003226.764 7  19380743.465    19380743.465    19380747.648
      -327.475        -254.704
   -417684.509 6         0.000 1  24066063.399    24066063.399           0.000
     -4252.604          -0.000
   -320956.699 6   -249636.178 6  24244913.678    24244913.678    24244917.746
      -388.948        -302.516
   -832693.524 6   -647664.806 5  24177258.311    24177258.311    24177263.467
     -2646.341       -2058.280
 05 11 14  1 37  0.0000000  0 13G21G01G20G14G06G16G25G23G30R18R17R08-0.000000011
                                R07
  -4587894.689 7  -3574961.046 3  24600115.081    24600115.081    24600123.266
      2257.301        1758.957
 -19615935.196 9 -15285150.652 7  20949882.220    20949882.220    20949887.858
     -1635.656       -1274.564
   1298367.547 6   1011724.249 1  25307699.850    25307699.850    25307720.541
     -1486.649       -1158.427
 -12249207.808 8  -9544848.805 5  22848665.584    22848665.584    22848672.853
     -3508.989       -2734.277
 -15547709.764 9 -12115092.241 7  21648805.302    21648805.302    21648811.140
     -1962.872       -1529.508
 -14110216.256 9 -10994964.086 6  21502797.782    21502797.782    21502802.332
      1441.462        1123.236
 -23041243.521 9 -17954218.764 7  20636592.665    20636592.665    20636596.786
       680.221         530.038
  -5777689.760 7  -4502094.896 3  24215397.489    24215397.489    24215401.610
      3088.600        2406.752
  -2545096.929 7  -1983211.573 4  24035950.222    24035950.222    24035959.008
     -2976.291       -2319.178
 -24422545.655 9 -18995295.618 7  19382644.844    19382644.844    19382648.683
      -352.215        -273.938
   -290064.937 7   -225610.007 3  24089904.106    24089904.106    24089909.892
     -4255.146       -3309.564
   -308963.377 6   -240308.021 6  24247152.413    24247152.413    24247158.200
      -410.438        -319.216
   -753153.876 6   -585800.741 5  24192121.201    24192121.201    24192126.071
     -2656.239       -2065.962
 05 11 14  1 37 30.0000000  0 13G21G01G20G14G06G16G25G23G30R18R17R08-0.000000013
                                R07
  -4655552.592 7  -3627681.260 3  24587242.165    24587242.165    24587249.263
      2253.829        1756.254
 -19566591.043 9 -15246700.679 7  20959272.645    20959272.645    20959278.025
     -1653.236       -1288.229
   1343134.304 6   1046607.326 1  25316222.380    25316222.380    25316223.754
     -1497.013       -1166.489
 -12143825.235 8  -9462732.612 5  22868719.308    22868719.308    22868726.663
     -3515.844       -2739.612
 -15488606.472 9 -12069037.720 7  21660051.868    21660051.868    21660058.365
     -1976.602       -1540.225
 -14153325.565 8 -11028555.695 6  21494594.718    21494594.718    21494599.440
      1433.177        1116.729
 -23061489.133 9 -17969994.537 7  20632740.035    20632740.035    20632744.299
       670.140         522.189
  -5870186.665 7  -4574170.383 4  24197794.092    24197794.092    24197796.839
      3078.524        2398.819
  -2455806.611 7  -1913634.757 4  24052944.082    24052944.082    24052948.890
     -2975.702       -2318.724
 -24411596.369 8 -18986779.456 7  19384686.105    19384686.105    19384690.975
      -377.085        -293.292
   -162355.139 6   -126280.111 4  24113761.127    24113761.127    24113769.320
     -4257.981       -3311.771
   -296314.025 6   -230469.625 5  24249515.056    24249515.056    24249518.092
      -432.258        -336.178
   -673311.370 7   -523701.151 5  24207042.698    24207042.698    24207046.708
     -2665.947       -2073.522
 05 11 14  1 38  0.0000000  0 13G21G01G20G14G06G16G25G23G30R18R17R08-0.000000011
                                R07
  -4723092.694 7  -3680309.741 3  24574389.478    24574389.478    24574397.950
      2249.410        1752.797
 -19516709.484 9 -15207831.949 7  20968764.018    20968764.018    20968770.343
     -1671.565       -1302.494
   1388221.857 6         0.000 1  25324800.423    25324800.423           0.000
     -1508.185          -0.000
 -12038228.396 8  -9380449.452 5  22888814.082    22888814.082    22888821.037
     -3523.330       -2745.461
 -15429081.979 8 -12022654.997 7  21671378.952    21671378.952    21671384.790
     -1991.010       -1551.424
 -14196175.778 9 -11061945.422 6  21486440.792    21486440.792    21486445.171
      1424.111        1109.682
 -23081421.354 9 -17985526.104 7  20628947.048    20628947.048    20628951.226
       659.280         513.701
  -5962367.619 7  -4645999.664 4  24180251.480    24180251.480    24180256.517
      3067.559        2390.323
  -2366521.999 7  -1844062.386 4  24069933.521    24069933.521    24069940.647
     -2975.999       -2319.012
 -24399889.670 8 -18977674.195 7  19386869.254    19386869.254    19386874.353
      -402.759        -313.262
    -34554.279 6    -26879.357 4  24137635.182    24137635.182    24137641.599
     -4261.375       -3314.486
   -283002.358 6   -220116.082 5  24252000.542    24252000.542    24252003.235
      -454.595        -353.585
   -593163.998 6   -461364.368 5  24222023.774    24222023.774    24222021.138
     -2676.655       -2081.866
 05 11 14  1 38 30.0000000  0 13G21G01G20G14G06G16G25G23G30R18R17R08-0.000000010
                                R07
  -4790517.158 7  -3732848.091 3  24561559.213    24561559.213    24561564.307
      2245.611        1749.807
 -19466296.920 9 -15168549.449 7  20978357.302    20978357.302    20978363.426
     -1689.143       -1316.213
   1433622.750 6         0.000 1  25333443.647    25333443.647           0.000
     -1518.342          -0.000
 -11932425.231 8  -9298005.511 5  22908947.281    22908947.281    22908954.292
     -3530.090       -2750.694
 -15369143.019 9 -11975949.288 7  21682785.517    21682785.517    21682790.497
     -2004.752       -1562.147
 -14238771.800 9 -11095137.096 6  21478334.617    21478334.617    21478338.767
      1415.764        1103.165
 -23101042.871 9 -18000815.570 7  20625213.303    20625213.303    20625217.224
       648.992         505.701
  -6054234.872 7  -4717584.502 4  24162772.262    24162772.262    24162775.496
      3057.149        2382.149
  -2277248.597 7  -1774498.749 4  24086920.941    24086920.941    24086930.500
     -2975.391       -2318.460
 -24387430.798 8 -18967983.915 7  19389192.805    19389192.805    19389197.159
      -427.682        -332.649
     93329.548 6         0.000 1  24161525.167    24161525.167           0.000
     -4263.954          -0.000
   -269035.303 6   -209252.778 5  24254608.765    24254608.765    24254611.515
      -476.402        -370.551
   -512720.462 6   -398797.275 5  24237051.369    24237051.369    24237056.755
     -2686.273       -2089.343
 05 11 14  1 39  0.0000000  0 13G21G01G20G14G06G16G25G23G30R18R17R08-0.000000007
                                R07
  -4857818.380 7  -3785290.426 3  24548751.436    24548751.436    24548758.190
      2241.385        1746.517
 -19415350.514 9 -15128850.970 7  20988052.414    20988052.414    20988057.852
     -1706.956       -1330.110
   1479338.802 6         0.000 1  25342142.762    25342142.762           0.000
     -1528.814          -0.000
 -11826413.908 8  -9215399.374 5  22929121.369    22929121.369    22929127.722
     -3536.977       -2756.093
 -15308787.324 8 -11928918.866 7  21694270.232    21694270.232    21694276.242
     -2018.674       -1573.006
 -14281109.659 9 -11128127.595 6  21470278.102    21470278.102    21470282.538
      1407.103        1096.420
 -23120348.226 9 -18015858.678 7  20621539.466    20621539.466    20621543.587
       638.367         497.403
  -6145781.136 7  -4788919.238 4  24145350.027    24145350.027    24145354.835
      3046.293        2373.760
  -2187982.466 7  -1704940.802 4  24103907.182    24103907.182    24103914.108
     -2975.376       -2318.484
 -24374217.437 9 -18957706.833 7  19391656.904    19391656.904    19391661.373
      -452.857        -352.207
    221297.854 6    172117.053 3  24185430.884    24185430.884    24185433.462
     -4266.885       -3318.745
   -254409.632 6   -197877.243 6  24257339.950    24257339.950    24257343.617
      -498.270        -387.541
   -431981.517 6   -336000.389 5  24252144.071    24252144.071    24252145.274
     -2696.050       -2096.914
 05 11 14  1 39 30.0000000  0 13G21G01G20G14G06G16G25G23G30R18R17R08-0.000000004
                                R07
  -4924999.069 7  -3837638.821 3  24535967.770    24535967.770    24535974.524
      2237.145        1743.214
 -19363877.286 9 -15088741.980 7  20997847.728    20997847.728    20997853.137
     -1724.673       -1343.882
   1525362.308 6   1188602.980 1  25350898.040    25350898.040    25350912.006
     -1539.409       -1199.536
 -11720202.131 8  -9132637.045 5  22949331.930    22949331.930    22949339.514
     -3543.819       -2761.426
 -15248022.082 9 -11881569.297 7  21705833.902    21705833.902    21705839.024
     -2032.459       -1583.746
 -14323194.765 9 -11160921.153 6  21462269.593    21462269.593    21462273.800
      1398.482        1089.739
 -23139340.942 9 -18030658.189 7  20617925.197    20617925.197    20617929.661
       627.695         489.101
  -6237008.692 7  -4860005.582 4  24127990.434    24127990.434    24127992.438
      3035.471        2365.284
  -2098729.596 7  -1635393.185 4  24120893.370    24120893.370    24120899.380
     -2974.966       -2318.157
 -24360256.216 8 -18946848.069 7  19394260.189    19394260.189    19394264.887
      -477.998        -371.768
    349342.101 6    271707.215 3  24209350.633    24209350.633    24209355.045
     -4269.479       -3321.162
   -239131.364 6   -185994.119 6  24260194.828    24260194.828    24260195.745
      -520.309        -404.685
   -350955.651 6   -272980.383 5  24267283.118    24267283.118    24267287.645
     -2705.685       -2104.406
 05 11 14  1 40  0.0000000  0 13G21G01G20G14G06G16G25G23G30R18R17R08-0.000000001
                                R07
  -4992055.915 7  -3889890.731 3  24523205.439    24523205.439    24523212.880
      2233.290        1740.204
 -19311878.849 9 -15048223.719 7  21007742.301    21007742.301    21007748.197
     -1741.801       -1357.241
   1571690.781 6   1224703.014 1  25359714.381    25359714.381    25359723.110
     -1549.231       -1207.192
 -11613793.173 8  -9049721.052 5  22969582.303    22969582.303    22969588.227
     -3550.021       -2766.236
 -15186849.341 8 -11833902.208 7  21717474.377    21717474.377    21717480.387
     -2045.633       -1594.012
 -14365027.292 9 -11193517.897 6  21454308.710    21454308.710    21454313.088
      1390.396        1083.440
 -23158019.486 9 -18045212.879 7  20614370.741    20614370.741    20614375.262
       617.569         481.195
  -6327914.384 7  -4930841.098 4  24110691.238    24110691.238    24110695.559
      3024.975        2357.080
  -2009490.554 7  -1565856.354 4  24137875.291    24137875.291    24137882.273
     -2974.163       -2317.510
 -24345547.981 9 -18935408.281 7  19397002.571    19397002.571    19397007.441
      -502.500        -390.856
    477459.455 6    371354.156 4  24233284.236    24233284.236    24233290.252
     -4271.261       -3322.078
   -223202.032 6   -173604.597 6  24263168.146    24263168.146    24263171.641
      -541.663        -421.302
   -269647.663 6   -209740.919 5  24282478.784    24282478.784    24282482.222
     -2714.692       -2111.442
 05 11 14  1 40 30.0000000  0 13G21G01G20G14G06G16G25G23G30R18R17R08-0.000000002
                                R07
  -5058989.697 7  -3942046.778 3  24510468.762    24510468.762    24510473.140
      2228.297        1736.329
 -19259360.299 9 -15007300.192 7  21017735.786    21017735.786    21017741.939
     -1759.973       -1371.416
   1618318.253 6         0.000 1  25368586.775    25368586.775           0.000
     -1559.927          -0.000
 -11507193.304 8  -8966656.336 5  22989866.593    22989866.593    22989873.518
     -3557.225       -2771.896
 -15125274.718 9 -11785921.960 7  21729191.837    21729191.837    21729197.418
     -2059.894       -1605.134
 -14406611.210 9 -11225920.933 6  21446396.231    21446396.231    21446399.980
      1381.261        1076.316
 -23176386.171 9 -18059524.580 7  20610875.706    20610875.706    20610879.941
       606.271         472.409
  -6418499.787 7  -5001427.082 4  24093456.027    24093456.027    24093457.945
      3013.334        2348.004
  -1920269.261 7  -1496333.351 4  24154851.553    24154851.553    24154859.910
     -2974.443       -2317.738
 -24330098.563 9 -18923392.039 7  19399884.013    19399884.013    19399887.966
      -528.109        -410.738
    605642.575 7    471052.266 4  24257229.476    24257229.476    24257233.601
     -4274.524       -3324.651
   -206626.492 6   -160712.466 6  24266262.647    24266262.647    24266265.798
      -564.013        -438.690
   -188065.109 6   -146287.942 5  24297723.218    24297723.218    24297727.343
     -2724.685       -2119.204
